<?xml version="1.0" encoding="UTF-8" standalone="no" ?>
<gpx xmlns="http://www.topografix.com/GPX/1/1" xmlns:xsi="http://www.w3.org/2001/XMLSchema-instance" xsi:schemaLocation="http://www.topografix.com/GPX/1/1 http://www.topografix.com/GPX/1/1/gpx.xsd" version="1.1" creator="VisuGPX - https://www.visugpx.com">
  <metadata>
    <name>Tour du Grand Périgueux VTT</name>
  </metadata>
  <trk>
    <name><![CDATA[Tour du Grand Périgueux VTT_1]]></name>
    <trkseg>
      <trkpt lat="45.24666" lon="0.66431">
        <ele>189</ele>
        <time>2021-08-31T00:48:26Z</time>
      </trkpt>
      <trkpt lat="45.24763" lon="0.66313">
        <ele>186</ele>
        <time>2021-08-31T00:48:56Z</time>
      </trkpt>
      <trkpt lat="45.24836" lon="0.66241">
        <ele>182</ele>
        <time>2021-08-31T00:49:17Z</time>
      </trkpt>
      <trkpt lat="45.24865" lon="0.66203">
        <ele>178</ele>
        <time>2021-08-31T00:49:26Z</time>
      </trkpt>
      <trkpt lat="45.24978" lon="0.65996">
        <ele>163</ele>
        <time>2021-08-31T00:50:09Z</time>
      </trkpt>
      <trkpt lat="45.25007" lon="0.65933">
        <ele>161</ele>
        <time>2021-08-31T00:50:21Z</time>
      </trkpt>
      <trkpt lat="45.25006" lon="0.65918">
        <ele>160</ele>
        <time>2021-08-31T00:50:24Z</time>
      </trkpt>
      <trkpt lat="45.24982" lon="0.65881">
        <ele>158</ele>
        <time>2021-08-31T00:50:32Z</time>
      </trkpt>
      <trkpt lat="45.24969" lon="0.6588">
        <ele>159</ele>
        <time>2021-08-31T00:50:35Z</time>
      </trkpt>
      <trkpt lat="45.24955" lon="0.65891">
        <ele>159</ele>
        <time>2021-08-31T00:50:39Z</time>
      </trkpt>
      <trkpt lat="45.24967" lon="0.65876">
        <ele>159</ele>
        <time>2021-08-31T00:50:43Z</time>
      </trkpt>
      <trkpt lat="45.24991" lon="0.65796">
        <ele>158</ele>
        <time>2021-08-31T00:50:57Z</time>
      </trkpt>
      <trkpt lat="45.25019" lon="0.65764">
        <ele>159</ele>
        <time>2021-08-31T00:51:05Z</time>
      </trkpt>
      <trkpt lat="45.25034" lon="0.65735">
        <ele>161</ele>
        <time>2021-08-31T00:51:11Z</time>
      </trkpt>
      <trkpt lat="45.25052" lon="0.65717">
        <ele>163</ele>
        <time>2021-08-31T00:51:16Z</time>
      </trkpt>
      <trkpt lat="45.25055" lon="0.65704">
        <ele>164</ele>
        <time>2021-08-31T00:51:19Z</time>
      </trkpt>
      <trkpt lat="45.25076" lon="0.65676">
        <ele>165</ele>
        <time>2021-08-31T00:51:25Z</time>
      </trkpt>
      <trkpt lat="45.25086" lon="0.65653">
        <ele>166</ele>
        <time>2021-08-31T00:51:30Z</time>
      </trkpt>
      <trkpt lat="45.25108" lon="0.6564">
        <ele>166</ele>
        <time>2021-08-31T00:51:35Z</time>
      </trkpt>
      <trkpt lat="45.25125" lon="0.65621">
        <ele>166</ele>
        <time>2021-08-31T00:51:40Z</time>
      </trkpt>
      <trkpt lat="45.25133" lon="0.65602">
        <ele>166</ele>
        <time>2021-08-31T00:51:44Z</time>
      </trkpt>
      <trkpt lat="45.25162" lon="0.65555">
        <ele>164</ele>
        <time>2021-08-31T00:51:54Z</time>
      </trkpt>
      <trkpt lat="45.25198" lon="0.65438">
        <ele>170</ele>
        <time>2021-08-31T00:52:15Z</time>
      </trkpt>
      <trkpt lat="45.25207" lon="0.65412">
        <ele>170</ele>
        <time>2021-08-31T00:52:20Z</time>
      </trkpt>
      <trkpt lat="45.25215" lon="0.65398">
        <ele>170</ele>
        <time>2021-08-31T00:52:23Z</time>
      </trkpt>
      <trkpt lat="45.25224" lon="0.65365">
        <ele>169</ele>
        <time>2021-08-31T00:52:29Z</time>
      </trkpt>
      <trkpt lat="45.2524" lon="0.65321">
        <ele>169</ele>
        <time>2021-08-31T00:52:37Z</time>
      </trkpt>
      <trkpt lat="45.25263" lon="0.65291">
        <ele>170</ele>
        <time>2021-08-31T00:52:44Z</time>
      </trkpt>
      <trkpt lat="45.25267" lon="0.65273">
        <ele>171</ele>
        <time>2021-08-31T00:52:47Z</time>
      </trkpt>
      <trkpt lat="45.25278" lon="0.65256">
        <ele>171</ele>
        <time>2021-08-31T00:52:51Z</time>
      </trkpt>
      <trkpt lat="45.25299" lon="0.65192">
        <ele>174</ele>
        <time>2021-08-31T00:53:03Z</time>
      </trkpt>
      <trkpt lat="45.25225" lon="0.65104">
        <ele>183</ele>
        <time>2021-08-31T00:53:25Z</time>
      </trkpt>
      <trkpt lat="45.25185" lon="0.65018">
        <ele>193</ele>
        <time>2021-08-31T00:53:42Z</time>
      </trkpt>
      <trkpt lat="45.25178" lon="0.64987">
        <ele>195</ele>
        <time>2021-08-31T00:53:48Z</time>
      </trkpt>
      <trkpt lat="45.25157" lon="0.64939">
        <ele>197</ele>
        <time>2021-08-31T00:53:57Z</time>
      </trkpt>
      <trkpt lat="45.25106" lon="0.64844">
        <ele>200</ele>
        <time>2021-08-31T00:54:17Z</time>
      </trkpt>
      <trkpt lat="45.25099" lon="0.64819">
        <ele>201</ele>
        <time>2021-08-31T00:54:21Z</time>
      </trkpt>
      <trkpt lat="45.25094" lon="0.64764">
        <ele>203</ele>
        <time>2021-08-31T00:54:30Z</time>
      </trkpt>
      <trkpt lat="45.25098" lon="0.64703">
        <ele>204</ele>
        <time>2021-08-31T00:54:40Z</time>
      </trkpt>
      <trkpt lat="45.25121" lon="0.646">
        <ele>206</ele>
        <time>2021-08-31T00:54:58Z</time>
      </trkpt>
      <trkpt lat="45.25146" lon="0.64525">
        <ele>208</ele>
        <time>2021-08-31T00:55:12Z</time>
      </trkpt>
      <trkpt lat="45.25098" lon="0.64385">
        <ele>203</ele>
        <time>2021-08-31T00:55:37Z</time>
      </trkpt>
      <trkpt lat="45.25197" lon="0.64282">
        <ele>211</ele>
        <time>2021-08-31T00:56:06Z</time>
      </trkpt>
      <trkpt lat="45.25204" lon="0.64208">
        <ele>210</ele>
        <time>2021-08-31T00:56:18Z</time>
      </trkpt>
      <trkpt lat="45.25188" lon="0.64159">
        <ele>210</ele>
        <time>2021-08-31T00:56:27Z</time>
      </trkpt>
      <trkpt lat="45.25151" lon="0.64125">
        <ele>212</ele>
        <time>2021-08-31T00:56:37Z</time>
      </trkpt>
      <trkpt lat="45.2512" lon="0.6409">
        <ele>214</ele>
        <time>2021-08-31T00:56:47Z</time>
      </trkpt>
      <trkpt lat="45.25082" lon="0.64071">
        <ele>213</ele>
        <time>2021-08-31T00:56:56Z</time>
      </trkpt>
      <trkpt lat="45.25026" lon="0.64056">
        <ele>213</ele>
        <time>2021-08-31T00:57:09Z</time>
      </trkpt>
      <trkpt lat="45.25025" lon="0.64049">
        <ele>213</ele>
        <time>2021-08-31T00:57:10Z</time>
      </trkpt>
      <trkpt lat="45.24988" lon="0.64001">
        <ele>214</ele>
        <time>2021-08-31T00:57:22Z</time>
      </trkpt>
      <trkpt lat="45.24986" lon="0.63999">
        <ele>214</ele>
        <time>2021-08-31T00:57:23Z</time>
      </trkpt>
      <trkpt lat="45.24973" lon="0.64">
        <ele>215</ele>
        <time>2021-08-31T00:57:26Z</time>
      </trkpt>
      <trkpt lat="45.24965" lon="0.63979">
        <ele>215</ele>
        <time>2021-08-31T00:57:30Z</time>
      </trkpt>
      <trkpt lat="45.24926" lon="0.63955">
        <ele>215</ele>
        <time>2021-08-31T00:57:40Z</time>
      </trkpt>
      <trkpt lat="45.24852" lon="0.63823">
        <ele>213</ele>
        <time>2021-08-31T00:58:07Z</time>
      </trkpt>
      <trkpt lat="45.24836" lon="0.63723">
        <ele>212</ele>
        <time>2021-08-31T00:58:24Z</time>
      </trkpt>
      <trkpt lat="45.24841" lon="0.63461">
        <ele>216</ele>
        <time>2021-08-31T00:59:07Z</time>
      </trkpt>
      <trkpt lat="45.24798" lon="0.63373">
        <ele>216</ele>
        <time>2021-08-31T00:59:25Z</time>
      </trkpt>
      <trkpt lat="45.24764" lon="0.63271">
        <ele>216</ele>
        <time>2021-08-31T00:59:43Z</time>
      </trkpt>
      <trkpt lat="45.24713" lon="0.63207">
        <ele>215</ele>
        <time>2021-08-31T00:59:59Z</time>
      </trkpt>
      <trkpt lat="45.24682" lon="0.63138">
        <ele>215</ele>
        <time>2021-08-31T01:00:13Z</time>
      </trkpt>
      <trkpt lat="45.24657" lon="0.63065">
        <ele>210</ele>
        <time>2021-08-31T01:00:26Z</time>
      </trkpt>
      <trkpt lat="45.24639" lon="0.63041">
        <ele>207</ele>
        <time>2021-08-31T01:00:32Z</time>
      </trkpt>
      <trkpt lat="45.24631" lon="0.63026">
        <ele>205</ele>
        <time>2021-08-31T01:00:35Z</time>
      </trkpt>
      <trkpt lat="45.24542" lon="0.6295">
        <ele>198</ele>
        <time>2021-08-31T01:00:59Z</time>
      </trkpt>
      <trkpt lat="45.2451" lon="0.62938">
        <ele>195</ele>
        <time>2021-08-31T01:01:07Z</time>
      </trkpt>
      <trkpt lat="45.24469" lon="0.62936">
        <ele>193</ele>
        <time>2021-08-31T01:01:17Z</time>
      </trkpt>
      <trkpt lat="45.24377" lon="0.62957">
        <ele>189</ele>
        <time>2021-08-31T01:01:38Z</time>
      </trkpt>
      <trkpt lat="45.24348" lon="0.62966">
        <ele>186</ele>
        <time>2021-08-31T01:01:45Z</time>
      </trkpt>
      <trkpt lat="45.2432" lon="0.62982">
        <ele>184</ele>
        <time>2021-08-31T01:01:52Z</time>
      </trkpt>
      <trkpt lat="45.24278" lon="0.63033">
        <ele>182</ele>
        <time>2021-08-31T01:02:05Z</time>
      </trkpt>
      <trkpt lat="45.24243" lon="0.6314">
        <ele>181</ele>
        <time>2021-08-31T01:02:25Z</time>
      </trkpt>
      <trkpt lat="45.2423" lon="0.63225">
        <ele>182</ele>
        <time>2021-08-31T01:02:39Z</time>
      </trkpt>
      <trkpt lat="45.24224" lon="0.633">
        <ele>186</ele>
        <time>2021-08-31T01:02:51Z</time>
      </trkpt>
      <trkpt lat="45.24185" lon="0.63359">
        <ele>182</ele>
        <time>2021-08-31T01:03:05Z</time>
      </trkpt>
      <trkpt lat="45.24164" lon="0.63372">
        <ele>180</ele>
        <time>2021-08-31T01:03:10Z</time>
      </trkpt>
      <trkpt lat="45.24147" lon="0.63364">
        <ele>177</ele>
        <time>2021-08-31T01:03:14Z</time>
      </trkpt>
      <trkpt lat="45.24129" lon="0.63338">
        <ele>173</ele>
        <time>2021-08-31T01:03:20Z</time>
      </trkpt>
      <trkpt lat="45.24121" lon="0.63304">
        <ele>174</ele>
        <time>2021-08-31T01:03:26Z</time>
      </trkpt>
      <trkpt lat="45.24122" lon="0.63293">
        <ele>175</ele>
        <time>2021-08-31T01:03:28Z</time>
      </trkpt>
      <trkpt lat="45.24117" lon="0.63329">
        <ele>172</ele>
        <time>2021-08-31T01:03:34Z</time>
      </trkpt>
      <trkpt lat="45.2411" lon="0.63342">
        <ele>173</ele>
        <time>2021-08-31T01:03:37Z</time>
      </trkpt>
      <trkpt lat="45.24071" lon="0.63371">
        <ele>174</ele>
        <time>2021-08-31T01:03:47Z</time>
      </trkpt>
      <trkpt lat="45.24003" lon="0.6347">
        <ele>171</ele>
        <time>2021-08-31T01:04:10Z</time>
      </trkpt>
      <trkpt lat="45.23933" lon="0.6358">
        <ele>171</ele>
        <time>2021-08-31T01:04:34Z</time>
      </trkpt>
      <trkpt lat="45.23927" lon="0.63588">
        <ele>171</ele>
        <time>2021-08-31T01:04:36Z</time>
      </trkpt>
      <trkpt lat="45.23917" lon="0.6359">
        <ele>171</ele>
        <time>2021-08-31T01:04:38Z</time>
      </trkpt>
      <trkpt lat="45.23911" lon="0.63586">
        <ele>172</ele>
        <time>2021-08-31T01:04:40Z</time>
      </trkpt>
      <trkpt lat="45.2387" lon="0.63531">
        <ele>181</ele>
        <time>2021-08-31T01:04:53Z</time>
      </trkpt>
      <trkpt lat="45.23838" lon="0.63503">
        <ele>188</ele>
        <time>2021-08-31T01:05:02Z</time>
      </trkpt>
      <trkpt lat="45.23749" lon="0.63443">
        <ele>199</ele>
        <time>2021-08-31T01:05:25Z</time>
      </trkpt>
      <trkpt lat="45.23703" lon="0.63419">
        <ele>200</ele>
        <time>2021-08-31T01:05:36Z</time>
      </trkpt>
      <trkpt lat="45.2364" lon="0.63378">
        <ele>202</ele>
        <time>2021-08-31T01:05:52Z</time>
      </trkpt>
      <trkpt lat="45.23629" lon="0.63366">
        <ele>203</ele>
        <time>2021-08-31T01:05:56Z</time>
      </trkpt>
      <trkpt lat="45.23625" lon="0.63321">
        <ele>205</ele>
        <time>2021-08-31T01:06:03Z</time>
      </trkpt>
      <trkpt lat="45.23612" lon="0.63241">
        <ele>207</ele>
        <time>2021-08-31T01:06:17Z</time>
      </trkpt>
      <trkpt lat="45.23612" lon="0.63113">
        <ele>207</ele>
        <time>2021-08-31T01:06:38Z</time>
      </trkpt>
      <trkpt lat="45.23585" lon="0.63005">
        <ele>207</ele>
        <time>2021-08-31T01:06:57Z</time>
      </trkpt>
      <trkpt lat="45.23554" lon="0.62945">
        <ele>206</ele>
        <time>2021-08-31T01:07:09Z</time>
      </trkpt>
      <trkpt lat="45.23509" lon="0.62926">
        <ele>205</ele>
        <time>2021-08-31T01:07:20Z</time>
      </trkpt>
      <trkpt lat="45.23384" lon="0.62866">
        <ele>201</ele>
        <time>2021-08-31T01:07:51Z</time>
      </trkpt>
      <trkpt lat="45.2332" lon="0.6284">
        <ele>202</ele>
        <time>2021-08-31T01:08:06Z</time>
      </trkpt>
      <trkpt lat="45.23255" lon="0.62823">
        <ele>205</ele>
        <time>2021-08-31T01:08:21Z</time>
      </trkpt>
      <trkpt lat="45.2314" lon="0.62714">
        <ele>208</ele>
        <time>2021-08-31T01:08:54Z</time>
      </trkpt>
      <trkpt lat="45.23081" lon="0.62688">
        <ele>209</ele>
        <time>2021-08-31T01:09:08Z</time>
      </trkpt>
      <trkpt lat="45.23065" lon="0.62676">
        <ele>208</ele>
        <time>2021-08-31T01:09:12Z</time>
      </trkpt>
      <trkpt lat="45.2303" lon="0.62643">
        <ele>207</ele>
        <time>2021-08-31T01:09:22Z</time>
      </trkpt>
      <trkpt lat="45.22999" lon="0.626">
        <ele>207</ele>
        <time>2021-08-31T01:09:32Z</time>
      </trkpt>
      <trkpt lat="45.2291" lon="0.62529">
        <ele>206</ele>
        <time>2021-08-31T01:09:56Z</time>
      </trkpt>
      <trkpt lat="45.22868" lon="0.62471">
        <ele>205</ele>
        <time>2021-08-31T01:10:10Z</time>
      </trkpt>
      <trkpt lat="45.22779" lon="0.6244">
        <ele>201</ele>
        <time>2021-08-31T01:10:31Z</time>
      </trkpt>
      <trkpt lat="45.22749" lon="0.6255">
        <ele>201</ele>
        <time>2021-08-31T01:10:51Z</time>
      </trkpt>
      <trkpt lat="45.22742" lon="0.62592">
        <ele>201</ele>
        <time>2021-08-31T01:10:58Z</time>
      </trkpt>
      <trkpt lat="45.22732" lon="0.6268">
        <ele>200</ele>
        <time>2021-08-31T01:11:12Z</time>
      </trkpt>
      <trkpt lat="45.22731" lon="0.628">
        <ele>199</ele>
        <time>2021-08-31T01:11:32Z</time>
      </trkpt>
      <trkpt lat="45.22646" lon="0.62829">
        <ele>197</ele>
        <time>2021-08-31T01:11:53Z</time>
      </trkpt>
      <trkpt lat="45.22444" lon="0.63058">
        <ele>187</ele>
        <time>2021-08-31T01:12:53Z</time>
      </trkpt>
      <trkpt lat="45.22423" lon="0.63045">
        <ele>187</ele>
        <time>2021-08-31T01:12:58Z</time>
      </trkpt>
      <trkpt lat="45.22287" lon="0.62977">
        <ele>186</ele>
        <time>2021-08-31T01:13:32Z</time>
      </trkpt>
      <trkpt lat="45.22234" lon="0.62959">
        <ele>186</ele>
        <time>2021-08-31T01:13:45Z</time>
      </trkpt>
      <trkpt lat="45.22106" lon="0.62978">
        <ele>185</ele>
        <time>2021-08-31T01:14:15Z</time>
      </trkpt>
      <trkpt lat="45.22017" lon="0.62947">
        <ele>187</ele>
        <time>2021-08-31T01:14:36Z</time>
      </trkpt>
      <trkpt lat="45.21948" lon="0.62898">
        <ele>188</ele>
        <time>2021-08-31T01:14:54Z</time>
      </trkpt>
      <trkpt lat="45.21932" lon="0.62899">
        <ele>188</ele>
        <time>2021-08-31T01:14:58Z</time>
      </trkpt>
      <trkpt lat="45.21783" lon="0.62961">
        <ele>183</ele>
        <time>2021-08-31T01:15:34Z</time>
      </trkpt>
      <trkpt lat="45.21754" lon="0.62978">
        <ele>183</ele>
        <time>2021-08-31T01:15:42Z</time>
      </trkpt>
      <trkpt lat="45.21714" lon="0.62994">
        <ele>183</ele>
        <time>2021-08-31T01:15:51Z</time>
      </trkpt>
      <trkpt lat="45.21617" lon="0.6301">
        <ele>182</ele>
        <time>2021-08-31T01:16:14Z</time>
      </trkpt>
      <trkpt lat="45.21577" lon="0.63029">
        <ele>181</ele>
        <time>2021-08-31T01:16:24Z</time>
      </trkpt>
      <trkpt lat="45.21543" lon="0.63041">
        <ele>180</ele>
        <time>2021-08-31T01:16:32Z</time>
      </trkpt>
      <trkpt lat="45.21506" lon="0.63063">
        <ele>180</ele>
        <time>2021-08-31T01:16:41Z</time>
      </trkpt>
      <trkpt lat="45.21479" lon="0.63067">
        <ele>180</ele>
        <time>2021-08-31T01:16:48Z</time>
      </trkpt>
      <trkpt lat="45.2143" lon="0.63084">
        <ele>180</ele>
        <time>2021-08-31T01:17:00Z</time>
      </trkpt>
      <trkpt lat="45.21325" lon="0.63034">
        <ele>182</ele>
        <time>2021-08-31T01:17:25Z</time>
      </trkpt>
      <trkpt lat="45.21283" lon="0.63042">
        <ele>182</ele>
        <time>2021-08-31T01:17:35Z</time>
      </trkpt>
      <trkpt lat="45.21257" lon="0.63051">
        <ele>182</ele>
        <time>2021-08-31T01:17:42Z</time>
      </trkpt>
      <trkpt lat="45.21191" lon="0.63045">
        <ele>177</ele>
        <time>2021-08-31T01:17:57Z</time>
      </trkpt>
      <trkpt lat="45.2115" lon="0.63014">
        <ele>174</ele>
        <time>2021-08-31T01:18:08Z</time>
      </trkpt>
      <trkpt lat="45.21148" lon="0.62984">
        <ele>172</ele>
        <time>2021-08-31T01:18:13Z</time>
      </trkpt>
      <trkpt lat="45.21123" lon="0.6297">
        <ele>171</ele>
        <time>2021-08-31T01:18:19Z</time>
      </trkpt>
      <trkpt lat="45.20991" lon="0.62937">
        <ele>170</ele>
        <time>2021-08-31T01:18:50Z</time>
      </trkpt>
      <trkpt lat="45.20922" lon="0.62839">
        <ele>172</ele>
        <time>2021-08-31T01:19:13Z</time>
      </trkpt>
      <trkpt lat="45.20824" lon="0.62822">
        <ele>167</ele>
        <time>2021-08-31T01:19:36Z</time>
      </trkpt>
      <trkpt lat="45.20758" lon="0.62818">
        <ele>167</ele>
        <time>2021-08-31T01:19:52Z</time>
      </trkpt>
      <trkpt lat="45.20642" lon="0.62773">
        <ele>164</ele>
        <time>2021-08-31T01:20:20Z</time>
      </trkpt>
      <trkpt lat="45.20611" lon="0.62752">
        <ele>164</ele>
        <time>2021-08-31T01:20:28Z</time>
      </trkpt>
      <trkpt lat="45.20609" lon="0.62747">
        <ele>163</ele>
        <time>2021-08-31T01:20:29Z</time>
      </trkpt>
      <trkpt lat="45.20628" lon="0.627">
        <ele>156</ele>
        <time>2021-08-31T01:20:38Z</time>
      </trkpt>
      <trkpt lat="45.20624" lon="0.62674">
        <ele>153</ele>
        <time>2021-08-31T01:20:42Z</time>
      </trkpt>
      <trkpt lat="45.20617" lon="0.62659">
        <ele>152</ele>
        <time>2021-08-31T01:20:45Z</time>
      </trkpt>
      <trkpt lat="45.20604" lon="0.62611">
        <ele>149</ele>
        <time>2021-08-31T01:20:53Z</time>
      </trkpt>
      <trkpt lat="45.20604" lon="0.62593">
        <ele>148</ele>
        <time>2021-08-31T01:20:56Z</time>
      </trkpt>
      <trkpt lat="45.20616" lon="0.62556">
        <ele>142</ele>
        <time>2021-08-31T01:21:03Z</time>
      </trkpt>
      <trkpt lat="45.20663" lon="0.62488">
        <ele>131</ele>
        <time>2021-08-31T01:21:19Z</time>
      </trkpt>
      <trkpt lat="45.20669" lon="0.62469">
        <ele>130</ele>
        <time>2021-08-31T01:21:22Z</time>
      </trkpt>
      <trkpt lat="45.20658" lon="0.62423">
        <ele>130</ele>
        <time>2021-08-31T01:21:30Z</time>
      </trkpt>
      <trkpt lat="45.2064" lon="0.62395">
        <ele>129</ele>
        <time>2021-08-31T01:21:36Z</time>
      </trkpt>
      <trkpt lat="45.20639" lon="0.62389">
        <ele>128</ele>
        <time>2021-08-31T01:21:37Z</time>
      </trkpt>
      <trkpt lat="45.20645" lon="0.62347">
        <ele>126</ele>
        <time>2021-08-31T01:21:44Z</time>
      </trkpt>
      <trkpt lat="45.20659" lon="0.62305">
        <ele>127</ele>
        <time>2021-08-31T01:21:52Z</time>
      </trkpt>
      <trkpt lat="45.20622" lon="0.62193">
        <ele>134</ele>
        <time>2021-08-31T01:22:12Z</time>
      </trkpt>
      <trkpt lat="45.20673" lon="0.62065">
        <ele>146</ele>
        <time>2021-08-31T01:22:37Z</time>
      </trkpt>
      <trkpt lat="45.20588" lon="0.62041">
        <ele>158</ele>
        <time>2021-08-31T01:22:57Z</time>
      </trkpt>
      <trkpt lat="45.20556" lon="0.61969">
        <ele>165</ele>
        <time>2021-08-31T01:23:11Z</time>
      </trkpt>
      <trkpt lat="45.20515" lon="0.6193">
        <ele>169</ele>
        <time>2021-08-31T01:23:22Z</time>
      </trkpt>
      <trkpt lat="45.20484" lon="0.61893">
        <ele>169</ele>
        <time>2021-08-31T01:23:32Z</time>
      </trkpt>
      <trkpt lat="45.20478" lon="0.61882">
        <ele>169</ele>
        <time>2021-08-31T01:23:34Z</time>
      </trkpt>
      <trkpt lat="45.20452" lon="0.61739">
        <ele>170</ele>
        <time>2021-08-31T01:23:59Z</time>
      </trkpt>
      <trkpt lat="45.20445" lon="0.61666">
        <ele>170</ele>
        <time>2021-08-31T01:24:11Z</time>
      </trkpt>
      <trkpt lat="45.20371" lon="0.61555">
        <ele>167</ele>
        <time>2021-08-31T01:24:36Z</time>
      </trkpt>
      <trkpt lat="45.20321" lon="0.61497">
        <ele>165</ele>
        <time>2021-08-31T01:24:51Z</time>
      </trkpt>
      <trkpt lat="45.20309" lon="0.61486">
        <ele>164</ele>
        <time>2021-08-31T01:24:54Z</time>
      </trkpt>
      <trkpt lat="45.20244" lon="0.6144">
        <ele>162</ele>
        <time>2021-08-31T01:25:11Z</time>
      </trkpt>
      <trkpt lat="45.20194" lon="0.61452">
        <ele>162</ele>
        <time>2021-08-31T01:25:23Z</time>
      </trkpt>
      <trkpt lat="45.201" lon="0.61464">
        <ele>161</ele>
        <time>2021-08-31T01:25:45Z</time>
      </trkpt>
      <trkpt lat="45.19972" lon="0.61504">
        <ele>158</ele>
        <time>2021-08-31T01:26:16Z</time>
      </trkpt>
      <trkpt lat="45.19853" lon="0.61623">
        <ele>158</ele>
        <time>2021-08-31T01:26:50Z</time>
      </trkpt>
      <trkpt lat="45.19735" lon="0.61724">
        <ele>149</ele>
        <time>2021-08-31T01:27:22Z</time>
      </trkpt>
      <trkpt lat="45.19682" lon="0.6178">
        <ele>141</ele>
        <time>2021-08-31T01:27:37Z</time>
      </trkpt>
      <trkpt lat="45.19663" lon="0.61795">
        <ele>139</ele>
        <time>2021-08-31T01:27:42Z</time>
      </trkpt>
      <trkpt lat="45.19631" lon="0.61807">
        <ele>136</ele>
        <time>2021-08-31T01:27:50Z</time>
      </trkpt>
      <trkpt lat="45.19533" lon="0.61812">
        <ele>124</ele>
        <time>2021-08-31T01:28:13Z</time>
      </trkpt>
      <trkpt lat="45.19486" lon="0.61835">
        <ele>121</ele>
        <time>2021-08-31T01:28:25Z</time>
      </trkpt>
      <trkpt lat="45.19478" lon="0.61837">
        <ele>121</ele>
        <time>2021-08-31T01:28:26Z</time>
      </trkpt>
      <trkpt lat="45.19474" lon="0.61835">
        <ele>122</ele>
        <time>2021-08-31T01:28:27Z</time>
      </trkpt>
      <trkpt lat="45.19468" lon="0.61809">
        <ele>124</ele>
        <time>2021-08-31T01:28:32Z</time>
      </trkpt>
      <trkpt lat="45.19468" lon="0.61786">
        <ele>125</ele>
        <time>2021-08-31T01:28:36Z</time>
      </trkpt>
      <trkpt lat="45.19429" lon="0.61637">
        <ele>130</ele>
        <time>2021-08-31T01:29:02Z</time>
      </trkpt>
      <trkpt lat="45.19416" lon="0.61604">
        <ele>129</ele>
        <time>2021-08-31T01:29:08Z</time>
      </trkpt>
      <trkpt lat="45.19355" lon="0.61478">
        <ele>126</ele>
        <time>2021-08-31T01:29:33Z</time>
      </trkpt>
      <trkpt lat="45.19283" lon="0.61288">
        <ele>121</ele>
        <time>2021-08-31T01:30:09Z</time>
      </trkpt>
      <trkpt lat="45.19186" lon="0.61113">
        <ele>121</ele>
        <time>2021-08-31T01:30:45Z</time>
      </trkpt>
      <trkpt lat="45.19172" lon="0.61075">
        <ele>119</ele>
        <time>2021-08-31T01:30:52Z</time>
      </trkpt>
      <trkpt lat="45.19146" lon="0.60983">
        <ele>119</ele>
        <time>2021-08-31T01:31:09Z</time>
      </trkpt>
      <trkpt lat="45.19119" lon="0.6074">
        <ele>108</ele>
        <time>2021-08-31T01:31:49Z</time>
      </trkpt>
      <trkpt lat="45.19095" lon="0.60684">
        <ele>105</ele>
        <time>2021-08-31T01:32:00Z</time>
      </trkpt>
      <trkpt lat="45.19006" lon="0.60501">
        <ele>94</ele>
        <time>2021-08-31T01:32:37Z</time>
      </trkpt>
      <trkpt lat="45.19002" lon="0.60481">
        <ele>94</ele>
        <time>2021-08-31T01:32:40Z</time>
      </trkpt>
      <trkpt lat="45.18998" lon="0.60335">
        <ele>93</ele>
        <time>2021-08-31T01:33:04Z</time>
      </trkpt>
      <trkpt lat="45.19014" lon="0.60186">
        <ele>102</ele>
        <time>2021-08-31T01:33:29Z</time>
      </trkpt>
      <trkpt lat="45.19006" lon="0.60104">
        <ele>108</ele>
        <time>2021-08-31T01:33:43Z</time>
      </trkpt>
      <trkpt lat="45.18995" lon="0.60047">
        <ele>110</ele>
        <time>2021-08-31T01:33:52Z</time>
      </trkpt>
      <trkpt lat="45.18993" lon="0.59953">
        <ele>113</ele>
        <time>2021-08-31T01:34:08Z</time>
      </trkpt>
      <trkpt lat="45.18999" lon="0.59906">
        <ele>114</ele>
        <time>2021-08-31T01:34:16Z</time>
      </trkpt>
      <trkpt lat="45.19002" lon="0.59898">
        <ele>114</ele>
        <time>2021-08-31T01:34:17Z</time>
      </trkpt>
      <trkpt lat="45.18999" lon="0.59834">
        <ele>116</ele>
        <time>2021-08-31T01:34:28Z</time>
      </trkpt>
      <trkpt lat="45.19027" lon="0.59698">
        <ele>119</ele>
        <time>2021-08-31T01:34:51Z</time>
      </trkpt>
      <trkpt lat="45.19033" lon="0.59651">
        <ele>122</ele>
        <time>2021-08-31T01:34:59Z</time>
      </trkpt>
      <trkpt lat="45.19088" lon="0.59511">
        <ele>137</ele>
        <time>2021-08-31T01:35:25Z</time>
      </trkpt>
      <trkpt lat="45.19114" lon="0.59407">
        <ele>139</ele>
        <time>2021-08-31T01:35:43Z</time>
      </trkpt>
      <trkpt lat="45.19118" lon="0.59379">
        <ele>140</ele>
        <time>2021-08-31T01:35:48Z</time>
      </trkpt>
      <trkpt lat="45.19084" lon="0.59225">
        <ele>141</ele>
        <time>2021-08-31T01:36:15Z</time>
      </trkpt>
      <trkpt lat="45.19064" lon="0.5919">
        <ele>139</ele>
        <time>2021-08-31T01:36:22Z</time>
      </trkpt>
      <trkpt lat="45.19049" lon="0.59148">
        <ele>139</ele>
        <time>2021-08-31T01:36:30Z</time>
      </trkpt>
      <trkpt lat="45.19005" lon="0.5901">
        <ele>139</ele>
        <time>2021-08-31T01:36:55Z</time>
      </trkpt>
      <trkpt lat="45.18998" lon="0.58971">
        <ele>141</ele>
        <time>2021-08-31T01:37:01Z</time>
      </trkpt>
      <trkpt lat="45.18956" lon="0.58892">
        <ele>148</ele>
        <time>2021-08-31T01:37:18Z</time>
      </trkpt>
      <trkpt lat="45.18948" lon="0.58884">
        <ele>149</ele>
        <time>2021-08-31T01:37:20Z</time>
      </trkpt>
      <trkpt lat="45.18922" lon="0.58818">
        <ele>153</ele>
        <time>2021-08-31T01:37:32Z</time>
      </trkpt>
      <trkpt lat="45.18919" lon="0.58804">
        <ele>153</ele>
        <time>2021-08-31T01:37:35Z</time>
      </trkpt>
      <trkpt lat="45.18912" lon="0.58725">
        <ele>152</ele>
        <time>2021-08-31T01:37:48Z</time>
      </trkpt>
      <trkpt lat="45.1893" lon="0.58589">
        <ele>142</ele>
        <time>2021-08-31T01:38:11Z</time>
      </trkpt>
      <trkpt lat="45.18967" lon="0.58405">
        <ele>127</ele>
        <time>2021-08-31T01:38:42Z</time>
      </trkpt>
      <trkpt lat="45.18958" lon="0.58331">
        <ele>118</ele>
        <time>2021-08-31T01:38:55Z</time>
      </trkpt>
      <trkpt lat="45.18954" lon="0.58117">
        <ele>102</ele>
        <time>2021-08-31T01:39:30Z</time>
      </trkpt>
      <trkpt lat="45.18949" lon="0.58091">
        <ele>100</ele>
        <time>2021-08-31T01:39:34Z</time>
      </trkpt>
      <trkpt lat="45.18936" lon="0.58075">
        <ele>99</ele>
        <time>2021-08-31T01:39:38Z</time>
      </trkpt>
      <trkpt lat="45.18884" lon="0.58025">
        <ele>105</ele>
        <time>2021-08-31T01:39:53Z</time>
      </trkpt>
      <trkpt lat="45.18866" lon="0.58047">
        <ele>106</ele>
        <time>2021-08-31T01:39:58Z</time>
      </trkpt>
      <trkpt lat="45.18817" lon="0.58156">
        <ele>101</ele>
        <time>2021-08-31T01:40:20Z</time>
      </trkpt>
      <trkpt lat="45.18728" lon="0.58267">
        <ele>98</ele>
        <time>2021-08-31T01:40:47Z</time>
      </trkpt>
      <trkpt lat="45.18604" lon="0.58349">
        <ele>98</ele>
        <time>2021-08-31T01:41:19Z</time>
      </trkpt>
      <trkpt lat="45.18598" lon="0.58339">
        <ele>99</ele>
        <time>2021-08-31T01:41:21Z</time>
      </trkpt>
      <trkpt lat="45.1863" lon="0.58258">
        <ele>105</ele>
        <time>2021-08-31T01:41:37Z</time>
      </trkpt>
      <trkpt lat="45.18637" lon="0.58216">
        <ele>108</ele>
        <time>2021-08-31T01:41:44Z</time>
      </trkpt>
      <trkpt lat="45.186" lon="0.58144">
        <ele>113</ele>
        <time>2021-08-31T01:41:59Z</time>
      </trkpt>
      <trkpt lat="45.18523" lon="0.5804">
        <ele>123</ele>
        <time>2021-08-31T01:42:23Z</time>
      </trkpt>
      <trkpt lat="45.18484" lon="0.58017">
        <ele>128</ele>
        <time>2021-08-31T01:42:33Z</time>
      </trkpt>
      <trkpt lat="45.18454" lon="0.58066">
        <ele>128</ele>
        <time>2021-08-31T01:42:44Z</time>
      </trkpt>
      <trkpt lat="45.18405" lon="0.58162">
        <ele>131</ele>
        <time>2021-08-31T01:43:03Z</time>
      </trkpt>
      <trkpt lat="45.18301" lon="0.5826">
        <ele>140</ele>
        <time>2021-08-31T01:43:33Z</time>
      </trkpt>
      <trkpt lat="45.18169" lon="0.58434">
        <ele>137</ele>
        <time>2021-08-31T01:44:15Z</time>
      </trkpt>
      <trkpt lat="45.179" lon="0.58641">
        <ele>130</ele>
        <time>2021-08-31T01:45:26Z</time>
      </trkpt>
      <trkpt lat="45.17859" lon="0.58681">
        <ele>125</ele>
        <time>2021-08-31T01:45:38Z</time>
      </trkpt>
      <trkpt lat="45.17874" lon="0.58778">
        <ele>117</ele>
        <time>2021-08-31T01:45:54Z</time>
      </trkpt>
      <trkpt lat="45.17864" lon="0.588">
        <ele>114</ele>
        <time>2021-08-31T01:45:58Z</time>
      </trkpt>
      <trkpt lat="45.17787" lon="0.58784">
        <ele>108</ele>
        <time>2021-08-31T01:46:17Z</time>
      </trkpt>
      <trkpt lat="45.17687" lon="0.58785">
        <ele>100</ele>
        <time>2021-08-31T01:46:40Z</time>
      </trkpt>
      <trkpt lat="45.17668" lon="0.58807">
        <ele>97</ele>
        <time>2021-08-31T01:46:46Z</time>
      </trkpt>
      <trkpt lat="45.17658" lon="0.58801">
        <ele>97</ele>
        <time>2021-08-31T01:46:48Z</time>
      </trkpt>
      <trkpt lat="45.17599" lon="0.58719">
        <ele>99</ele>
        <time>2021-08-31T01:47:07Z</time>
      </trkpt>
      <trkpt lat="45.1759" lon="0.58719">
        <ele>98</ele>
        <time>2021-08-31T01:47:10Z</time>
      </trkpt>
      <trkpt lat="45.1752" lon="0.5889">
        <ele>87</ele>
        <time>2021-08-31T01:47:42Z</time>
      </trkpt>
      <trkpt lat="45.17459" lon="0.58974">
        <ele>86</ele>
        <time>2021-08-31T01:48:02Z</time>
      </trkpt>
      <trkpt lat="45.17358" lon="0.59102">
        <ele>83</ele>
        <time>2021-08-31T01:48:34Z</time>
      </trkpt>
      <trkpt lat="45.17317" lon="0.59174">
        <ele>80</ele>
        <time>2021-08-31T01:48:49Z</time>
      </trkpt>
      <trkpt lat="45.17298" lon="0.592">
        <ele>79</ele>
        <time>2021-08-31T01:48:55Z</time>
      </trkpt>
      <trkpt lat="45.1714" lon="0.59362">
        <ele>76</ele>
        <time>2021-08-31T01:49:41Z</time>
      </trkpt>
      <trkpt lat="45.1672" lon="0.59778">
        <ele>74</ele>
        <time>2021-08-31T01:51:40Z</time>
      </trkpt>
      <trkpt lat="45.16652" lon="0.59962">
        <ele>76</ele>
        <time>2021-08-31T01:52:14Z</time>
      </trkpt>
      <trkpt lat="45.16612" lon="0.60045">
        <ele>80</ele>
        <time>2021-08-31T01:52:31Z</time>
      </trkpt>
      <trkpt lat="45.16593" lon="0.60079">
        <ele>82</ele>
        <time>2021-08-31T01:52:38Z</time>
      </trkpt>
      <trkpt lat="45.16586" lon="0.60086">
        <ele>82</ele>
        <time>2021-08-31T01:52:40Z</time>
      </trkpt>
      <trkpt lat="45.16565" lon="0.6009">
        <ele>83</ele>
        <time>2021-08-31T01:52:45Z</time>
      </trkpt>
      <trkpt lat="45.1654" lon="0.60111">
        <ele>83.9</ele>
        <time>2021-08-31T01:53:03Z</time>
      </trkpt>
      <trkpt lat="45.16534" lon="0.60166">
        <ele>84.8</ele>
      </trkpt>
      <trkpt lat="45.16518" lon="0.60219">
        <ele>86</ele>
        <time>2021-08-30T19:38:47Z</time>
      </trkpt>
      <trkpt lat="45.16541" lon="0.60245">
        <ele>86</ele>
        <time>2021-08-30T19:38:54Z</time>
      </trkpt>
      <trkpt lat="45.16573" lon="0.60637">
        <ele>80</ele>
        <time>2021-08-30T19:39:58Z</time>
      </trkpt>
      <trkpt lat="45.16608" lon="0.60792">
        <ele>82</ele>
        <time>2021-08-30T19:40:25Z</time>
      </trkpt>
      <trkpt lat="45.16611" lon="0.60802">
        <ele>82</ele>
        <time>2021-08-30T19:40:27Z</time>
      </trkpt>
      <trkpt lat="45.16687" lon="0.60957">
        <ele>83</ele>
        <time>2021-08-30T19:40:58Z</time>
      </trkpt>
      <trkpt lat="45.16719" lon="0.61028">
        <ele>87</ele>
        <time>2021-08-30T19:41:12Z</time>
      </trkpt>
      <trkpt lat="45.16753" lon="0.61085">
        <ele>91</ele>
        <time>2021-08-30T19:41:24Z</time>
      </trkpt>
      <trkpt lat="45.16703" lon="0.61203">
        <ele>94</ele>
        <time>2021-08-30T19:41:47Z</time>
      </trkpt>
      <trkpt lat="45.16629" lon="0.61319">
        <ele>93</ele>
        <time>2021-08-30T19:42:13Z</time>
      </trkpt>
      <trkpt lat="45.16615" lon="0.6135">
        <ele>94</ele>
        <time>2021-08-30T19:42:19Z</time>
      </trkpt>
      <trkpt lat="45.16555" lon="0.61462">
        <ele>95</ele>
        <time>2021-08-30T19:42:42Z</time>
      </trkpt>
      <trkpt lat="45.16492" lon="0.61549">
        <ele>93</ele>
        <time>2021-08-30T19:43:03Z</time>
      </trkpt>
      <trkpt lat="45.16464" lon="0.61574">
        <ele>93</ele>
        <time>2021-08-30T19:43:10Z</time>
      </trkpt>
      <trkpt lat="45.16546" lon="0.61837">
        <ele>105</ele>
        <time>2021-08-30T19:43:58Z</time>
      </trkpt>
      <trkpt lat="45.16519" lon="0.61849">
        <ele>105</ele>
        <time>2021-08-30T19:44:04Z</time>
      </trkpt>
      <trkpt lat="45.16472" lon="0.6184">
        <ele>104</ele>
        <time>2021-08-30T19:44:15Z</time>
      </trkpt>
      <trkpt lat="45.16416" lon="0.61844">
        <ele>104</ele>
        <time>2021-08-30T19:44:28Z</time>
      </trkpt>
      <trkpt lat="45.16346" lon="0.6184">
        <ele>103</ele>
        <time>2021-08-30T19:44:45Z</time>
      </trkpt>
      <trkpt lat="45.16292" lon="0.61849">
        <ele>102</ele>
        <time>2021-08-30T19:44:57Z</time>
      </trkpt>
      <trkpt lat="45.16216" lon="0.61846">
        <ele>99</ele>
        <time>2021-08-30T19:45:15Z</time>
      </trkpt>
      <trkpt lat="45.16171" lon="0.61867">
        <ele>99</ele>
        <time>2021-08-30T19:45:26Z</time>
      </trkpt>
      <trkpt lat="45.16099" lon="0.61913">
        <ele>98</ele>
        <time>2021-08-30T19:45:45Z</time>
      </trkpt>
      <trkpt lat="45.16086" lon="0.61936">
        <ele>98</ele>
        <time>2021-08-30T19:45:50Z</time>
      </trkpt>
      <trkpt lat="45.16059" lon="0.61964">
        <ele>97</ele>
        <time>2021-08-30T19:45:57Z</time>
      </trkpt>
      <trkpt lat="45.16033" lon="0.6196">
        <ele>94</ele>
        <time>2021-08-30T19:46:03Z</time>
      </trkpt>
      <trkpt lat="45.16016" lon="0.6196">
        <ele>93</ele>
        <time>2021-08-30T19:46:07Z</time>
      </trkpt>
      <trkpt lat="45.1599" lon="0.61964">
        <ele>91</ele>
        <time>2021-08-30T19:46:14Z</time>
      </trkpt>
      <trkpt lat="45.15971" lon="0.61972">
        <ele>89</ele>
        <time>2021-08-30T19:46:18Z</time>
      </trkpt>
      <trkpt lat="45.15923" lon="0.62021">
        <ele>88</ele>
        <time>2021-08-30T19:46:32Z</time>
      </trkpt>
      <trkpt lat="45.15783" lon="0.62037">
        <ele>84</ele>
        <time>2021-08-30T19:47:05Z</time>
      </trkpt>
      <trkpt lat="45.15684" lon="0.61984">
        <ele>86</ele>
        <time>2021-08-30T19:47:29Z</time>
      </trkpt>
      <trkpt lat="45.15622" lon="0.62151">
        <ele>86</ele>
        <time>2021-08-30T19:48:01Z</time>
      </trkpt>
      <trkpt lat="45.15613" lon="0.62159">
        <ele>86</ele>
        <time>2021-08-30T19:48:03Z</time>
      </trkpt>
      <trkpt lat="45.15598" lon="0.62154">
        <ele>87</ele>
        <time>2021-08-30T19:48:07Z</time>
      </trkpt>
      <trkpt lat="45.1557" lon="0.62134">
        <ele>90</ele>
        <time>2021-08-30T19:48:14Z</time>
      </trkpt>
      <trkpt lat="45.15539" lon="0.62091">
        <ele>95</ele>
        <time>2021-08-30T19:48:24Z</time>
      </trkpt>
      <trkpt lat="45.15492" lon="0.62034">
        <ele>102</ele>
        <time>2021-08-30T19:48:39Z</time>
      </trkpt>
      <trkpt lat="45.15466" lon="0.62045">
        <ele>104</ele>
        <time>2021-08-30T19:48:45Z</time>
      </trkpt>
      <trkpt lat="45.15454" lon="0.62057">
        <ele>105</ele>
        <time>2021-08-30T19:48:48Z</time>
      </trkpt>
      <trkpt lat="45.15433" lon="0.62047">
        <ele>107</ele>
        <time>2021-08-30T19:48:53Z</time>
      </trkpt>
      <trkpt lat="45.15391" lon="0.61961">
        <ele>110</ele>
        <time>2021-08-30T19:49:11Z</time>
      </trkpt>
      <trkpt lat="45.1532" lon="0.62058">
        <ele>116</ele>
        <time>2021-08-30T19:49:34Z</time>
      </trkpt>
      <trkpt lat="45.15314" lon="0.62058">
        <ele>116</ele>
        <time>2021-08-30T19:49:35Z</time>
      </trkpt>
      <trkpt lat="45.15216" lon="0.61963">
        <ele>127</ele>
        <time>2021-08-30T19:50:03Z</time>
      </trkpt>
      <trkpt lat="45.15091" lon="0.61915">
        <ele>142</ele>
        <time>2021-08-30T19:50:33Z</time>
      </trkpt>
      <trkpt lat="45.15076" lon="0.6185">
        <ele>150</ele>
        <time>2021-08-30T19:50:44Z</time>
      </trkpt>
      <trkpt lat="45.15059" lon="0.61827">
        <ele>152</ele>
        <time>2021-08-30T19:50:50Z</time>
      </trkpt>
      <trkpt lat="45.14881" lon="0.61719">
        <ele>170</ele>
        <time>2021-08-30T19:51:35Z</time>
      </trkpt>
      <trkpt lat="45.14765" lon="0.61602">
        <ele>183</ele>
        <time>2021-08-30T19:52:08Z</time>
      </trkpt>
      <trkpt lat="45.14698" lon="0.61501">
        <ele>193</ele>
        <time>2021-08-30T19:52:31Z</time>
      </trkpt>
      <trkpt lat="45.14703" lon="0.61498">
        <ele>193</ele>
        <time>2021-08-30T19:52:32Z</time>
      </trkpt>
      <trkpt lat="45.14707" lon="0.61489">
        <ele>194</ele>
        <time>2021-08-30T19:52:34Z</time>
      </trkpt>
      <trkpt lat="45.14716" lon="0.61484">
        <ele>194</ele>
        <time>2021-08-30T19:52:36Z</time>
      </trkpt>
      <trkpt lat="45.14728" lon="0.61472">
        <ele>195</ele>
        <time>2021-08-30T19:52:40Z</time>
      </trkpt>
      <trkpt lat="45.14732" lon="0.61457">
        <ele>196</ele>
        <time>2021-08-30T19:52:42Z</time>
      </trkpt>
      <trkpt lat="45.14749" lon="0.61433">
        <ele>197</ele>
        <time>2021-08-30T19:52:48Z</time>
      </trkpt>
      <trkpt lat="45.14775" lon="0.61421">
        <ele>197</ele>
        <time>2021-08-30T19:52:54Z</time>
      </trkpt>
      <trkpt lat="45.14778" lon="0.61413">
        <ele>197</ele>
        <time>2021-08-30T19:52:56Z</time>
      </trkpt>
      <trkpt lat="45.14688" lon="0.61323">
        <ele>198</ele>
        <time>2021-08-30T19:53:22Z</time>
      </trkpt>
      <trkpt lat="45.14655" lon="0.61286">
        <ele>196</ele>
        <time>2021-08-30T19:53:32Z</time>
      </trkpt>
      <trkpt lat="45.14599" lon="0.61239">
        <ele>194</ele>
        <time>2021-08-30T19:53:47Z</time>
      </trkpt>
      <trkpt lat="45.14578" lon="0.6125">
        <ele>194</ele>
        <time>2021-08-30T19:53:52Z</time>
      </trkpt>
      <trkpt lat="45.14453" lon="0.61273">
        <ele>194</ele>
        <time>2021-08-30T19:54:21Z</time>
      </trkpt>
      <trkpt lat="45.1436" lon="0.61223">
        <ele>194</ele>
        <time>2021-08-30T19:54:45Z</time>
      </trkpt>
      <trkpt lat="45.14276" lon="0.61189">
        <ele>196</ele>
        <time>2021-08-30T19:55:05Z</time>
      </trkpt>
      <trkpt lat="45.14119" lon="0.61245">
        <ele>202</ele>
        <time>2021-08-30T19:55:43Z</time>
      </trkpt>
      <trkpt lat="45.14109" lon="0.61254">
        <ele>202</ele>
        <time>2021-08-30T19:55:46Z</time>
      </trkpt>
      <trkpt lat="45.13973" lon="0.6132">
        <ele>195</ele>
        <time>2021-08-30T19:56:19Z</time>
      </trkpt>
      <trkpt lat="45.13911" lon="0.61337">
        <ele>195</ele>
        <time>2021-08-30T19:56:34Z</time>
      </trkpt>
      <trkpt lat="45.13863" lon="0.61369">
        <ele>192</ele>
        <time>2021-08-30T19:56:46Z</time>
      </trkpt>
      <trkpt lat="45.13809" lon="0.6156">
        <ele>196</ele>
        <time>2021-08-30T19:57:20Z</time>
      </trkpt>
      <trkpt lat="45.13789" lon="0.61564">
        <ele>195</ele>
        <time>2021-08-30T19:57:25Z</time>
      </trkpt>
      <trkpt lat="45.13731" lon="0.61566">
        <ele>190</ele>
        <time>2021-08-30T19:57:38Z</time>
      </trkpt>
      <trkpt lat="45.13711" lon="0.6156">
        <ele>186</ele>
        <time>2021-08-30T19:57:43Z</time>
      </trkpt>
      <trkpt lat="45.13684" lon="0.61541">
        <ele>180</ele>
        <time>2021-08-30T19:57:50Z</time>
      </trkpt>
      <trkpt lat="45.13645" lon="0.61479">
        <ele>169</ele>
        <time>2021-08-30T19:58:04Z</time>
      </trkpt>
      <trkpt lat="45.13611" lon="0.61127">
        <ele>137</ele>
        <time>2021-08-30T19:59:02Z</time>
      </trkpt>
      <trkpt lat="45.13629" lon="0.60961">
        <ele>132</ele>
        <time>2021-08-30T19:59:30Z</time>
      </trkpt>
      <trkpt lat="45.1363" lon="0.60912">
        <ele>133</ele>
        <time>2021-08-30T19:59:38Z</time>
      </trkpt>
      <trkpt lat="45.13628" lon="0.6091">
        <ele>133</ele>
        <time>2021-08-30T19:59:39Z</time>
      </trkpt>
      <trkpt lat="45.13631" lon="0.60915">
        <ele>133</ele>
        <time>2021-08-30T19:59:40Z</time>
      </trkpt>
      <trkpt lat="45.13626" lon="0.6092">
        <ele>132</ele>
        <time>2021-08-30T19:59:41Z</time>
      </trkpt>
      <trkpt lat="45.13578" lon="0.609">
        <ele>123</ele>
        <time>2021-08-30T19:59:53Z</time>
      </trkpt>
      <trkpt lat="45.13549" lon="0.60954">
        <ele>122</ele>
        <time>2021-08-30T20:00:04Z</time>
      </trkpt>
      <trkpt lat="45.13543" lon="0.60956">
        <ele>122</ele>
        <time>2021-08-30T20:00:06Z</time>
      </trkpt>
      <trkpt lat="45.13534" lon="0.60953">
        <ele>121</ele>
        <time>2021-08-30T20:00:08Z</time>
      </trkpt>
      <trkpt lat="45.1353" lon="0.60969">
        <ele>121</ele>
        <time>2021-08-30T20:00:11Z</time>
      </trkpt>
      <trkpt lat="45.13485" lon="0.61405">
        <ele>129</ele>
        <time>2021-08-30T20:01:23Z</time>
      </trkpt>
      <trkpt lat="45.13475" lon="0.61543">
        <ele>133</ele>
        <time>2021-08-30T20:01:46Z</time>
      </trkpt>
      <trkpt lat="45.13473" lon="0.61616">
        <ele>133</ele>
        <time>2021-08-30T20:01:58Z</time>
      </trkpt>
      <trkpt lat="45.13476" lon="0.61656">
        <ele>133</ele>
        <time>2021-08-30T20:02:05Z</time>
      </trkpt>
      <trkpt lat="45.13474" lon="0.61665">
        <ele>132</ele>
        <time>2021-08-30T20:02:06Z</time>
      </trkpt>
      <trkpt lat="45.13461" lon="0.61665">
        <ele>132</ele>
        <time>2021-08-30T20:02:09Z</time>
      </trkpt>
      <trkpt lat="45.13426" lon="0.61655">
        <ele>129</ele>
        <time>2021-08-30T20:02:18Z</time>
      </trkpt>
      <trkpt lat="45.13418" lon="0.61656">
        <ele>129</ele>
        <time>2021-08-30T20:02:19Z</time>
      </trkpt>
      <trkpt lat="45.13402" lon="0.61718">
        <ele>132</ele>
        <time>2021-08-30T20:02:30Z</time>
      </trkpt>
      <trkpt lat="45.1339" lon="0.61728">
        <ele>133</ele>
        <time>2021-08-30T20:02:34Z</time>
      </trkpt>
      <trkpt lat="45.13354" lon="0.61736">
        <ele>134</ele>
        <time>2021-08-30T20:02:42Z</time>
      </trkpt>
      <trkpt lat="45.1329" lon="0.61756">
        <ele>136</ele>
        <time>2021-08-30T20:02:57Z</time>
      </trkpt>
      <trkpt lat="45.13218" lon="0.61774">
        <ele>137</ele>
        <time>2021-08-30T20:03:14Z</time>
      </trkpt>
      <trkpt lat="45.13189" lon="0.61785">
        <ele>137</ele>
        <time>2021-08-30T20:03:21Z</time>
      </trkpt>
      <trkpt lat="45.13129" lon="0.61798">
        <ele>138</ele>
        <time>2021-08-30T20:03:36Z</time>
      </trkpt>
      <trkpt lat="45.1308" lon="0.61826">
        <ele>138</ele>
        <time>2021-08-30T20:03:48Z</time>
      </trkpt>
      <trkpt lat="45.12977" lon="0.6199">
        <ele>145</ele>
        <time>2021-08-30T20:04:24Z</time>
      </trkpt>
      <trkpt lat="45.12917" lon="0.62128">
        <ele>148</ele>
        <time>2021-08-30T20:04:51Z</time>
      </trkpt>
      <trkpt lat="45.1285" lon="0.6222">
        <ele>153</ele>
        <time>2021-08-30T20:05:13Z</time>
      </trkpt>
      <trkpt lat="45.12545" lon="0.62391">
        <ele>153</ele>
        <time>2021-08-30T20:06:29Z</time>
      </trkpt>
      <trkpt lat="45.12509" lon="0.624">
        <ele>154</ele>
        <time>2021-08-30T20:06:38Z</time>
      </trkpt>
      <trkpt lat="45.12496" lon="0.62408">
        <ele>155</ele>
        <time>2021-08-30T20:06:41Z</time>
      </trkpt>
      <trkpt lat="45.12465" lon="0.62464">
        <ele>163</ele>
        <time>2021-08-30T20:06:53Z</time>
      </trkpt>
      <trkpt lat="45.1245" lon="0.62504">
        <ele>169</ele>
        <time>2021-08-30T20:07:00Z</time>
      </trkpt>
      <trkpt lat="45.12445" lon="0.62511">
        <ele>169</ele>
        <time>2021-08-30T20:07:02Z</time>
      </trkpt>
      <trkpt lat="45.12439" lon="0.62539">
        <ele>170</ele>
        <time>2021-08-30T20:07:07Z</time>
      </trkpt>
      <trkpt lat="45.12431" lon="0.6256">
        <ele>172</ele>
        <time>2021-08-30T20:07:11Z</time>
      </trkpt>
      <trkpt lat="45.12378" lon="0.62615">
        <ele>178</ele>
        <time>2021-08-30T20:07:26Z</time>
      </trkpt>
      <trkpt lat="45.12354" lon="0.6261">
        <ele>181</ele>
        <time>2021-08-30T20:07:32Z</time>
      </trkpt>
      <trkpt lat="45.12336" lon="0.6261">
        <ele>184</ele>
        <time>2021-08-30T20:07:36Z</time>
      </trkpt>
      <trkpt lat="45.12277" lon="0.62673">
        <ele>190</ele>
        <time>2021-08-30T20:07:53Z</time>
      </trkpt>
      <trkpt lat="45.12275" lon="0.62762">
        <ele>196</ele>
        <time>2021-08-30T20:08:08Z</time>
      </trkpt>
      <trkpt lat="45.12267" lon="0.62794">
        <ele>197</ele>
        <time>2021-08-30T20:08:13Z</time>
      </trkpt>
      <trkpt lat="45.12187" lon="0.62915">
        <ele>206</ele>
        <time>2021-08-30T20:08:41Z</time>
      </trkpt>
      <trkpt lat="45.12125" lon="0.63086">
        <ele>207</ele>
        <time>2021-08-30T20:09:12Z</time>
      </trkpt>
      <trkpt lat="45.12118" lon="0.6311">
        <ele>208</ele>
        <time>2021-08-30T20:09:17Z</time>
      </trkpt>
      <trkpt lat="45.12117" lon="0.63151">
        <ele>208</ele>
        <time>2021-08-30T20:09:23Z</time>
      </trkpt>
      <trkpt lat="45.12125" lon="0.63196">
        <ele>209</ele>
        <time>2021-08-30T20:09:31Z</time>
      </trkpt>
      <trkpt lat="45.12131" lon="0.63255">
        <ele>211</ele>
        <time>2021-08-30T20:09:41Z</time>
      </trkpt>
      <trkpt lat="45.12174" lon="0.63372">
        <ele>217</ele>
        <time>2021-08-30T20:10:03Z</time>
      </trkpt>
      <trkpt lat="45.12178" lon="0.63378">
        <ele>217</ele>
        <time>2021-08-30T20:10:04Z</time>
      </trkpt>
      <trkpt lat="45.12204" lon="0.6346">
        <ele>219</ele>
        <time>2021-08-30T20:10:19Z</time>
      </trkpt>
      <trkpt lat="45.12238" lon="0.63545">
        <ele>217</ele>
        <time>2021-08-30T20:10:35Z</time>
      </trkpt>
      <trkpt lat="45.12248" lon="0.63581">
        <ele>216</ele>
        <time>2021-08-30T20:10:41Z</time>
      </trkpt>
      <trkpt lat="45.12225" lon="0.63656">
        <ele>217</ele>
        <time>2021-08-30T20:10:55Z</time>
      </trkpt>
      <trkpt lat="45.12228" lon="0.63709">
        <ele>218</ele>
        <time>2021-08-30T20:11:04Z</time>
      </trkpt>
      <trkpt lat="45.12234" lon="0.63721">
        <ele>218</ele>
        <time>2021-08-30T20:11:06Z</time>
      </trkpt>
      <trkpt lat="45.12265" lon="0.63751">
        <ele>217</ele>
        <time>2021-08-30T20:11:15Z</time>
      </trkpt>
      <trkpt lat="45.12276" lon="0.63765">
        <ele>217</ele>
        <time>2021-08-30T20:11:18Z</time>
      </trkpt>
      <trkpt lat="45.12228" lon="0.63979">
        <ele>216</ele>
        <time>2021-08-30T20:11:55Z</time>
      </trkpt>
      <trkpt lat="45.12223" lon="0.64023">
        <ele>214</ele>
        <time>2021-08-30T20:12:03Z</time>
      </trkpt>
      <trkpt lat="45.12272" lon="0.64035">
        <ele>211</ele>
        <time>2021-08-30T20:12:14Z</time>
      </trkpt>
      <trkpt lat="45.12352" lon="0.64029">
        <ele>207</ele>
        <time>2021-08-30T20:12:33Z</time>
      </trkpt>
      <trkpt lat="45.12572" lon="0.64098">
        <ele>188</ele>
        <time>2021-08-30T20:13:25Z</time>
      </trkpt>
      <trkpt lat="45.12706" lon="0.64013">
        <ele>174</ele>
        <time>2021-08-30T20:14:00Z</time>
      </trkpt>
      <trkpt lat="45.12818" lon="0.63977">
        <ele>164</ele>
        <time>2021-08-30T20:14:27Z</time>
      </trkpt>
      <trkpt lat="45.1284" lon="0.63963">
        <ele>161</ele>
        <time>2021-08-30T20:14:32Z</time>
      </trkpt>
      <trkpt lat="45.12848" lon="0.63989">
        <ele>161</ele>
        <time>2021-08-30T20:14:37Z</time>
      </trkpt>
      <trkpt lat="45.12775" lon="0.64075">
        <ele>162</ele>
        <time>2021-08-30T20:14:59Z</time>
      </trkpt>
      <trkpt lat="45.1272" lon="0.64155">
        <ele>161</ele>
        <time>2021-08-30T20:15:17Z</time>
      </trkpt>
      <trkpt lat="45.12701" lon="0.6421">
        <ele>162</ele>
        <time>2021-08-30T20:15:28Z</time>
      </trkpt>
      <trkpt lat="45.12693" lon="0.64258">
        <ele>164</ele>
        <time>2021-08-30T20:15:36Z</time>
      </trkpt>
      <trkpt lat="45.12689" lon="0.64261">
        <ele>164</ele>
        <time>2021-08-30T20:15:37Z</time>
      </trkpt>
      <trkpt lat="45.12665" lon="0.64266">
        <ele>165</ele>
        <time>2021-08-30T20:15:42Z</time>
      </trkpt>
      <trkpt lat="45.12655" lon="0.64273">
        <ele>166</ele>
        <time>2021-08-30T20:15:45Z</time>
      </trkpt>
      <trkpt lat="45.12637" lon="0.64278">
        <ele>167</ele>
        <time>2021-08-30T20:15:49Z</time>
      </trkpt>
      <trkpt lat="45.1261" lon="0.64278">
        <ele>167</ele>
        <time>2021-08-30T20:15:56Z</time>
      </trkpt>
      <trkpt lat="45.12588" lon="0.64252">
        <ele>164</ele>
        <time>2021-08-30T20:16:02Z</time>
      </trkpt>
      <trkpt lat="45.12475" lon="0.64248">
        <ele>171</ele>
        <time>2021-08-30T20:16:29Z</time>
      </trkpt>
      <trkpt lat="45.12297" lon="0.64284">
        <ele>193</ele>
        <time>2021-08-30T20:17:11Z</time>
      </trkpt>
      <trkpt lat="45.12283" lon="0.64292">
        <ele>196</ele>
        <time>2021-08-30T20:17:14Z</time>
      </trkpt>
      <trkpt lat="45.12274" lon="0.64313">
        <ele>198</ele>
        <time>2021-08-30T20:17:18Z</time>
      </trkpt>
      <trkpt lat="45.12267" lon="0.6432">
        <ele>199</ele>
        <time>2021-08-30T20:17:20Z</time>
      </trkpt>
      <trkpt lat="45.12252" lon="0.64351">
        <ele>204</ele>
        <time>2021-08-30T20:17:26Z</time>
      </trkpt>
      <trkpt lat="45.12245" lon="0.6435">
        <ele>205</ele>
        <time>2021-08-30T20:17:28Z</time>
      </trkpt>
      <trkpt lat="45.12229" lon="0.64335">
        <ele>206</ele>
        <time>2021-08-30T20:17:33Z</time>
      </trkpt>
      <trkpt lat="45.12221" lon="0.64333">
        <ele>207</ele>
        <time>2021-08-30T20:17:34Z</time>
      </trkpt>
      <trkpt lat="45.12186" lon="0.64365">
        <ele>211</ele>
        <time>2021-08-30T20:17:44Z</time>
      </trkpt>
      <trkpt lat="45.12161" lon="0.64398">
        <ele>212</ele>
        <time>2021-08-30T20:17:52Z</time>
      </trkpt>
      <trkpt lat="45.12135" lon="0.64439">
        <ele>210</ele>
        <time>2021-08-30T20:18:01Z</time>
      </trkpt>
      <trkpt lat="45.11962" lon="0.64577">
        <ele>208</ele>
        <time>2021-08-30T20:18:48Z</time>
      </trkpt>
      <trkpt lat="45.11904" lon="0.64653">
        <ele>207</ele>
        <time>2021-08-30T20:19:06Z</time>
      </trkpt>
      <trkpt lat="45.11876" lon="0.6472">
        <ele>205</ele>
        <time>2021-08-30T20:19:19Z</time>
      </trkpt>
      <trkpt lat="45.11864" lon="0.64769">
        <ele>203</ele>
        <time>2021-08-30T20:19:27Z</time>
      </trkpt>
      <trkpt lat="45.1186" lon="0.64792">
        <ele>202</ele>
        <time>2021-08-30T20:19:31Z</time>
      </trkpt>
      <trkpt lat="45.11859" lon="0.64873">
        <ele>198</ele>
        <time>2021-08-30T20:19:45Z</time>
      </trkpt>
      <trkpt lat="45.11869" lon="0.64898">
        <ele>197</ele>
        <time>2021-08-30T20:19:49Z</time>
      </trkpt>
      <trkpt lat="45.11873" lon="0.64921">
        <ele>196</ele>
        <time>2021-08-30T20:19:53Z</time>
      </trkpt>
      <trkpt lat="45.11876" lon="0.64987">
        <ele>193</ele>
        <time>2021-08-30T20:20:04Z</time>
      </trkpt>
      <trkpt lat="45.11872" lon="0.65064">
        <ele>187</ele>
        <time>2021-08-30T20:20:17Z</time>
      </trkpt>
      <trkpt lat="45.1186" lon="0.65096">
        <ele>184</ele>
        <time>2021-08-30T20:20:23Z</time>
      </trkpt>
      <trkpt lat="45.11846" lon="0.65112">
        <ele>183</ele>
        <time>2021-08-30T20:20:27Z</time>
      </trkpt>
      <trkpt lat="45.11831" lon="0.65112">
        <ele>183</ele>
        <time>2021-08-30T20:20:31Z</time>
      </trkpt>
      <trkpt lat="45.11789" lon="0.65082">
        <ele>181</ele>
        <time>2021-08-30T20:20:42Z</time>
      </trkpt>
      <trkpt lat="45.11716" lon="0.65">
        <ele>179</ele>
        <time>2021-08-30T20:21:03Z</time>
      </trkpt>
      <trkpt lat="45.11693" lon="0.64981">
        <ele>176</ele>
        <time>2021-08-30T20:21:10Z</time>
      </trkpt>
      <trkpt lat="45.11643" lon="0.64969">
        <ele>171</ele>
        <time>2021-08-30T20:21:21Z</time>
      </trkpt>
      <trkpt lat="45.11642" lon="0.64996">
        <ele>171</ele>
        <time>2021-08-30T20:21:26Z</time>
      </trkpt>
      <trkpt lat="45.11658" lon="0.65009">
        <ele>173</ele>
        <time>2021-08-30T20:21:30Z</time>
      </trkpt>
      <trkpt lat="45.11687" lon="0.65057">
        <ele>180</ele>
        <time>2021-08-30T20:21:41Z</time>
      </trkpt>
      <trkpt lat="45.11687" lon="0.65067">
        <ele>180</ele>
        <time>2021-08-30T20:21:42Z</time>
      </trkpt>
      <trkpt lat="45.11715" lon="0.65172">
        <ele>189</ele>
        <time>2021-08-30T20:22:01Z</time>
      </trkpt>
      <trkpt lat="45.11715" lon="0.65208">
        <ele>194</ele>
        <time>2021-08-30T20:22:07Z</time>
      </trkpt>
      <trkpt lat="45.11721" lon="0.65236">
        <ele>197</ele>
        <time>2021-08-30T20:22:12Z</time>
      </trkpt>
      <trkpt lat="45.11737" lon="0.65237">
        <ele>196</ele>
        <time>2021-08-30T20:22:15Z</time>
      </trkpt>
      <trkpt lat="45.11753" lon="0.65242">
        <ele>196</ele>
        <time>2021-08-30T20:22:19Z</time>
      </trkpt>
      <trkpt lat="45.11772" lon="0.65255">
        <ele>197</ele>
        <time>2021-08-30T20:22:24Z</time>
      </trkpt>
      <trkpt lat="45.11792" lon="0.65274">
        <ele>197</ele>
        <time>2021-08-30T20:22:30Z</time>
      </trkpt>
      <trkpt lat="45.11842" lon="0.65333">
        <ele>201</ele>
        <time>2021-08-30T20:22:45Z</time>
      </trkpt>
      <trkpt lat="45.11898" lon="0.65418">
        <ele>209</ele>
        <time>2021-08-30T20:23:04Z</time>
      </trkpt>
      <trkpt lat="45.11903" lon="0.65461">
        <ele>211</ele>
        <time>2021-08-30T20:23:11Z</time>
      </trkpt>
      <trkpt lat="45.11903" lon="0.65559">
        <ele>217</ele>
        <time>2021-08-30T20:23:27Z</time>
      </trkpt>
      <trkpt lat="45.1191" lon="0.65618">
        <ele>219</ele>
        <time>2021-08-30T20:23:37Z</time>
      </trkpt>
      <trkpt lat="45.12015" lon="0.65643">
        <ele>222</ele>
        <time>2021-08-30T20:24:02Z</time>
      </trkpt>
      <trkpt lat="45.12064" lon="0.65679">
        <ele>223</ele>
        <time>2021-08-30T20:24:15Z</time>
      </trkpt>
      <trkpt lat="45.12054" lon="0.65728">
        <ele>221</ele>
        <time>2021-08-30T20:24:23Z</time>
      </trkpt>
      <trkpt lat="45.12016" lon="0.65831">
        <ele>220</ele>
        <time>2021-08-30T20:24:42Z</time>
      </trkpt>
      <trkpt lat="45.1201" lon="0.66021">
        <ele>224</ele>
        <time>2021-08-30T20:25:14Z</time>
      </trkpt>
      <trkpt lat="45.12009" lon="0.66127">
        <ele>223</ele>
        <time>2021-08-30T20:25:31Z</time>
      </trkpt>
      <trkpt lat="45.12021" lon="0.66485">
        <ele>221</ele>
        <time>2021-08-30T20:26:30Z</time>
      </trkpt>
      <trkpt lat="45.1202" lon="0.6651">
        <ele>221</ele>
        <time>2021-08-30T20:26:34Z</time>
      </trkpt>
      <trkpt lat="45.12029" lon="0.6654">
        <ele>221</ele>
        <time>2021-08-30T20:26:40Z</time>
      </trkpt>
      <trkpt lat="45.1203" lon="0.66566">
        <ele>221</ele>
        <time>2021-08-30T20:26:44Z</time>
      </trkpt>
      <trkpt lat="45.12027" lon="0.66617">
        <ele>220</ele>
        <time>2021-08-30T20:26:53Z</time>
      </trkpt>
      <trkpt lat="45.11968" lon="0.66756">
        <ele>213</ele>
        <time>2021-08-30T20:27:19Z</time>
      </trkpt>
      <trkpt lat="45.11932" lon="0.66824">
        <ele>208</ele>
        <time>2021-08-30T20:27:33Z</time>
      </trkpt>
      <trkpt lat="45.11895" lon="0.6681">
        <ele>205</ele>
        <time>2021-08-30T20:27:42Z</time>
      </trkpt>
      <trkpt lat="45.11876" lon="0.66792">
        <ele>203</ele>
        <time>2021-08-30T20:27:48Z</time>
      </trkpt>
      <trkpt lat="45.11871" lon="0.66791">
        <ele>202</ele>
        <time>2021-08-30T20:27:49Z</time>
      </trkpt>
      <trkpt lat="45.11859" lon="0.66794">
        <ele>199</ele>
        <time>2021-08-30T20:27:52Z</time>
      </trkpt>
      <trkpt lat="45.11831" lon="0.66812">
        <ele>194</ele>
        <time>2021-08-30T20:27:59Z</time>
      </trkpt>
      <trkpt lat="45.11772" lon="0.66842">
        <ele>183</ele>
        <time>2021-08-30T20:28:13Z</time>
      </trkpt>
      <trkpt lat="45.11743" lon="0.66833">
        <ele>180</ele>
        <time>2021-08-30T20:28:20Z</time>
      </trkpt>
      <trkpt lat="45.11715" lon="0.6688">
        <ele>180</ele>
        <time>2021-08-30T20:28:31Z</time>
      </trkpt>
      <trkpt lat="45.11705" lon="0.66891">
        <ele>180</ele>
        <time>2021-08-30T20:28:33Z</time>
      </trkpt>
      <trkpt lat="45.11694" lon="0.66896">
        <ele>180</ele>
        <time>2021-08-30T20:28:36Z</time>
      </trkpt>
      <trkpt lat="45.11633" lon="0.66811">
        <ele>189</ele>
        <time>2021-08-30T20:28:56Z</time>
      </trkpt>
      <trkpt lat="45.11577" lon="0.66787">
        <ele>195</ele>
        <time>2021-08-30T20:29:10Z</time>
      </trkpt>
      <trkpt lat="45.11548" lon="0.66743">
        <ele>198</ele>
        <time>2021-08-30T20:29:20Z</time>
      </trkpt>
      <trkpt lat="45.11525" lon="0.66725">
        <ele>200</ele>
        <time>2021-08-30T20:29:26Z</time>
      </trkpt>
      <trkpt lat="45.11519" lon="0.66716">
        <ele>201</ele>
        <time>2021-08-30T20:29:28Z</time>
      </trkpt>
      <trkpt lat="45.11486" lon="0.66682">
        <ele>204</ele>
        <time>2021-08-30T20:29:37Z</time>
      </trkpt>
      <trkpt lat="45.11474" lon="0.66662">
        <ele>206</ele>
        <time>2021-08-30T20:29:42Z</time>
      </trkpt>
      <trkpt lat="45.11446" lon="0.66637">
        <ele>208</ele>
        <time>2021-08-30T20:29:49Z</time>
      </trkpt>
      <trkpt lat="45.11424" lon="0.66588">
        <ele>209</ele>
        <time>2021-08-30T20:29:59Z</time>
      </trkpt>
      <trkpt lat="45.11421" lon="0.66573">
        <ele>209</ele>
        <time>2021-08-30T20:30:02Z</time>
      </trkpt>
      <trkpt lat="45.11415" lon="0.66561">
        <ele>209</ele>
        <time>2021-08-30T20:30:04Z</time>
      </trkpt>
      <trkpt lat="45.11407" lon="0.66528">
        <ele>210</ele>
        <time>2021-08-30T20:30:10Z</time>
      </trkpt>
      <trkpt lat="45.11408" lon="0.66512">
        <ele>210</ele>
        <time>2021-08-30T20:30:12Z</time>
      </trkpt>
      <trkpt lat="45.11406" lon="0.66509">
        <ele>210</ele>
        <time>2021-08-30T20:30:13Z</time>
      </trkpt>
      <trkpt lat="45.11401" lon="0.6651">
        <ele>210</ele>
        <time>2021-08-30T20:30:14Z</time>
      </trkpt>
      <trkpt lat="45.11398" lon="0.66565">
        <ele>210</ele>
        <time>2021-08-30T20:30:23Z</time>
      </trkpt>
      <trkpt lat="45.11421" lon="0.66677">
        <ele>206</ele>
        <time>2021-08-30T20:30:43Z</time>
      </trkpt>
      <trkpt lat="45.11423" lon="0.66707">
        <ele>205</ele>
        <time>2021-08-30T20:30:48Z</time>
      </trkpt>
      <trkpt lat="45.11435" lon="0.66759">
        <ele>202</ele>
        <time>2021-08-30T20:30:57Z</time>
      </trkpt>
      <trkpt lat="45.1141" lon="0.66845">
        <ele>200</ele>
        <time>2021-08-30T20:31:12Z</time>
      </trkpt>
      <trkpt lat="45.11377" lon="0.66927">
        <ele>195</ele>
        <time>2021-08-30T20:31:27Z</time>
      </trkpt>
      <trkpt lat="45.11373" lon="0.66993">
        <ele>196</ele>
        <time>2021-08-30T20:31:38Z</time>
      </trkpt>
      <trkpt lat="45.11361" lon="0.67052">
        <ele>199</ele>
        <time>2021-08-30T20:31:49Z</time>
      </trkpt>
      <trkpt lat="45.11359" lon="0.67081">
        <ele>201</ele>
        <time>2021-08-30T20:31:53Z</time>
      </trkpt>
      <trkpt lat="45.11361" lon="0.67123">
        <ele>200</ele>
        <time>2021-08-30T20:32:00Z</time>
      </trkpt>
      <trkpt lat="45.11367" lon="0.67155">
        <ele>199</ele>
        <time>2021-08-30T20:32:06Z</time>
      </trkpt>
      <trkpt lat="45.11387" lon="0.67173">
        <ele>198</ele>
        <time>2021-08-30T20:32:11Z</time>
      </trkpt>
      <trkpt lat="45.114" lon="0.67212">
        <ele>197</ele>
        <time>2021-08-30T20:32:18Z</time>
      </trkpt>
      <trkpt lat="45.11403" lon="0.67285">
        <ele>198</ele>
        <time>2021-08-30T20:32:30Z</time>
      </trkpt>
      <trkpt lat="45.11403" lon="0.6732">
        <ele>199</ele>
        <time>2021-08-30T20:32:36Z</time>
      </trkpt>
      <trkpt lat="45.114" lon="0.67334">
        <ele>199</ele>
        <time>2021-08-30T20:32:39Z</time>
      </trkpt>
      <trkpt lat="45.11406" lon="0.67357">
        <ele>198</ele>
        <time>2021-08-30T20:32:43Z</time>
      </trkpt>
      <trkpt lat="45.11406" lon="0.67453">
        <ele>193</ele>
        <time>2021-08-30T20:32:58Z</time>
      </trkpt>
      <trkpt lat="45.11413" lon="0.67498">
        <ele>190</ele>
        <time>2021-08-30T20:33:06Z</time>
      </trkpt>
      <trkpt lat="45.1142" lon="0.67522">
        <ele>190</ele>
        <time>2021-08-30T20:33:10Z</time>
      </trkpt>
      <trkpt lat="45.11439" lon="0.67557">
        <ele>188</ele>
        <time>2021-08-30T20:33:18Z</time>
      </trkpt>
      <trkpt lat="45.11507" lon="0.67702">
        <ele>186</ele>
        <time>2021-08-30T20:33:46Z</time>
      </trkpt>
      <trkpt lat="45.11533" lon="0.67735">
        <ele>187</ele>
        <time>2021-08-30T20:33:54Z</time>
      </trkpt>
      <trkpt lat="45.11541" lon="0.67742">
        <ele>188</ele>
        <time>2021-08-30T20:33:57Z</time>
      </trkpt>
      <trkpt lat="45.11547" lon="0.67753">
        <ele>188</ele>
        <time>2021-08-30T20:33:59Z</time>
      </trkpt>
      <trkpt lat="45.11552" lon="0.67882">
        <ele>196</ele>
        <time>2021-08-30T20:34:20Z</time>
      </trkpt>
      <trkpt lat="45.1154" lon="0.67927">
        <ele>197</ele>
        <time>2021-08-30T20:34:28Z</time>
      </trkpt>
      <trkpt lat="45.11544" lon="0.67954">
        <ele>197</ele>
        <time>2021-08-30T20:34:33Z</time>
      </trkpt>
      <trkpt lat="45.11629" lon="0.68085">
        <ele>199</ele>
        <time>2021-08-30T20:35:02Z</time>
      </trkpt>
      <trkpt lat="45.11718" lon="0.68131">
        <ele>200</ele>
        <time>2021-08-30T20:35:24Z</time>
      </trkpt>
      <trkpt lat="45.11864" lon="0.6808">
        <ele>198</ele>
        <time>2021-08-30T20:35:59Z</time>
      </trkpt>
      <trkpt lat="45.11953" lon="0.67945">
        <ele>199</ele>
        <time>2021-08-30T20:36:30Z</time>
      </trkpt>
      <trkpt lat="45.11988" lon="0.67929">
        <ele>200</ele>
        <time>2021-08-30T20:36:38Z</time>
      </trkpt>
      <trkpt lat="45.12129" lon="0.67933">
        <ele>198</ele>
        <time>2021-08-30T20:37:11Z</time>
      </trkpt>
      <trkpt lat="45.12163" lon="0.6795">
        <ele>197</ele>
        <time>2021-08-30T20:37:20Z</time>
      </trkpt>
      <trkpt lat="45.12234" lon="0.68007">
        <ele>191</ele>
        <time>2021-08-30T20:37:39Z</time>
      </trkpt>
      <trkpt lat="45.12297" lon="0.68064">
        <ele>185</ele>
        <time>2021-08-30T20:37:56Z</time>
      </trkpt>
      <trkpt lat="45.1232" lon="0.68096">
        <ele>182</ele>
        <time>2021-08-30T20:38:04Z</time>
      </trkpt>
      <trkpt lat="45.123" lon="0.68134">
        <ele>181</ele>
        <time>2021-08-30T20:38:12Z</time>
      </trkpt>
      <trkpt lat="45.123" lon="0.68145">
        <ele>180</ele>
        <time>2021-08-30T20:38:13Z</time>
      </trkpt>
      <trkpt lat="45.12319" lon="0.68157">
        <ele>178</ele>
        <time>2021-08-30T20:38:18Z</time>
      </trkpt>
      <trkpt lat="45.12337" lon="0.68165">
        <ele>177</ele>
        <time>2021-08-30T20:38:23Z</time>
      </trkpt>
      <trkpt lat="45.12359" lon="0.68185">
        <ele>172</ele>
        <time>2021-08-30T20:38:29Z</time>
      </trkpt>
      <trkpt lat="45.1245" lon="0.68251">
        <ele>166</ele>
        <time>2021-08-30T20:38:53Z</time>
      </trkpt>
      <trkpt lat="45.12486" lon="0.68287">
        <ele>165</ele>
        <time>2021-08-30T20:39:03Z</time>
      </trkpt>
      <trkpt lat="45.12556" lon="0.68348">
        <ele>164</ele>
        <time>2021-08-30T20:39:22Z</time>
      </trkpt>
      <trkpt lat="45.12611" lon="0.68392">
        <ele>159</ele>
        <time>2021-08-30T20:39:37Z</time>
      </trkpt>
      <trkpt lat="45.12687" lon="0.68461">
        <ele>148</ele>
        <time>2021-08-30T20:39:58Z</time>
      </trkpt>
      <trkpt lat="45.1276" lon="0.68516">
        <ele>141</ele>
        <time>2021-08-30T20:40:17Z</time>
      </trkpt>
      <trkpt lat="45.12798" lon="0.68552">
        <ele>139</ele>
        <time>2021-08-30T20:40:28Z</time>
      </trkpt>
      <trkpt lat="45.12844" lon="0.68622">
        <ele>136</ele>
        <time>2021-08-30T20:40:44Z</time>
      </trkpt>
      <trkpt lat="45.129" lon="0.68748">
        <ele>139</ele>
        <time>2021-08-30T20:41:08Z</time>
      </trkpt>
      <trkpt lat="45.12923" lon="0.68745">
        <ele>141</ele>
        <time>2021-08-30T20:41:14Z</time>
      </trkpt>
      <trkpt lat="45.1297" lon="0.68827">
        <ele>153</ele>
        <time>2021-08-30T20:41:31Z</time>
      </trkpt>
      <trkpt lat="45.12986" lon="0.68988">
        <ele>170</ele>
        <time>2021-08-30T20:41:58Z</time>
      </trkpt>
      <trkpt lat="45.13008" lon="0.69088">
        <ele>181</ele>
        <time>2021-08-30T20:42:15Z</time>
      </trkpt>
      <trkpt lat="45.12981" lon="0.69117">
        <ele>182</ele>
        <time>2021-08-30T20:42:23Z</time>
      </trkpt>
      <trkpt lat="45.1298" lon="0.69137">
        <ele>185</ele>
        <time>2021-08-30T20:42:26Z</time>
      </trkpt>
      <trkpt lat="45.13007" lon="0.69165">
        <ele>190</ele>
        <time>2021-08-30T20:42:34Z</time>
      </trkpt>
      <trkpt lat="45.13059" lon="0.69185">
        <ele>199</ele>
        <time>2021-08-30T20:42:47Z</time>
      </trkpt>
      <trkpt lat="45.13072" lon="0.69211">
        <ele>201</ele>
        <time>2021-08-30T20:42:52Z</time>
      </trkpt>
      <trkpt lat="45.13088" lon="0.69231">
        <ele>201</ele>
        <time>2021-08-30T20:42:57Z</time>
      </trkpt>
      <trkpt lat="45.13074" lon="0.69246">
        <ele>200</ele>
        <time>2021-08-30T20:43:01Z</time>
      </trkpt>
      <trkpt lat="45.13067" lon="0.6925">
        <ele>199</ele>
        <time>2021-08-30T20:43:03Z</time>
      </trkpt>
      <trkpt lat="45.12974" lon="0.69291">
        <ele>200</ele>
        <time>2021-08-30T20:43:25Z</time>
      </trkpt>
      <trkpt lat="45.12908" lon="0.69289">
        <ele>206</ele>
        <time>2021-08-30T20:43:41Z</time>
      </trkpt>
      <trkpt lat="45.12879" lon="0.69294">
        <ele>207</ele>
        <time>2021-08-30T20:43:48Z</time>
      </trkpt>
      <trkpt lat="45.1287" lon="0.69291">
        <ele>208</ele>
        <time>2021-08-30T20:43:50Z</time>
      </trkpt>
      <trkpt lat="45.1284" lon="0.6929">
        <ele>209</ele>
        <time>2021-08-30T20:43:57Z</time>
      </trkpt>
      <trkpt lat="45.12814" lon="0.69284">
        <ele>208</ele>
        <time>2021-08-30T20:44:03Z</time>
      </trkpt>
      <trkpt lat="45.12783" lon="0.69289">
        <ele>206</ele>
        <time>2021-08-30T20:44:10Z</time>
      </trkpt>
      <trkpt lat="45.12617" lon="0.69336">
        <ele>196</ele>
        <time>2021-08-30T20:44:50Z</time>
      </trkpt>
      <trkpt lat="45.12435" lon="0.69355">
        <ele>194</ele>
        <time>2021-08-30T20:45:32Z</time>
      </trkpt>
      <trkpt lat="45.12365" lon="0.69388">
        <ele>194</ele>
        <time>2021-08-30T20:45:50Z</time>
      </trkpt>
      <trkpt lat="45.12308" lon="0.69389">
        <ele>194</ele>
        <time>2021-08-30T20:46:03Z</time>
      </trkpt>
      <trkpt lat="45.12256" lon="0.69339">
        <ele>196</ele>
        <time>2021-08-30T20:46:18Z</time>
      </trkpt>
      <trkpt lat="45.12233" lon="0.6933">
        <ele>197</ele>
        <time>2021-08-30T20:46:23Z</time>
      </trkpt>
      <trkpt lat="45.12224" lon="0.69331">
        <ele>198</ele>
        <time>2021-08-30T20:46:25Z</time>
      </trkpt>
      <trkpt lat="45.1215" lon="0.69417">
        <ele>200</ele>
        <time>2021-08-30T20:46:48Z</time>
      </trkpt>
      <trkpt lat="45.12121" lon="0.69461">
        <ele>203</ele>
        <time>2021-08-30T20:46:58Z</time>
      </trkpt>
      <trkpt lat="45.12104" lon="0.69477">
        <ele>205</ele>
        <time>2021-08-30T20:47:02Z</time>
      </trkpt>
      <trkpt lat="45.12059" lon="0.69499">
        <ele>208</ele>
        <time>2021-08-30T20:47:13Z</time>
      </trkpt>
      <trkpt lat="45.12" lon="0.69522">
        <ele>211</ele>
        <time>2021-08-30T20:47:28Z</time>
      </trkpt>
      <trkpt lat="45.11919" lon="0.69524">
        <ele>212</ele>
        <time>2021-08-30T20:47:47Z</time>
      </trkpt>
      <trkpt lat="45.11685" lon="0.69464">
        <ele>211</ele>
        <time>2021-08-30T20:48:42Z</time>
      </trkpt>
      <trkpt lat="45.11676" lon="0.6972">
        <ele>210</ele>
        <time>2021-08-30T20:49:24Z</time>
      </trkpt>
      <trkpt lat="45.1167" lon="0.69727">
        <ele>210</ele>
        <time>2021-08-30T20:49:26Z</time>
      </trkpt>
      <trkpt lat="45.11564" lon="0.69661">
        <ele>209</ele>
        <time>2021-08-30T20:49:53Z</time>
      </trkpt>
      <trkpt lat="45.11525" lon="0.69647">
        <ele>207</ele>
        <time>2021-08-30T20:50:03Z</time>
      </trkpt>
      <trkpt lat="45.11407" lon="0.69614">
        <ele>203</ele>
        <time>2021-08-30T20:50:31Z</time>
      </trkpt>
      <trkpt lat="45.11379" lon="0.69613">
        <ele>203</ele>
        <time>2021-08-30T20:50:37Z</time>
      </trkpt>
      <trkpt lat="45.113" lon="0.69599">
        <ele>201</ele>
        <time>2021-08-30T20:50:56Z</time>
      </trkpt>
      <trkpt lat="45.11295" lon="0.69606">
        <ele>200</ele>
        <time>2021-08-30T20:50:58Z</time>
      </trkpt>
      <trkpt lat="45.11285" lon="0.69654">
        <ele>196</ele>
        <time>2021-08-30T20:51:06Z</time>
      </trkpt>
      <trkpt lat="45.11275" lon="0.69664">
        <ele>195</ele>
        <time>2021-08-30T20:51:09Z</time>
      </trkpt>
      <trkpt lat="45.11195" lon="0.69618">
        <ele>196</ele>
        <time>2021-08-30T20:51:29Z</time>
      </trkpt>
      <trkpt lat="45.11171" lon="0.69649">
        <ele>197</ele>
        <time>2021-08-30T20:51:36Z</time>
      </trkpt>
      <trkpt lat="45.11149" lon="0.69719">
        <ele>198</ele>
        <time>2021-08-30T20:51:49Z</time>
      </trkpt>
      <trkpt lat="45.11041" lon="0.69709">
        <ele>203</ele>
        <time>2021-08-30T20:52:14Z</time>
      </trkpt>
      <trkpt lat="45.11047" lon="0.69727">
        <ele>203</ele>
        <time>2021-08-30T20:52:18Z</time>
      </trkpt>
      <trkpt lat="45.11082" lon="0.69907">
        <ele>201</ele>
        <time>2021-08-30T20:52:48Z</time>
      </trkpt>
      <trkpt lat="45.11138" lon="0.69987">
        <ele>198</ele>
        <time>2021-08-30T20:53:07Z</time>
      </trkpt>
      <trkpt lat="45.1116" lon="0.70028">
        <ele>198</ele>
        <time>2021-08-30T20:53:15Z</time>
      </trkpt>
      <trkpt lat="45.113" lon="0.702">
        <ele>194</ele>
        <time>2021-08-30T20:53:59Z</time>
      </trkpt>
      <trkpt lat="45.1129" lon="0.70235">
        <ele>191</ele>
        <time>2021-08-30T20:55:02Z</time>
      </trkpt>
      <trkpt lat="45.11314" lon="0.70266">
        <ele>188</ele>
        <time>2021-08-30T20:55:10Z</time>
      </trkpt>
      <trkpt lat="45.11319" lon="0.70277">
        <ele>186</ele>
        <time>2021-08-30T20:55:12Z</time>
      </trkpt>
      <trkpt lat="45.11312" lon="0.70288">
        <ele>184</ele>
        <time>2021-08-30T20:55:14Z</time>
      </trkpt>
      <trkpt lat="45.11244" lon="0.70318">
        <ele>177</ele>
        <time>2021-08-30T20:55:31Z</time>
      </trkpt>
      <trkpt lat="45.11239" lon="0.7033">
        <ele>175</ele>
        <time>2021-08-30T20:55:33Z</time>
      </trkpt>
      <trkpt lat="45.11241" lon="0.7036">
        <ele>170</ele>
        <time>2021-08-30T20:55:38Z</time>
      </trkpt>
      <trkpt lat="45.11236" lon="0.70454">
        <ele>161</ele>
        <time>2021-08-30T20:55:54Z</time>
      </trkpt>
      <trkpt lat="45.11242" lon="0.70482">
        <ele>161</ele>
        <time>2021-08-30T20:55:58Z</time>
      </trkpt>
      <trkpt lat="45.11362" lon="0.70527">
        <ele>160</ele>
        <time>2021-08-30T20:56:27Z</time>
      </trkpt>
      <trkpt lat="45.11448" lon="0.70563">
        <ele>162</ele>
        <time>2021-08-30T20:56:48Z</time>
      </trkpt>
      <trkpt lat="45.11502" lon="0.70599">
        <ele>166</ele>
        <time>2021-08-30T20:57:02Z</time>
      </trkpt>
      <trkpt lat="45.11524" lon="0.70624">
        <ele>168</ele>
        <time>2021-08-30T20:57:09Z</time>
      </trkpt>
      <trkpt lat="45.11543" lon="0.70665">
        <ele>173</ele>
        <time>2021-08-30T20:57:17Z</time>
      </trkpt>
      <trkpt lat="45.11575" lon="0.70713">
        <ele>179</ele>
        <time>2021-08-30T20:57:28Z</time>
      </trkpt>
      <trkpt lat="45.11594" lon="0.70747">
        <ele>183</ele>
        <time>2021-08-30T20:57:35Z</time>
      </trkpt>
      <trkpt lat="45.11617" lon="0.70775">
        <ele>186</ele>
        <time>2021-08-30T20:57:42Z</time>
      </trkpt>
      <trkpt lat="45.1169" lon="0.70843">
        <ele>192</ele>
        <time>2021-08-30T20:58:03Z</time>
      </trkpt>
      <trkpt lat="45.11715" lon="0.7087">
        <ele>192</ele>
        <time>2021-08-30T20:58:10Z</time>
      </trkpt>
      <trkpt lat="45.11761" lon="0.70907">
        <ele>193</ele>
        <time>2021-08-30T20:58:22Z</time>
      </trkpt>
      <trkpt lat="45.11801" lon="0.70925">
        <ele>191</ele>
        <time>2021-08-30T20:58:32Z</time>
      </trkpt>
      <trkpt lat="45.11819" lon="0.70936">
        <ele>190</ele>
        <time>2021-08-30T20:58:37Z</time>
      </trkpt>
      <trkpt lat="45.11874" lon="0.70995">
        <ele>188</ele>
        <time>2021-08-30T20:58:53Z</time>
      </trkpt>
      <trkpt lat="45.11896" lon="0.71008">
        <ele>186</ele>
        <time>2021-08-30T20:58:58Z</time>
      </trkpt>
      <trkpt lat="45.11997" lon="0.71032">
        <ele>181</ele>
        <time>2021-08-30T20:59:22Z</time>
      </trkpt>
      <trkpt lat="45.12004" lon="0.71031">
        <ele>181</ele>
        <time>2021-08-30T20:59:24Z</time>
      </trkpt>
      <trkpt lat="45.12058" lon="0.70985">
        <ele>180</ele>
        <time>2021-08-30T20:59:39Z</time>
      </trkpt>
      <trkpt lat="45.12067" lon="0.70982">
        <ele>180</ele>
        <time>2021-08-30T20:59:41Z</time>
      </trkpt>
      <trkpt lat="45.12104" lon="0.71024">
        <ele>179</ele>
        <time>2021-08-30T20:59:52Z</time>
      </trkpt>
      <trkpt lat="45.12111" lon="0.71045">
        <ele>178</ele>
        <time>2021-08-30T20:59:56Z</time>
      </trkpt>
      <trkpt lat="45.12105" lon="0.71062">
        <ele>177</ele>
        <time>2021-08-30T20:59:59Z</time>
      </trkpt>
      <trkpt lat="45.12079" lon="0.71114">
        <ele>174</ele>
        <time>2021-08-30T21:00:09Z</time>
      </trkpt>
      <trkpt lat="45.12059" lon="0.7117">
        <ele>170</ele>
        <time>2021-08-30T21:00:20Z</time>
      </trkpt>
      <trkpt lat="45.12037" lon="0.71221">
        <ele>166</ele>
        <time>2021-08-30T21:00:29Z</time>
      </trkpt>
      <trkpt lat="45.12029" lon="0.71253">
        <ele>164</ele>
        <time>2021-08-30T21:00:35Z</time>
      </trkpt>
      <trkpt lat="45.12035" lon="0.71271">
        <ele>164</ele>
        <time>2021-08-30T21:00:38Z</time>
      </trkpt>
      <trkpt lat="45.12086" lon="0.71287">
        <ele>162</ele>
        <time>2021-08-30T21:00:50Z</time>
      </trkpt>
      <trkpt lat="45.1212" lon="0.71306">
        <ele>159</ele>
        <time>2021-08-30T21:00:59Z</time>
      </trkpt>
      <trkpt lat="45.12144" lon="0.7133">
        <ele>157</ele>
        <time>2021-08-30T21:01:06Z</time>
      </trkpt>
      <trkpt lat="45.12199" lon="0.714">
        <ele>151</ele>
        <time>2021-08-30T21:01:23Z</time>
      </trkpt>
      <trkpt lat="45.12193" lon="0.71415">
        <ele>152</ele>
        <time>2021-08-30T21:01:26Z</time>
      </trkpt>
      <trkpt lat="45.12241" lon="0.71477">
        <ele>145</ele>
        <time>2021-08-30T21:03:53Z</time>
      </trkpt>
      <trkpt lat="45.12289" lon="0.71543">
        <ele>148</ele>
        <time>2021-08-30T21:04:08Z</time>
      </trkpt>
      <trkpt lat="45.12283" lon="0.71596">
        <ele>149</ele>
        <time>2021-08-30T21:04:17Z</time>
      </trkpt>
      <trkpt lat="45.12289" lon="0.71605">
        <ele>151</ele>
        <time>2021-08-30T21:04:19Z</time>
      </trkpt>
      <trkpt lat="45.12302" lon="0.71671">
        <ele>158</ele>
        <time>2021-08-30T21:04:31Z</time>
      </trkpt>
      <trkpt lat="45.12322" lon="0.71694">
        <ele>164</ele>
        <time>2021-08-30T21:04:37Z</time>
      </trkpt>
      <trkpt lat="45.1233" lon="0.717">
        <ele>166</ele>
        <time>2021-08-30T21:04:39Z</time>
      </trkpt>
      <trkpt lat="45.12341" lon="0.71716">
        <ele>170</ele>
        <time>2021-08-30T21:04:42Z</time>
      </trkpt>
      <trkpt lat="45.12346" lon="0.71716">
        <ele>171</ele>
        <time>2021-08-30T21:04:44Z</time>
      </trkpt>
      <trkpt lat="45.12351" lon="0.7172">
        <ele>172</ele>
        <time>2021-08-30T21:04:45Z</time>
      </trkpt>
      <trkpt lat="45.12375" lon="0.71752">
        <ele>180</ele>
        <time>2021-08-30T21:04:53Z</time>
      </trkpt>
      <trkpt lat="45.12442" lon="0.71869">
        <ele>204</ele>
        <time>2021-08-30T21:05:18Z</time>
      </trkpt>
      <trkpt lat="45.12451" lon="0.71876">
        <ele>206</ele>
        <time>2021-08-30T21:05:20Z</time>
      </trkpt>
      <trkpt lat="45.12448" lon="0.71889">
        <ele>206</ele>
        <time>2021-08-30T21:05:22Z</time>
      </trkpt>
      <trkpt lat="45.12428" lon="0.71925">
        <ele>206</ele>
        <time>2021-08-30T21:05:30Z</time>
      </trkpt>
      <trkpt lat="45.12409" lon="0.71951">
        <ele>206</ele>
        <time>2021-08-30T21:05:36Z</time>
      </trkpt>
      <trkpt lat="45.12385" lon="0.71967">
        <ele>204</ele>
        <time>2021-08-30T21:05:42Z</time>
      </trkpt>
      <trkpt lat="45.12358" lon="0.71977">
        <ele>201</ele>
        <time>2021-08-30T21:05:49Z</time>
      </trkpt>
      <trkpt lat="45.12288" lon="0.7202">
        <ele>190.6</ele>
        <time>2021-08-30T21:06:00Z</time>
      </trkpt>
      <trkpt lat="45.12262" lon="0.71937">
        <ele>178.5</ele>
      </trkpt>
      <trkpt lat="45.12093" lon="0.72075">
        <ele>155.4</ele>
      </trkpt>
      <trkpt lat="45.12045" lon="0.72066">
        <ele>152.2</ele>
      </trkpt>
      <trkpt lat="45.12022" lon="0.72304">
        <ele>171</ele>
        <time>2021-08-30T21:07:24Z</time>
      </trkpt>
      <trkpt lat="45.12017" lon="0.72632">
        <ele>208</ele>
        <time>2021-08-30T21:08:18Z</time>
      </trkpt>
      <trkpt lat="45.12037" lon="0.72672">
        <ele>212</ele>
        <time>2021-08-30T21:08:26Z</time>
      </trkpt>
      <trkpt lat="45.11917" lon="0.72927">
        <ele>222</ele>
        <time>2021-08-30T21:09:17Z</time>
      </trkpt>
      <trkpt lat="45.11943" lon="0.73377">
        <ele>224</ele>
        <time>2021-08-30T21:10:31Z</time>
      </trkpt>
      <trkpt lat="45.12004" lon="0.73688">
        <ele>233</ele>
        <time>2021-08-30T21:11:24Z</time>
      </trkpt>
      <trkpt lat="45.12012" lon="0.74011">
        <ele>227.8</ele>
      </trkpt>
      <trkpt lat="45.11941" lon="0.74274">
        <ele>228.1</ele>
      </trkpt>
      <trkpt lat="45.1192" lon="0.74527">
        <ele>231</ele>
        <time>2021-08-30T21:13:44Z</time>
      </trkpt>
      <trkpt lat="45.12088" lon="0.74525">
        <ele>230</ele>
        <time>2021-08-30T21:14:23Z</time>
      </trkpt>
      <trkpt lat="45.12175" lon="0.74454">
        <ele>229</ele>
        <time>2021-08-30T21:14:47Z</time>
      </trkpt>
      <trkpt lat="45.12312" lon="0.74199">
        <ele>230</ele>
        <time>2021-08-30T21:15:39Z</time>
      </trkpt>
      <trkpt lat="45.12668" lon="0.74018">
        <ele>215</ele>
        <time>2021-08-30T21:17:08Z</time>
      </trkpt>
      <trkpt lat="45.1295" lon="0.73906">
        <ele>201.7</ele>
      </trkpt>
      <trkpt lat="45.13161" lon="0.73929">
        <ele>182.8</ele>
      </trkpt>
      <trkpt lat="45.13382" lon="0.73781">
        <ele>168.6</ele>
      </trkpt>
      <trkpt lat="45.13444" lon="0.73799">
        <ele>164</ele>
        <time>2021-08-30T21:20:13Z</time>
      </trkpt>
      <trkpt lat="45.13474" lon="0.7365">
        <ele>161</ele>
        <time>2021-08-30T21:20:38Z</time>
      </trkpt>
      <trkpt lat="45.1358" lon="0.73705">
        <ele>159</ele>
        <time>2021-08-30T21:21:04Z</time>
      </trkpt>
      <trkpt lat="45.13671" lon="0.73569">
        <ele>171</ele>
        <time>2021-08-30T21:21:35Z</time>
      </trkpt>
      <trkpt lat="45.1381" lon="0.73487">
        <ele>192.1</ele>
      </trkpt>
      <trkpt lat="45.13858" lon="0.73416">
        <ele>199</ele>
        <time>2021-08-30T21:22:26Z</time>
      </trkpt>
      <trkpt lat="45.13873" lon="0.73358">
        <ele>198</ele>
        <time>2021-08-30T21:22:36Z</time>
      </trkpt>
      <trkpt lat="45.1391" lon="0.73303">
        <ele>202</ele>
        <time>2021-08-30T21:22:48Z</time>
      </trkpt>
      <trkpt lat="45.13958" lon="0.73315">
        <ele>203</ele>
        <time>2021-08-30T21:23:00Z</time>
      </trkpt>
      <trkpt lat="45.14116" lon="0.73429">
        <ele>209</ele>
        <time>2021-08-30T21:23:41Z</time>
      </trkpt>
      <trkpt lat="45.14123" lon="0.73437">
        <ele>209</ele>
        <time>2021-08-30T21:23:43Z</time>
      </trkpt>
      <trkpt lat="45.14176" lon="0.73479">
        <ele>213</ele>
        <time>2021-08-30T21:23:58Z</time>
      </trkpt>
      <trkpt lat="45.14259" lon="0.73499">
        <ele>217</ele>
        <time>2021-08-30T21:24:17Z</time>
      </trkpt>
      <trkpt lat="45.14278" lon="0.73509">
        <ele>217</ele>
        <time>2021-08-30T21:24:22Z</time>
      </trkpt>
      <trkpt lat="45.14311" lon="0.73577">
        <ele>216</ele>
        <time>2021-08-30T21:24:36Z</time>
      </trkpt>
      <trkpt lat="45.14324" lon="0.73591">
        <ele>215</ele>
        <time>2021-08-30T21:24:39Z</time>
      </trkpt>
      <trkpt lat="45.14345" lon="0.73602">
        <ele>215</ele>
        <time>2021-08-30T21:24:45Z</time>
      </trkpt>
      <trkpt lat="45.14402" lon="0.73506">
        <ele>214</ele>
        <time>2021-08-30T21:25:05Z</time>
      </trkpt>
      <trkpt lat="45.14423" lon="0.73521">
        <ele>212</ele>
        <time>2021-08-30T21:25:11Z</time>
      </trkpt>
      <trkpt lat="45.14443" lon="0.73543">
        <ele>210</ele>
        <time>2021-08-30T21:25:17Z</time>
      </trkpt>
      <trkpt lat="45.14467" lon="0.73564">
        <ele>208</ele>
        <time>2021-08-30T21:25:23Z</time>
      </trkpt>
      <trkpt lat="45.14535" lon="0.73583">
        <ele>203</ele>
        <time>2021-08-30T21:25:39Z</time>
      </trkpt>
      <trkpt lat="45.14539" lon="0.73622">
        <ele>201</ele>
        <time>2021-08-30T21:25:46Z</time>
      </trkpt>
      <trkpt lat="45.14539" lon="0.73682">
        <ele>199</ele>
        <time>2021-08-30T21:25:56Z</time>
      </trkpt>
      <trkpt lat="45.14547" lon="0.73701">
        <ele>198</ele>
        <time>2021-08-30T21:25:59Z</time>
      </trkpt>
      <trkpt lat="45.14581" lon="0.73711">
        <ele>196</ele>
        <time>2021-08-30T21:26:08Z</time>
      </trkpt>
      <trkpt lat="45.14608" lon="0.73709">
        <ele>194</ele>
        <time>2021-08-30T21:26:14Z</time>
      </trkpt>
      <trkpt lat="45.14643" lon="0.73692">
        <ele>192</ele>
        <time>2021-08-30T21:26:22Z</time>
      </trkpt>
      <trkpt lat="45.14744" lon="0.73679">
        <ele>189</ele>
        <time>2021-08-30T21:26:46Z</time>
      </trkpt>
      <trkpt lat="45.1484" lon="0.73663">
        <ele>183</ele>
        <time>2021-08-30T21:27:09Z</time>
      </trkpt>
      <trkpt lat="45.15015" lon="0.7362">
        <ele>171</ele>
        <time>2021-08-30T21:27:50Z</time>
      </trkpt>
      <trkpt lat="45.15116" lon="0.73652">
        <ele>170</ele>
        <time>2021-08-30T21:28:14Z</time>
      </trkpt>
      <trkpt lat="45.15163" lon="0.73682">
        <ele>168</ele>
        <time>2021-08-30T21:28:26Z</time>
      </trkpt>
      <trkpt lat="45.15195" lon="0.73707">
        <ele>167</ele>
        <time>2021-08-30T21:28:35Z</time>
      </trkpt>
      <trkpt lat="45.15253" lon="0.7378">
        <ele>162</ele>
        <time>2021-08-30T21:28:53Z</time>
      </trkpt>
      <trkpt lat="45.15315" lon="0.73843">
        <ele>163</ele>
        <time>2021-08-30T21:29:11Z</time>
      </trkpt>
      <trkpt lat="45.15327" lon="0.73858">
        <ele>163</ele>
        <time>2021-08-30T21:29:15Z</time>
      </trkpt>
      <trkpt lat="45.15373" lon="0.73939">
        <ele>163</ele>
        <time>2021-08-30T21:29:32Z</time>
      </trkpt>
      <trkpt lat="45.15396" lon="0.73969">
        <ele>161</ele>
        <time>2021-08-30T21:29:39Z</time>
      </trkpt>
      <trkpt lat="45.15455" lon="0.74101">
        <ele>156</ele>
        <time>2021-08-30T21:30:05Z</time>
      </trkpt>
      <trkpt lat="45.15516" lon="0.74169">
        <ele>152</ele>
        <time>2021-08-30T21:30:23Z</time>
      </trkpt>
      <trkpt lat="45.15488" lon="0.74195">
        <ele>151</ele>
        <time>2021-08-30T21:30:31Z</time>
      </trkpt>
      <trkpt lat="45.15327" lon="0.7429">
        <ele>159</ele>
        <time>2021-08-30T21:31:11Z</time>
      </trkpt>
      <trkpt lat="45.15299" lon="0.7431">
        <ele>160</ele>
        <time>2021-08-30T21:31:19Z</time>
      </trkpt>
      <trkpt lat="45.15238" lon="0.74379">
        <ele>161</ele>
        <time>2021-08-30T21:31:37Z</time>
      </trkpt>
      <trkpt lat="45.15198" lon="0.74458">
        <ele>162</ele>
        <time>2021-08-30T21:31:53Z</time>
      </trkpt>
      <trkpt lat="45.15202" lon="0.74559">
        <ele>166</ele>
        <time>2021-08-30T21:32:10Z</time>
      </trkpt>
      <trkpt lat="45.15205" lon="0.74572">
        <ele>167</ele>
        <time>2021-08-30T21:32:12Z</time>
      </trkpt>
      <trkpt lat="45.15193" lon="0.74643">
        <ele>168</ele>
        <time>2021-08-30T21:32:24Z</time>
      </trkpt>
      <trkpt lat="45.15185" lon="0.74668">
        <ele>168</ele>
        <time>2021-08-30T21:32:28Z</time>
      </trkpt>
      <trkpt lat="45.15171" lon="0.7476">
        <ele>176</ele>
        <time>2021-08-30T21:32:44Z</time>
      </trkpt>
      <trkpt lat="45.15171" lon="0.74775">
        <ele>178</ele>
        <time>2021-08-30T21:32:46Z</time>
      </trkpt>
      <trkpt lat="45.15153" lon="0.74849">
        <ele>186</ele>
        <time>2021-08-30T21:32:59Z</time>
      </trkpt>
      <trkpt lat="45.15152" lon="0.74871">
        <ele>189</ele>
        <time>2021-08-30T21:33:03Z</time>
      </trkpt>
      <trkpt lat="45.15201" lon="0.74921">
        <ele>200</ele>
        <time>2021-08-30T21:33:17Z</time>
      </trkpt>
      <trkpt lat="45.15233" lon="0.74982">
        <ele>200</ele>
        <time>2021-08-30T21:33:30Z</time>
      </trkpt>
      <trkpt lat="45.15126" lon="0.75119">
        <ele>201</ele>
        <time>2021-08-30T21:34:03Z</time>
      </trkpt>
      <trkpt lat="45.15104" lon="0.75155">
        <ele>202</ele>
        <time>2021-08-30T21:34:11Z</time>
      </trkpt>
      <trkpt lat="45.15009" lon="0.75283">
        <ele>207</ele>
        <time>2021-08-30T21:34:42Z</time>
      </trkpt>
      <trkpt lat="45.15014" lon="0.75314">
        <ele>208</ele>
        <time>2021-08-30T21:34:47Z</time>
      </trkpt>
      <trkpt lat="45.14977" lon="0.75621">
        <ele>212</ele>
        <time>2021-08-30T21:35:38Z</time>
      </trkpt>
      <trkpt lat="45.15035" lon="0.75651">
        <ele>211</ele>
        <time>2021-08-30T21:35:53Z</time>
      </trkpt>
      <trkpt lat="45.15174" lon="0.75695">
        <ele>201</ele>
        <time>2021-08-30T21:36:26Z</time>
      </trkpt>
      <trkpt lat="45.15315" lon="0.75736">
        <ele>191</ele>
        <time>2021-08-30T21:37:00Z</time>
      </trkpt>
      <trkpt lat="45.15328" lon="0.75745">
        <ele>190</ele>
        <time>2021-08-30T21:37:03Z</time>
      </trkpt>
      <trkpt lat="45.15348" lon="0.7577">
        <ele>191</ele>
        <time>2021-08-30T21:37:09Z</time>
      </trkpt>
      <trkpt lat="45.15369" lon="0.75812">
        <ele>194</ele>
        <time>2021-08-30T21:37:18Z</time>
      </trkpt>
      <trkpt lat="45.1539" lon="0.75839">
        <ele>195</ele>
        <time>2021-08-30T21:37:24Z</time>
      </trkpt>
      <trkpt lat="45.15496" lon="0.75893">
        <ele>191</ele>
        <time>2021-08-30T21:37:51Z</time>
      </trkpt>
      <trkpt lat="45.1562" lon="0.75899">
        <ele>190</ele>
        <time>2021-08-30T21:38:19Z</time>
      </trkpt>
      <trkpt lat="45.15623" lon="0.75901">
        <ele>190</ele>
        <time>2021-08-30T21:38:20Z</time>
      </trkpt>
      <trkpt lat="45.15618" lon="0.75935">
        <ele>189</ele>
        <time>2021-08-30T21:38:26Z</time>
      </trkpt>
      <trkpt lat="45.15619" lon="0.75973">
        <ele>190</ele>
        <time>2021-08-30T21:38:32Z</time>
      </trkpt>
      <trkpt lat="45.15608" lon="0.7604">
        <ele>192</ele>
        <time>2021-08-30T21:38:44Z</time>
      </trkpt>
      <trkpt lat="45.15617" lon="0.76122">
        <ele>193</ele>
        <time>2021-08-30T21:38:57Z</time>
      </trkpt>
      <trkpt lat="45.15622" lon="0.76132">
        <ele>193</ele>
        <time>2021-08-30T21:38:59Z</time>
      </trkpt>
      <trkpt lat="45.15658" lon="0.76165">
        <ele>194</ele>
        <time>2021-08-30T21:39:09Z</time>
      </trkpt>
      <trkpt lat="45.15715" lon="0.76209">
        <ele>196</ele>
        <time>2021-08-30T21:39:24Z</time>
      </trkpt>
      <trkpt lat="45.15771" lon="0.76248">
        <ele>197</ele>
        <time>2021-08-30T21:39:39Z</time>
      </trkpt>
      <trkpt lat="45.15786" lon="0.76263">
        <ele>197</ele>
        <time>2021-08-30T21:39:43Z</time>
      </trkpt>
      <trkpt lat="45.1584" lon="0.7634">
        <ele>197</ele>
        <time>2021-08-30T21:40:01Z</time>
      </trkpt>
      <trkpt lat="45.15874" lon="0.76358">
        <ele>197</ele>
        <time>2021-08-30T21:40:10Z</time>
      </trkpt>
      <trkpt lat="45.15976" lon="0.7637">
        <ele>195</ele>
        <time>2021-08-30T21:40:34Z</time>
      </trkpt>
      <trkpt lat="45.15978" lon="0.7638">
        <ele>195</ele>
        <time>2021-08-30T21:40:35Z</time>
      </trkpt>
      <trkpt lat="45.1597" lon="0.76404">
        <ele>197</ele>
        <time>2021-08-30T21:40:40Z</time>
      </trkpt>
      <trkpt lat="45.15958" lon="0.7647">
        <ele>200</ele>
        <time>2021-08-30T21:40:51Z</time>
      </trkpt>
      <trkpt lat="45.15924" lon="0.76531">
        <ele>201</ele>
        <time>2021-08-30T21:41:04Z</time>
      </trkpt>
      <trkpt lat="45.15924" lon="0.76548">
        <ele>201</ele>
        <time>2021-08-30T21:41:06Z</time>
      </trkpt>
      <trkpt lat="45.15931" lon="0.76553">
        <ele>202</ele>
        <time>2021-08-30T21:41:08Z</time>
      </trkpt>
      <trkpt lat="45.15942" lon="0.76541">
        <ele>202</ele>
        <time>2021-08-30T21:41:12Z</time>
      </trkpt>
      <trkpt lat="45.15933" lon="0.76551">
        <ele>202</ele>
        <time>2021-08-30T21:41:14Z</time>
      </trkpt>
      <trkpt lat="45.15934" lon="0.76564">
        <ele>202</ele>
        <time>2021-08-30T21:41:16Z</time>
      </trkpt>
      <trkpt lat="45.15992" lon="0.76623">
        <ele>206</ele>
        <time>2021-08-30T21:41:33Z</time>
      </trkpt>
      <trkpt lat="45.16034" lon="0.76682">
        <ele>207</ele>
        <time>2021-08-30T21:41:47Z</time>
      </trkpt>
      <trkpt lat="45.16076" lon="0.76722">
        <ele>207</ele>
        <time>2021-08-30T21:41:59Z</time>
      </trkpt>
      <trkpt lat="45.16134" lon="0.76742">
        <ele>208</ele>
        <time>2021-08-30T21:42:13Z</time>
      </trkpt>
      <trkpt lat="45.16136" lon="0.76753">
        <ele>208</ele>
        <time>2021-08-30T21:42:14Z</time>
      </trkpt>
      <trkpt lat="45.16086" lon="0.76909">
        <ele>205</ele>
        <time>2021-08-30T21:42:43Z</time>
      </trkpt>
      <trkpt lat="45.16063" lon="0.77003">
        <ele>204.8</ele>
        <time>2021-08-30T21:43:00Z</time>
      </trkpt>
      <trkpt lat="45.16081" lon="0.77112">
        <ele>199.3</ele>
      </trkpt>
      <trkpt lat="45.16036" lon="0.77259">
        <ele>169.4</ele>
        <time>2021-08-30T21:43:02Z</time>
      </trkpt>
      <trkpt lat="45.16004" lon="0.77323">
        <ele>152.2</ele>
      </trkpt>
      <trkpt lat="45.15907" lon="0.7723">
        <ele>145.3</ele>
        <time>2021-08-30T21:43:16Z</time>
      </trkpt>
      <trkpt lat="45.15904" lon="0.77338">
        <ele>128.6</ele>
        <time>2021-08-30T21:46:27Z</time>
      </trkpt>
      <trkpt lat="45.15866" lon="0.77279">
        <ele>127.1</ele>
        <time>2021-08-30T21:46:33Z</time>
      </trkpt>
      <trkpt lat="45.15871" lon="0.77323">
        <ele>125</ele>
        <time>2021-08-30T21:46:38Z</time>
      </trkpt>
      <trkpt lat="45.15879" lon="0.77352">
        <ele>125</ele>
        <time>2021-08-30T21:46:43Z</time>
      </trkpt>
      <trkpt lat="45.1594" lon="0.77472">
        <ele>116</ele>
        <time>2021-08-30T21:47:07Z</time>
      </trkpt>
      <trkpt lat="45.15965" lon="0.77536">
        <ele>109</ele>
        <time>2021-08-30T21:47:19Z</time>
      </trkpt>
      <trkpt lat="45.15975" lon="0.77555">
        <ele>107</ele>
        <time>2021-08-30T21:47:23Z</time>
      </trkpt>
      <trkpt lat="45.15979" lon="0.77578">
        <ele>105</ele>
        <time>2021-08-30T21:47:27Z</time>
      </trkpt>
      <trkpt lat="45.16037" lon="0.77645">
        <ele>100</ele>
        <time>2021-08-30T21:47:44Z</time>
      </trkpt>
      <trkpt lat="45.16079" lon="0.77706">
        <ele>100</ele>
        <time>2021-08-30T21:47:58Z</time>
      </trkpt>
      <trkpt lat="45.16096" lon="0.77712">
        <ele>100</ele>
        <time>2021-08-30T21:48:03Z</time>
      </trkpt>
      <trkpt lat="45.16123" lon="0.77689">
        <ele>100</ele>
        <time>2021-08-30T21:48:10Z</time>
      </trkpt>
      <trkpt lat="45.16142" lon="0.77642">
        <ele>99</ele>
        <time>2021-08-30T21:48:19Z</time>
      </trkpt>
      <trkpt lat="45.162" lon="0.77593">
        <ele>99</ele>
        <time>2021-08-30T21:48:35Z</time>
      </trkpt>
      <trkpt lat="45.16206" lon="0.77493">
        <ele>101</ele>
        <time>2021-08-30T21:48:51Z</time>
      </trkpt>
      <trkpt lat="45.16252" lon="0.77445">
        <ele>104</ele>
        <time>2021-08-30T21:49:04Z</time>
      </trkpt>
      <trkpt lat="45.1629" lon="0.7748">
        <ele>100</ele>
        <time>2021-08-30T21:49:15Z</time>
      </trkpt>
      <trkpt lat="45.1629" lon="0.77474">
        <ele>100</ele>
        <time>2021-08-30T21:49:16Z</time>
      </trkpt>
      <trkpt lat="45.16279" lon="0.77458">
        <ele>102</ele>
        <time>2021-08-30T21:49:20Z</time>
      </trkpt>
      <trkpt lat="45.16415" lon="0.777">
        <ele>97</ele>
        <time>2021-08-30T21:50:11Z</time>
      </trkpt>
      <trkpt lat="45.16515" lon="0.77804">
        <ele>100</ele>
        <time>2021-08-30T21:50:40Z</time>
      </trkpt>
      <trkpt lat="45.16499" lon="0.77824">
        <ele>101</ele>
        <time>2021-08-30T21:50:45Z</time>
      </trkpt>
      <trkpt lat="45.16443" lon="0.77847">
        <ele>101</ele>
        <time>2021-08-30T21:50:58Z</time>
      </trkpt>
      <trkpt lat="45.16446" lon="0.77885">
        <ele>102</ele>
        <time>2021-08-30T21:51:05Z</time>
      </trkpt>
      <trkpt lat="45.16461" lon="0.7792">
        <ele>106</ele>
        <time>2021-08-30T21:51:11Z</time>
      </trkpt>
      <trkpt lat="45.16474" lon="0.77976">
        <ele>115</ele>
        <time>2021-08-30T21:51:21Z</time>
      </trkpt>
      <trkpt lat="45.16487" lon="0.78096">
        <ele>127</ele>
        <time>2021-08-30T21:51:41Z</time>
      </trkpt>
      <trkpt lat="45.16481" lon="0.78146">
        <ele>128</ele>
        <time>2021-08-30T21:51:49Z</time>
      </trkpt>
      <trkpt lat="45.16452" lon="0.78168">
        <ele>128</ele>
        <time>2021-08-30T21:51:57Z</time>
      </trkpt>
      <trkpt lat="45.16465" lon="0.78234">
        <ele>133</ele>
        <time>2021-08-30T21:52:08Z</time>
      </trkpt>
      <trkpt lat="45.16392" lon="0.78186">
        <ele>129</ele>
        <time>2021-08-30T21:52:27Z</time>
      </trkpt>
      <trkpt lat="45.16351" lon="0.78225">
        <ele>136</ele>
        <time>2021-08-30T21:52:39Z</time>
      </trkpt>
      <trkpt lat="45.16304" lon="0.78261">
        <ele>139</ele>
        <time>2021-08-30T21:52:51Z</time>
      </trkpt>
      <trkpt lat="45.16284" lon="0.78273">
        <ele>141</ele>
        <time>2021-08-30T21:52:56Z</time>
      </trkpt>
      <trkpt lat="45.16279" lon="0.78292">
        <ele>144</ele>
        <time>2021-08-30T21:52:59Z</time>
      </trkpt>
      <trkpt lat="45.16253" lon="0.78301">
        <ele>144</ele>
        <time>2021-08-30T21:53:06Z</time>
      </trkpt>
      <trkpt lat="45.16197" lon="0.7834">
        <ele>146</ele>
        <time>2021-08-30T21:53:20Z</time>
      </trkpt>
      <trkpt lat="45.16172" lon="0.78375">
        <ele>147</ele>
        <time>2021-08-30T21:53:28Z</time>
      </trkpt>
      <trkpt lat="45.16149" lon="0.78389">
        <ele>144</ele>
        <time>2021-08-30T21:53:34Z</time>
      </trkpt>
      <trkpt lat="45.16147" lon="0.78396">
        <ele>145</ele>
        <time>2021-08-30T21:53:36Z</time>
      </trkpt>
      <trkpt lat="45.16125" lon="0.78413">
        <ele>142</ele>
        <time>2021-08-30T21:53:41Z</time>
      </trkpt>
      <trkpt lat="45.16112" lon="0.7843">
        <ele>140</ele>
        <time>2021-08-30T21:53:46Z</time>
      </trkpt>
      <trkpt lat="45.16108" lon="0.78432">
        <ele>139</ele>
        <time>2021-08-30T21:53:47Z</time>
      </trkpt>
      <trkpt lat="45.16095" lon="0.78452">
        <ele>137</ele>
        <time>2021-08-30T21:53:51Z</time>
      </trkpt>
      <trkpt lat="45.16089" lon="0.78477">
        <ele>136</ele>
        <time>2021-08-30T21:53:55Z</time>
      </trkpt>
      <trkpt lat="45.16088" lon="0.78497">
        <ele>136</ele>
        <time>2021-08-30T21:53:59Z</time>
      </trkpt>
      <trkpt lat="45.1609" lon="0.78501">
        <ele>136</ele>
        <time>2021-08-30T21:53:59Z</time>
      </trkpt>
      <trkpt lat="45.1609" lon="0.78518">
        <ele>135</ele>
        <time>2021-08-30T21:54:02Z</time>
      </trkpt>
      <trkpt lat="45.16097" lon="0.7858">
        <ele>130</ele>
        <time>2021-08-30T21:54:13Z</time>
      </trkpt>
      <trkpt lat="45.16101" lon="0.78609">
        <ele>129</ele>
        <time>2021-08-30T21:54:17Z</time>
      </trkpt>
      <trkpt lat="45.16109" lon="0.78642">
        <ele>128</ele>
        <time>2021-08-30T21:54:23Z</time>
      </trkpt>
      <trkpt lat="45.16127" lon="0.78695">
        <ele>129</ele>
        <time>2021-08-30T21:54:33Z</time>
      </trkpt>
      <trkpt lat="45.16127" lon="0.7871">
        <ele>129</ele>
        <time>2021-08-30T21:54:35Z</time>
      </trkpt>
      <trkpt lat="45.16178" lon="0.78821">
        <ele>127</ele>
        <time>2021-08-30T21:54:57Z</time>
      </trkpt>
      <trkpt lat="45.16182" lon="0.78889">
        <ele>128</ele>
        <time>2021-08-30T21:55:08Z</time>
      </trkpt>
      <trkpt lat="45.16202" lon="0.79096">
        <ele>137</ele>
        <time>2021-08-30T21:55:43Z</time>
      </trkpt>
      <trkpt lat="45.16266" lon="0.79361">
        <ele>135</ele>
        <time>2021-08-30T21:56:29Z</time>
      </trkpt>
      <trkpt lat="45.16337" lon="0.79555">
        <ele>147</ele>
        <time>2021-08-30T21:57:05Z</time>
      </trkpt>
      <trkpt lat="45.1639" lon="0.79663">
        <ele>150</ele>
        <time>2021-08-30T21:57:27Z</time>
      </trkpt>
      <trkpt lat="45.16455" lon="0.79714">
        <ele>150</ele>
        <time>2021-08-30T21:57:44Z</time>
      </trkpt>
      <trkpt lat="45.16515" lon="0.79769">
        <ele>153</ele>
        <time>2021-08-30T21:58:01Z</time>
      </trkpt>
      <trkpt lat="45.16565" lon="0.79872">
        <ele>159</ele>
        <time>2021-08-30T21:58:21Z</time>
      </trkpt>
      <trkpt lat="45.16563" lon="0.79881">
        <ele>159</ele>
        <time>2021-08-30T21:58:23Z</time>
      </trkpt>
      <trkpt lat="45.16525" lon="0.79958">
        <ele>163</ele>
        <time>2021-08-30T21:58:38Z</time>
      </trkpt>
      <trkpt lat="45.16488" lon="0.80046">
        <ele>166</ele>
        <time>2021-08-30T21:58:55Z</time>
      </trkpt>
      <trkpt lat="45.16484" lon="0.80047">
        <ele>166</ele>
        <time>2021-08-30T21:58:56Z</time>
      </trkpt>
      <trkpt lat="45.16478" lon="0.80038">
        <ele>167</ele>
        <time>2021-08-30T21:58:58Z</time>
      </trkpt>
      <trkpt lat="45.16471" lon="0.80012">
        <ele>167</ele>
        <time>2021-08-30T21:59:03Z</time>
      </trkpt>
      <trkpt lat="45.1646" lon="0.79992">
        <ele>168</ele>
        <time>2021-08-30T21:59:07Z</time>
      </trkpt>
      <trkpt lat="45.1644" lon="0.80024">
        <ele>170</ele>
        <time>2021-08-30T21:59:14Z</time>
      </trkpt>
      <trkpt lat="45.16427" lon="0.80204">
        <ele>187</ele>
        <time>2021-08-30T21:59:44Z</time>
      </trkpt>
      <trkpt lat="45.16401" lon="0.80325">
        <ele>201</ele>
        <time>2021-08-30T22:00:05Z</time>
      </trkpt>
      <trkpt lat="45.16378" lon="0.80411">
        <ele>204</ele>
        <time>2021-08-30T22:00:20Z</time>
      </trkpt>
      <trkpt lat="45.16374" lon="0.80434">
        <ele>205</ele>
        <time>2021-08-30T22:00:24Z</time>
      </trkpt>
      <trkpt lat="45.16371" lon="0.80509">
        <ele>206</ele>
        <time>2021-08-30T22:00:36Z</time>
      </trkpt>
      <trkpt lat="45.16439" lon="0.80533">
        <ele>208</ele>
        <time>2021-08-30T22:00:52Z</time>
      </trkpt>
      <trkpt lat="45.16544" lon="0.80539">
        <ele>215</ele>
        <time>2021-08-30T22:01:17Z</time>
      </trkpt>
      <trkpt lat="45.16548" lon="0.80541">
        <ele>216</ele>
        <time>2021-08-30T22:01:18Z</time>
      </trkpt>
      <trkpt lat="45.16558" lon="0.80539">
        <ele>216</ele>
        <time>2021-08-30T22:01:20Z</time>
      </trkpt>
      <trkpt lat="45.16573" lon="0.8054">
        <ele>218</ele>
        <time>2021-08-30T22:01:24Z</time>
      </trkpt>
      <trkpt lat="45.16593" lon="0.80556">
        <ele>220</ele>
        <time>2021-08-30T22:01:29Z</time>
      </trkpt>
      <trkpt lat="45.16607" lon="0.80572">
        <ele>222</ele>
        <time>2021-08-30T22:01:33Z</time>
      </trkpt>
      <trkpt lat="45.16625" lon="0.80585">
        <ele>224</ele>
        <time>2021-08-30T22:01:38Z</time>
      </trkpt>
      <trkpt lat="45.16667" lon="0.80626">
        <ele>224</ele>
        <time>2021-08-30T22:01:50Z</time>
      </trkpt>
      <trkpt lat="45.1672" lon="0.80648">
        <ele>224</ele>
        <time>2021-08-30T22:02:03Z</time>
      </trkpt>
      <trkpt lat="45.16738" lon="0.80663">
        <ele>224</ele>
        <time>2021-08-30T22:02:08Z</time>
      </trkpt>
      <trkpt lat="45.1678" lon="0.80709">
        <ele>221</ele>
        <time>2021-08-30T22:02:20Z</time>
      </trkpt>
      <trkpt lat="45.16818" lon="0.80806">
        <ele>218</ele>
        <time>2021-08-30T22:02:38Z</time>
      </trkpt>
      <trkpt lat="45.16847" lon="0.808">
        <ele>215</ele>
        <time>2021-08-30T22:02:45Z</time>
      </trkpt>
      <trkpt lat="45.16853" lon="0.80802">
        <ele>214</ele>
        <time>2021-08-30T22:02:47Z</time>
      </trkpt>
      <trkpt lat="45.16861" lon="0.80826">
        <ele>214</ele>
        <time>2021-08-30T22:02:51Z</time>
      </trkpt>
      <trkpt lat="45.16889" lon="0.80874">
        <ele>214</ele>
        <time>2021-08-30T22:03:01Z</time>
      </trkpt>
      <trkpt lat="45.16949" lon="0.80952">
        <ele>212</ele>
        <time>2021-08-30T22:03:20Z</time>
      </trkpt>
      <trkpt lat="45.17006" lon="0.8105">
        <ele>209</ele>
        <time>2021-08-30T22:03:41Z</time>
      </trkpt>
      <trkpt lat="45.17024" lon="0.81103">
        <ele>207</ele>
        <time>2021-08-30T22:03:51Z</time>
      </trkpt>
      <trkpt lat="45.1705" lon="0.81196">
        <ele>200</ele>
        <time>2021-08-30T22:04:07Z</time>
      </trkpt>
      <trkpt lat="45.17061" lon="0.81221">
        <ele>199</ele>
        <time>2021-08-30T22:04:12Z</time>
      </trkpt>
      <trkpt lat="45.17074" lon="0.81245">
        <ele>198</ele>
        <time>2021-08-30T22:04:17Z</time>
      </trkpt>
      <trkpt lat="45.1712" lon="0.81313">
        <ele>192</ele>
        <time>2021-08-30T22:04:33Z</time>
      </trkpt>
      <trkpt lat="45.17136" lon="0.81333">
        <ele>191</ele>
        <time>2021-08-30T22:04:38Z</time>
      </trkpt>
      <trkpt lat="45.17214" lon="0.81393">
        <ele>184</ele>
        <time>2021-08-30T22:04:58Z</time>
      </trkpt>
      <trkpt lat="45.1724" lon="0.81417">
        <ele>184</ele>
        <time>2021-08-30T22:05:06Z</time>
      </trkpt>
      <trkpt lat="45.17317" lon="0.81513">
        <ele>186</ele>
        <time>2021-08-30T22:05:30Z</time>
      </trkpt>
      <trkpt lat="45.17325" lon="0.81519">
        <ele>186</ele>
        <time>2021-08-30T22:05:32Z</time>
      </trkpt>
      <trkpt lat="45.17336" lon="0.81523">
        <ele>187</ele>
        <time>2021-08-30T22:05:34Z</time>
      </trkpt>
      <trkpt lat="45.17291" lon="0.81535">
        <ele>187</ele>
        <time>2021-08-30T22:05:45Z</time>
      </trkpt>
      <trkpt lat="45.17242" lon="0.81563">
        <ele>188</ele>
        <time>2021-08-30T22:05:57Z</time>
      </trkpt>
      <trkpt lat="45.1721" lon="0.81553">
        <ele>185</ele>
        <time>2021-08-30T22:06:05Z</time>
      </trkpt>
      <trkpt lat="45.1716" lon="0.81524">
        <ele>180</ele>
        <time>2021-08-30T22:06:18Z</time>
      </trkpt>
      <trkpt lat="45.171" lon="0.81522">
        <ele>181</ele>
        <time>2021-08-30T22:06:32Z</time>
      </trkpt>
      <trkpt lat="45.1705" lon="0.81509">
        <ele>179</ele>
        <time>2021-08-30T22:06:44Z</time>
      </trkpt>
      <trkpt lat="45.17018" lon="0.81521">
        <ele>178</ele>
        <time>2021-08-30T22:06:51Z</time>
      </trkpt>
      <trkpt lat="45.16975" lon="0.81552">
        <ele>180</ele>
        <time>2021-08-30T22:07:03Z</time>
      </trkpt>
      <trkpt lat="45.16905" lon="0.81554">
        <ele>180</ele>
        <time>2021-08-30T22:07:19Z</time>
      </trkpt>
      <trkpt lat="45.16859" lon="0.81587">
        <ele>182</ele>
        <time>2021-08-30T22:07:31Z</time>
      </trkpt>
      <trkpt lat="45.16821" lon="0.81654">
        <ele>184</ele>
        <time>2021-08-30T22:07:45Z</time>
      </trkpt>
      <trkpt lat="45.16786" lon="0.81743">
        <ele>187</ele>
        <time>2021-08-30T22:08:02Z</time>
      </trkpt>
      <trkpt lat="45.16778" lon="0.81797">
        <ele>191</ele>
        <time>2021-08-30T22:08:11Z</time>
      </trkpt>
      <trkpt lat="45.16787" lon="0.81845">
        <ele>196</ele>
        <time>2021-08-30T22:08:19Z</time>
      </trkpt>
      <trkpt lat="45.167" lon="0.81936">
        <ele>180.4</ele>
        <time>2021-08-30T22:08:34Z</time>
      </trkpt>
      <trkpt lat="45.16697" lon="0.82056">
        <ele>175.6</ele>
        <time>2021-08-30T22:08:46Z</time>
      </trkpt>
      <trkpt lat="45.16693" lon="0.82125">
        <ele>171.6</ele>
        <time>2021-08-30T22:08:57Z</time>
      </trkpt>
      <trkpt lat="45.16749" lon="0.82107">
        <ele>176.8</ele>
      </trkpt>
      <trkpt lat="45.16802" lon="0.82144">
        <ele>182</ele>
        <time>2021-08-30T22:09:14Z</time>
      </trkpt>
      <trkpt lat="45.16793" lon="0.82185">
        <ele>182</ele>
        <time>2021-08-30T22:09:21Z</time>
      </trkpt>
      <trkpt lat="45.16815" lon="0.82316">
        <ele>192.9</ele>
        <time>2021-08-30T22:09:53Z</time>
      </trkpt>
      <trkpt lat="45.16839" lon="0.8247">
        <ele>200.2</ele>
      </trkpt>
      <trkpt lat="45.169" lon="0.82591">
        <ele>208.7</ele>
        <time>2021-08-30T22:11:24Z</time>
      </trkpt>
      <trkpt lat="45.16923" lon="0.82655">
        <ele>211</ele>
        <time>2021-08-30T22:11:36Z</time>
      </trkpt>
      <trkpt lat="45.16925" lon="0.82684">
        <ele>211</ele>
        <time>2021-08-30T22:11:41Z</time>
      </trkpt>
      <trkpt lat="45.17051" lon="0.82691">
        <ele>205</ele>
        <time>2021-08-30T22:12:10Z</time>
      </trkpt>
      <trkpt lat="45.17125" lon="0.82715">
        <ele>200</ele>
        <time>2021-08-30T22:12:28Z</time>
      </trkpt>
      <trkpt lat="45.17165" lon="0.82747">
        <ele>197</ele>
        <time>2021-08-30T22:12:39Z</time>
      </trkpt>
      <trkpt lat="45.1721" lon="0.82788">
        <ele>192</ele>
        <time>2021-08-30T22:12:51Z</time>
      </trkpt>
      <trkpt lat="45.17218" lon="0.82792">
        <ele>192</ele>
        <time>2021-08-30T22:12:53Z</time>
      </trkpt>
      <trkpt lat="45.17222" lon="0.8279">
        <ele>192</ele>
        <time>2021-08-30T22:12:54Z</time>
      </trkpt>
      <trkpt lat="45.17252" lon="0.82729">
        <ele>189</ele>
        <time>2021-08-30T22:13:06Z</time>
      </trkpt>
      <trkpt lat="45.17272" lon="0.8273">
        <ele>186</ele>
        <time>2021-08-30T22:13:11Z</time>
      </trkpt>
      <trkpt lat="45.17328" lon="0.82784">
        <ele>183</ele>
        <time>2021-08-30T22:13:27Z</time>
      </trkpt>
      <trkpt lat="45.1735" lon="0.82792">
        <ele>182</ele>
        <time>2021-08-30T22:13:32Z</time>
      </trkpt>
      <trkpt lat="45.17399" lon="0.82778">
        <ele>177</ele>
        <time>2021-08-30T22:13:44Z</time>
      </trkpt>
      <trkpt lat="45.17438" lon="0.82754">
        <ele>173</ele>
        <time>2021-08-30T22:13:54Z</time>
      </trkpt>
      <trkpt lat="45.17479" lon="0.82735">
        <ele>170</ele>
        <time>2021-08-30T22:14:04Z</time>
      </trkpt>
      <trkpt lat="45.17498" lon="0.8273">
        <ele>170</ele>
        <time>2021-08-30T22:14:08Z</time>
      </trkpt>
      <trkpt lat="45.17608" lon="0.82731">
        <ele>165</ele>
        <time>2021-08-30T22:14:34Z</time>
      </trkpt>
      <trkpt lat="45.17657" lon="0.82728">
        <ele>164</ele>
        <time>2021-08-30T22:14:46Z</time>
      </trkpt>
      <trkpt lat="45.17671" lon="0.8273">
        <ele>164</ele>
        <time>2021-08-30T22:14:49Z</time>
      </trkpt>
      <trkpt lat="45.17697" lon="0.82735">
        <ele>162</ele>
        <time>2021-08-30T22:14:55Z</time>
      </trkpt>
      <trkpt lat="45.17748" lon="0.82753">
        <ele>159</ele>
        <time>2021-08-30T22:15:07Z</time>
      </trkpt>
      <trkpt lat="45.17823" lon="0.82759">
        <ele>158</ele>
        <time>2021-08-30T22:15:25Z</time>
      </trkpt>
      <trkpt lat="45.17852" lon="0.82764">
        <ele>157</ele>
        <time>2021-08-30T22:15:32Z</time>
      </trkpt>
      <trkpt lat="45.17889" lon="0.82778">
        <ele>155</ele>
        <time>2021-08-30T22:15:40Z</time>
      </trkpt>
      <trkpt lat="45.17903" lon="0.82786">
        <ele>154</ele>
        <time>2021-08-30T22:15:44Z</time>
      </trkpt>
      <trkpt lat="45.1793" lon="0.82795">
        <ele>153</ele>
        <time>2021-08-30T22:15:50Z</time>
      </trkpt>
      <trkpt lat="45.18016" lon="0.82797">
        <ele>150</ele>
        <time>2021-08-30T22:16:11Z</time>
      </trkpt>
      <trkpt lat="45.18024" lon="0.82809">
        <ele>150</ele>
        <time>2021-08-30T22:16:13Z</time>
      </trkpt>
      <trkpt lat="45.18036" lon="0.8284">
        <ele>151</ele>
        <time>2021-08-30T22:16:19Z</time>
      </trkpt>
      <trkpt lat="45.18079" lon="0.82865">
        <ele>155</ele>
        <time>2021-08-30T22:16:30Z</time>
      </trkpt>
      <trkpt lat="45.18127" lon="0.8288">
        <ele>157</ele>
        <time>2021-08-30T22:16:41Z</time>
      </trkpt>
      <trkpt lat="45.18141" lon="0.82881">
        <ele>157</ele>
        <time>2021-08-30T22:16:45Z</time>
      </trkpt>
      <trkpt lat="45.18179" lon="0.82874">
        <ele>158</ele>
        <time>2021-08-30T22:16:54Z</time>
      </trkpt>
      <trkpt lat="45.18197" lon="0.82874">
        <ele>159</ele>
        <time>2021-08-30T22:16:58Z</time>
      </trkpt>
      <trkpt lat="45.18202" lon="0.82878">
        <ele>160</ele>
        <time>2021-08-30T22:16:59Z</time>
      </trkpt>
      <trkpt lat="45.1821" lon="0.82893">
        <ele>161</ele>
        <time>2021-08-30T22:17:02Z</time>
      </trkpt>
      <trkpt lat="45.18218" lon="0.82917">
        <ele>161</ele>
        <time>2021-08-30T22:17:07Z</time>
      </trkpt>
      <trkpt lat="45.18229" lon="0.8297">
        <ele>162</ele>
        <time>2021-08-30T22:17:16Z</time>
      </trkpt>
      <trkpt lat="45.18235" lon="0.83024">
        <ele>161</ele>
        <time>2021-08-30T22:17:25Z</time>
      </trkpt>
      <trkpt lat="45.18238" lon="0.83112">
        <ele>160</ele>
        <time>2021-08-30T22:17:39Z</time>
      </trkpt>
      <trkpt lat="45.18245" lon="0.83151">
        <ele>161</ele>
        <time>2021-08-30T22:17:46Z</time>
      </trkpt>
      <trkpt lat="45.18239" lon="0.83182">
        <ele>161</ele>
        <time>2021-08-30T22:17:51Z</time>
      </trkpt>
      <trkpt lat="45.18258" lon="0.83226">
        <ele>161</ele>
        <time>2021-08-30T22:18:00Z</time>
      </trkpt>
      <trkpt lat="45.18271" lon="0.83294">
        <ele>161</ele>
        <time>2021-08-30T22:18:11Z</time>
      </trkpt>
      <trkpt lat="45.18284" lon="0.83302">
        <ele>162</ele>
        <time>2021-08-30T22:18:15Z</time>
      </trkpt>
      <trkpt lat="45.18364" lon="0.83294">
        <ele>161</ele>
        <time>2021-08-30T22:18:33Z</time>
      </trkpt>
      <trkpt lat="45.18382" lon="0.8329">
        <ele>161</ele>
        <time>2021-08-30T22:18:38Z</time>
      </trkpt>
      <trkpt lat="45.1843" lon="0.83368">
        <ele>156</ele>
        <time>2021-08-30T22:18:55Z</time>
      </trkpt>
      <trkpt lat="45.18496" lon="0.83388">
        <ele>150</ele>
        <time>2021-08-30T22:19:10Z</time>
      </trkpt>
      <trkpt lat="45.18658" lon="0.83459">
        <ele>126</ele>
        <time>2021-08-30T22:19:50Z</time>
      </trkpt>
      <trkpt lat="45.18704" lon="0.83451">
        <ele>125</ele>
        <time>2021-08-30T22:20:01Z</time>
      </trkpt>
      <trkpt lat="45.18829" lon="0.83511">
        <ele>121</ele>
        <time>2021-08-30T22:20:32Z</time>
      </trkpt>
      <trkpt lat="45.18837" lon="0.83525">
        <ele>121</ele>
        <time>2021-08-30T22:20:35Z</time>
      </trkpt>
      <trkpt lat="45.18835" lon="0.83614">
        <ele>124</ele>
        <time>2021-08-30T22:20:49Z</time>
      </trkpt>
      <trkpt lat="45.18822" lon="0.83652">
        <ele>127</ele>
        <time>2021-08-30T22:20:56Z</time>
      </trkpt>
      <trkpt lat="45.18795" lon="0.83767">
        <ele>122</ele>
        <time>2021-08-30T22:21:16Z</time>
      </trkpt>
      <trkpt lat="45.18758" lon="0.83872">
        <ele>125</ele>
        <time>2021-08-30T22:21:35Z</time>
      </trkpt>
      <trkpt lat="45.18739" lon="0.83942">
        <ele>128</ele>
        <time>2021-08-30T22:21:48Z</time>
      </trkpt>
      <trkpt lat="45.18713" lon="0.84008">
        <ele>129</ele>
        <time>2021-08-30T22:22:00Z</time>
      </trkpt>
      <trkpt lat="45.18674" lon="0.84121">
        <ele>130</ele>
        <time>2021-08-30T22:22:21Z</time>
      </trkpt>
      <trkpt lat="45.18651" lon="0.84178">
        <ele>132</ele>
        <time>2021-08-30T22:22:32Z</time>
      </trkpt>
      <trkpt lat="45.18638" lon="0.84234">
        <ele>132</ele>
        <time>2021-08-30T22:22:41Z</time>
      </trkpt>
      <trkpt lat="45.18613" lon="0.84279">
        <ele>132</ele>
        <time>2021-08-30T22:22:51Z</time>
      </trkpt>
      <trkpt lat="45.18606" lon="0.84309">
        <ele>132</ele>
        <time>2021-08-30T22:22:56Z</time>
      </trkpt>
      <trkpt lat="45.18526" lon="0.84547">
        <ele>131</ele>
        <time>2021-08-30T22:23:40Z</time>
      </trkpt>
      <trkpt lat="45.18507" lon="0.84612">
        <ele>128</ele>
        <time>2021-08-30T22:23:51Z</time>
      </trkpt>
      <trkpt lat="45.18483" lon="0.84743">
        <ele>114</ele>
        <time>2021-08-30T22:24:13Z</time>
      </trkpt>
      <trkpt lat="45.18461" lon="0.84836">
        <ele>106</ele>
        <time>2021-08-30T22:24:30Z</time>
      </trkpt>
      <trkpt lat="45.18461" lon="0.84848">
        <ele>106</ele>
        <time>2021-08-30T22:24:31Z</time>
      </trkpt>
      <trkpt lat="45.18574" lon="0.84956">
        <ele>105</ele>
        <time>2021-08-30T22:25:03Z</time>
      </trkpt>
      <trkpt lat="45.19035" lon="0.8558">
        <ele>100</ele>
        <time>2021-08-30T22:27:32Z</time>
      </trkpt>
      <trkpt lat="45.19078" lon="0.85642">
        <ele>104</ele>
        <time>2021-08-30T22:27:46Z</time>
      </trkpt>
      <trkpt lat="45.19091" lon="0.85643">
        <ele>104</ele>
        <time>2021-08-30T22:27:49Z</time>
      </trkpt>
      <trkpt lat="45.19115" lon="0.85627">
        <ele>105</ele>
        <time>2021-08-30T22:27:56Z</time>
      </trkpt>
      <trkpt lat="45.19126" lon="0.85593">
        <ele>105</ele>
        <time>2021-08-30T22:28:02Z</time>
      </trkpt>
      <trkpt lat="45.19154" lon="0.85478">
        <ele>105</ele>
        <time>2021-08-30T22:28:22Z</time>
      </trkpt>
      <trkpt lat="45.19177" lon="0.85399">
        <ele>104</ele>
        <time>2021-08-30T22:28:36Z</time>
      </trkpt>
      <trkpt lat="45.19189" lon="0.85375">
        <ele>104</ele>
        <time>2021-08-30T22:28:41Z</time>
      </trkpt>
      <trkpt lat="45.19207" lon="0.85411">
        <ele>107</ele>
        <time>2021-08-30T22:28:48Z</time>
      </trkpt>
      <trkpt lat="45.19217" lon="0.85426">
        <ele>109</ele>
        <time>2021-08-30T22:28:51Z</time>
      </trkpt>
      <trkpt lat="45.1926" lon="0.85461">
        <ele>114</ele>
        <time>2021-08-30T22:29:03Z</time>
      </trkpt>
      <trkpt lat="45.19382" lon="0.85572">
        <ele>130</ele>
        <time>2021-08-30T22:29:37Z</time>
      </trkpt>
      <trkpt lat="45.19385" lon="0.85622">
        <ele>132</ele>
        <time>2021-08-30T22:29:45Z</time>
      </trkpt>
      <trkpt lat="45.19385" lon="0.85832">
        <ele>140</ele>
        <time>2021-08-30T22:30:20Z</time>
      </trkpt>
      <trkpt lat="45.19428" lon="0.85878">
        <ele>147</ele>
        <time>2021-08-30T22:30:32Z</time>
      </trkpt>
      <trkpt lat="45.19442" lon="0.85888">
        <ele>149</ele>
        <time>2021-08-30T22:30:36Z</time>
      </trkpt>
      <trkpt lat="45.19457" lon="0.85893">
        <ele>152</ele>
        <time>2021-08-30T22:30:39Z</time>
      </trkpt>
      <trkpt lat="45.19508" lon="0.85923">
        <ele>157</ele>
        <time>2021-08-30T22:30:52Z</time>
      </trkpt>
      <trkpt lat="45.19539" lon="0.85924">
        <ele>159</ele>
        <time>2021-08-30T22:31:00Z</time>
      </trkpt>
      <trkpt lat="45.19555" lon="0.85922">
        <ele>160</ele>
        <time>2021-08-30T22:31:03Z</time>
      </trkpt>
      <trkpt lat="45.1957" lon="0.85916">
        <ele>161</ele>
        <time>2021-08-30T22:31:07Z</time>
      </trkpt>
      <trkpt lat="45.19579" lon="0.85909">
        <ele>163</ele>
        <time>2021-08-30T22:31:09Z</time>
      </trkpt>
      <trkpt lat="45.19608" lon="0.85901">
        <ele>164</ele>
        <time>2021-08-30T22:31:16Z</time>
      </trkpt>
      <trkpt lat="45.19635" lon="0.85889">
        <ele>166</ele>
        <time>2021-08-30T22:31:23Z</time>
      </trkpt>
      <trkpt lat="45.19676" lon="0.85876">
        <ele>167</ele>
        <time>2021-08-30T22:31:33Z</time>
      </trkpt>
      <trkpt lat="45.19779" lon="0.8582">
        <ele>169</ele>
        <time>2021-08-30T22:31:58Z</time>
      </trkpt>
      <trkpt lat="45.19816" lon="0.85794">
        <ele>170</ele>
        <time>2021-08-30T22:32:08Z</time>
      </trkpt>
      <trkpt lat="45.19827" lon="0.85782">
        <ele>171</ele>
        <time>2021-08-30T22:32:11Z</time>
      </trkpt>
      <trkpt lat="45.19847" lon="0.85766">
        <ele>172</ele>
        <time>2021-08-30T22:32:17Z</time>
      </trkpt>
      <trkpt lat="45.1986" lon="0.8575">
        <ele>173</ele>
        <time>2021-08-30T22:32:21Z</time>
      </trkpt>
      <trkpt lat="45.19867" lon="0.85722">
        <ele>175</ele>
        <time>2021-08-30T22:32:26Z</time>
      </trkpt>
      <trkpt lat="45.19878" lon="0.85632">
        <ele>181</ele>
        <time>2021-08-30T22:32:41Z</time>
      </trkpt>
      <trkpt lat="45.1988" lon="0.8557">
        <ele>186</ele>
        <time>2021-08-30T22:32:51Z</time>
      </trkpt>
      <trkpt lat="45.19886" lon="0.85551">
        <ele>186</ele>
        <time>2021-08-30T22:32:54Z</time>
      </trkpt>
      <trkpt lat="45.19892" lon="0.85541">
        <ele>186</ele>
        <time>2021-08-30T22:32:56Z</time>
      </trkpt>
      <trkpt lat="45.19898" lon="0.8551">
        <ele>187</ele>
        <time>2021-08-30T22:33:02Z</time>
      </trkpt>
      <trkpt lat="45.19924" lon="0.85453">
        <ele>189</ele>
        <time>2021-08-30T22:33:13Z</time>
      </trkpt>
      <trkpt lat="45.19945" lon="0.85437">
        <ele>193</ele>
        <time>2021-08-30T22:33:18Z</time>
      </trkpt>
      <trkpt lat="45.19986" lon="0.8542">
        <ele>198</ele>
        <time>2021-08-30T22:33:28Z</time>
      </trkpt>
      <trkpt lat="45.20015" lon="0.85429">
        <ele>199</ele>
        <time>2021-08-30T22:33:35Z</time>
      </trkpt>
      <trkpt lat="45.20034" lon="0.85438">
        <ele>200</ele>
        <time>2021-08-30T22:33:40Z</time>
      </trkpt>
      <trkpt lat="45.20097" lon="0.85514">
        <ele>202</ele>
        <time>2021-08-30T22:33:59Z</time>
      </trkpt>
      <trkpt lat="45.20139" lon="0.85605">
        <ele>200</ele>
        <time>2021-08-30T22:34:17Z</time>
      </trkpt>
      <trkpt lat="45.2017" lon="0.85691">
        <ele>200</ele>
        <time>2021-08-30T22:34:33Z</time>
      </trkpt>
      <trkpt lat="45.20222" lon="0.85772">
        <ele>202</ele>
        <time>2021-08-30T22:34:51Z</time>
      </trkpt>
      <trkpt lat="45.20226" lon="0.85789">
        <ele>203</ele>
        <time>2021-08-30T22:34:54Z</time>
      </trkpt>
      <trkpt lat="45.20284" lon="0.85958">
        <ele>207</ele>
        <time>2021-08-30T22:35:25Z</time>
      </trkpt>
      <trkpt lat="45.20324" lon="0.86017">
        <ele>206</ele>
        <time>2021-08-30T22:35:39Z</time>
      </trkpt>
      <trkpt lat="45.20368" lon="0.86043">
        <ele>203</ele>
        <time>2021-08-30T22:35:50Z</time>
      </trkpt>
      <trkpt lat="45.20438" lon="0.86098">
        <ele>200</ele>
        <time>2021-08-30T22:36:08Z</time>
      </trkpt>
      <trkpt lat="45.20466" lon="0.861">
        <ele>198</ele>
        <time>2021-08-30T22:36:15Z</time>
      </trkpt>
      <trkpt lat="45.20545" lon="0.86061">
        <ele>195</ele>
        <time>2021-08-30T22:36:34Z</time>
      </trkpt>
      <trkpt lat="45.20559" lon="0.86063">
        <ele>195</ele>
        <time>2021-08-30T22:36:38Z</time>
      </trkpt>
      <trkpt lat="45.2057" lon="0.86069">
        <ele>195</ele>
        <time>2021-08-30T22:36:41Z</time>
      </trkpt>
      <trkpt lat="45.20577" lon="0.8608">
        <ele>196</ele>
        <time>2021-08-30T22:36:43Z</time>
      </trkpt>
      <trkpt lat="45.2058" lon="0.86091">
        <ele>196</ele>
        <time>2021-08-30T22:36:45Z</time>
      </trkpt>
      <trkpt lat="45.20506" lon="0.86263">
        <ele>196</ele>
        <time>2021-08-30T22:37:18Z</time>
      </trkpt>
      <trkpt lat="45.20424" lon="0.86401">
        <ele>197</ele>
        <time>2021-08-30T22:37:48Z</time>
      </trkpt>
      <trkpt lat="45.2042" lon="0.86599">
        <ele>192</ele>
        <time>2021-08-30T22:38:20Z</time>
      </trkpt>
      <trkpt lat="45.20427" lon="0.86614">
        <ele>189</ele>
        <time>2021-08-30T22:38:23Z</time>
      </trkpt>
      <trkpt lat="45.20417" lon="0.8662">
        <ele>189</ele>
        <time>2021-08-30T22:38:26Z</time>
      </trkpt>
      <trkpt lat="45.20439" lon="0.86634">
        <ele>186</ele>
        <time>2021-08-30T22:38:31Z</time>
      </trkpt>
      <trkpt lat="45.20456" lon="0.86636">
        <ele>185</ele>
        <time>2021-08-30T22:38:35Z</time>
      </trkpt>
      <trkpt lat="45.20474" lon="0.86634">
        <ele>185</ele>
        <time>2021-08-30T22:38:40Z</time>
      </trkpt>
      <trkpt lat="45.20533" lon="0.86639">
        <ele>183</ele>
        <time>2021-08-30T22:38:53Z</time>
      </trkpt>
      <trkpt lat="45.20559" lon="0.86654">
        <ele>182</ele>
        <time>2021-08-30T22:39:00Z</time>
      </trkpt>
      <trkpt lat="45.20605" lon="0.86674">
        <ele>180</ele>
        <time>2021-08-30T22:39:11Z</time>
      </trkpt>
      <trkpt lat="45.2066" lon="0.8671">
        <ele>176</ele>
        <time>2021-08-30T22:39:25Z</time>
      </trkpt>
      <trkpt lat="45.20719" lon="0.86769">
        <ele>167</ele>
        <time>2021-08-30T22:39:42Z</time>
      </trkpt>
      <trkpt lat="45.20818" lon="0.86853">
        <ele>162</ele>
        <time>2021-08-30T22:40:09Z</time>
      </trkpt>
      <trkpt lat="45.20906" lon="0.87005">
        <ele>144</ele>
        <time>2021-08-30T22:40:42Z</time>
      </trkpt>
      <trkpt lat="45.20934" lon="0.87088">
        <ele>136</ele>
        <time>2021-08-30T22:40:57Z</time>
      </trkpt>
      <trkpt lat="45.20948" lon="0.872">
        <ele>131</ele>
        <time>2021-08-30T22:41:15Z</time>
      </trkpt>
      <trkpt lat="45.20948" lon="0.87455">
        <ele>112</ele>
        <time>2021-08-30T22:41:57Z</time>
      </trkpt>
      <trkpt lat="45.2095" lon="0.87483">
        <ele>111</ele>
        <time>2021-08-30T22:42:02Z</time>
      </trkpt>
      <trkpt lat="45.20982" lon="0.87589">
        <ele>109</ele>
        <time>2021-08-30T22:42:21Z</time>
      </trkpt>
      <trkpt lat="45.20995" lon="0.87614">
        <ele>111</ele>
        <time>2021-08-30T22:42:26Z</time>
      </trkpt>
      <trkpt lat="45.21004" lon="0.87646">
        <ele>113</ele>
        <time>2021-08-30T22:42:32Z</time>
      </trkpt>
      <trkpt lat="45.21015" lon="0.87713">
        <ele>116</ele>
        <time>2021-08-30T22:42:43Z</time>
      </trkpt>
      <trkpt lat="45.21019" lon="0.87867">
        <ele>120</ele>
        <time>2021-08-30T22:43:08Z</time>
      </trkpt>
      <trkpt lat="45.21004" lon="0.88">
        <ele>120</ele>
        <time>2021-08-30T22:43:31Z</time>
      </trkpt>
      <trkpt lat="45.20986" lon="0.88069">
        <ele>119</ele>
        <time>2021-08-30T22:43:43Z</time>
      </trkpt>
      <trkpt lat="45.20993" lon="0.88111">
        <ele>121</ele>
        <time>2021-08-30T22:43:50Z</time>
      </trkpt>
      <trkpt lat="45.2102" lon="0.8818">
        <ele>131</ele>
        <time>2021-08-30T22:44:03Z</time>
      </trkpt>
      <trkpt lat="45.21102" lon="0.88345">
        <ele>155</ele>
        <time>2021-08-30T22:44:36Z</time>
      </trkpt>
      <trkpt lat="45.21153" lon="0.88381">
        <ele>163</ele>
        <time>2021-08-30T22:44:49Z</time>
      </trkpt>
      <trkpt lat="45.21161" lon="0.8838">
        <ele>164</ele>
        <time>2021-08-30T22:44:51Z</time>
      </trkpt>
      <trkpt lat="45.21189" lon="0.88369">
        <ele>165</ele>
        <time>2021-08-30T22:44:58Z</time>
      </trkpt>
      <trkpt lat="45.21262" lon="0.88337">
        <ele>171</ele>
        <time>2021-08-30T22:45:16Z</time>
      </trkpt>
      <trkpt lat="45.21279" lon="0.88321">
        <ele>173</ele>
        <time>2021-08-30T22:45:21Z</time>
      </trkpt>
      <trkpt lat="45.21307" lon="0.88247">
        <ele>177</ele>
        <time>2021-08-30T22:45:34Z</time>
      </trkpt>
      <trkpt lat="45.21317" lon="0.88215">
        <ele>179</ele>
        <time>2021-08-30T22:45:40Z</time>
      </trkpt>
      <trkpt lat="45.21305" lon="0.8817">
        <ele>181</ele>
        <time>2021-08-30T22:45:48Z</time>
      </trkpt>
      <trkpt lat="45.21224" lon="0.88209">
        <ele>179</ele>
        <time>2021-08-30T22:46:08Z</time>
      </trkpt>
      <trkpt lat="45.2122" lon="0.88201">
        <ele>179</ele>
        <time>2021-08-30T22:46:10Z</time>
      </trkpt>
      <trkpt lat="45.21223" lon="0.88105">
        <ele>180</ele>
        <time>2021-08-30T22:46:25Z</time>
      </trkpt>
      <trkpt lat="45.21219" lon="0.88044">
        <ele>179</ele>
        <time>2021-08-30T22:46:36Z</time>
      </trkpt>
      <trkpt lat="45.21255" lon="0.87909">
        <ele>186</ele>
        <time>2021-08-30T22:46:59Z</time>
      </trkpt>
      <trkpt lat="45.2133" lon="0.87688">
        <ele>197</ele>
        <time>2021-08-30T22:47:40Z</time>
      </trkpt>
      <trkpt lat="45.21341" lon="0.87701">
        <ele>197</ele>
        <time>2021-08-30T22:47:43Z</time>
      </trkpt>
      <trkpt lat="45.21411" lon="0.87843">
        <ele>192</ele>
        <time>2021-08-30T22:48:12Z</time>
      </trkpt>
      <trkpt lat="45.21445" lon="0.88027">
        <ele>188</ele>
        <time>2021-08-30T22:48:43Z</time>
      </trkpt>
      <trkpt lat="45.21465" lon="0.8805">
        <ele>187</ele>
        <time>2021-08-30T22:48:49Z</time>
      </trkpt>
      <trkpt lat="45.21558" lon="0.88134">
        <ele>180</ele>
        <time>2021-08-30T22:49:15Z</time>
      </trkpt>
      <trkpt lat="45.21585" lon="0.88173">
        <ele>179</ele>
        <time>2021-08-30T22:49:24Z</time>
      </trkpt>
      <trkpt lat="45.21667" lon="0.88259">
        <ele>180</ele>
        <time>2021-08-30T22:49:47Z</time>
      </trkpt>
      <trkpt lat="45.21723" lon="0.88335">
        <ele>188</ele>
        <time>2021-08-30T22:50:05Z</time>
      </trkpt>
      <trkpt lat="45.21763" lon="0.88405">
        <ele>190</ele>
        <time>2021-08-30T22:50:20Z</time>
      </trkpt>
      <trkpt lat="45.21822" lon="0.88449">
        <ele>188</ele>
        <time>2021-08-30T22:50:36Z</time>
      </trkpt>
      <trkpt lat="45.21913" lon="0.88606">
        <ele>191</ele>
        <time>2021-08-30T22:51:09Z</time>
      </trkpt>
      <trkpt lat="45.21976" lon="0.88668">
        <ele>195</ele>
        <time>2021-08-30T22:51:27Z</time>
      </trkpt>
      <trkpt lat="45.22039" lon="0.88711">
        <ele>198</ele>
        <time>2021-08-30T22:51:44Z</time>
      </trkpt>
      <trkpt lat="45.22063" lon="0.88721">
        <ele>199</ele>
        <time>2021-08-30T22:51:49Z</time>
      </trkpt>
      <trkpt lat="45.22093" lon="0.88724">
        <ele>200</ele>
        <time>2021-08-30T22:51:56Z</time>
      </trkpt>
      <trkpt lat="45.22107" lon="0.88722">
        <ele>200</ele>
        <time>2021-08-30T22:52:00Z</time>
      </trkpt>
      <trkpt lat="45.22262" lon="0.8876">
        <ele>199</ele>
        <time>2021-08-30T22:52:36Z</time>
      </trkpt>
      <trkpt lat="45.22315" lon="0.88656">
        <ele>200</ele>
        <time>2021-08-30T22:52:58Z</time>
      </trkpt>
      <trkpt lat="45.22311" lon="0.88503">
        <ele>194</ele>
        <time>2021-08-30T22:53:23Z</time>
      </trkpt>
      <trkpt lat="45.22317" lon="0.88317">
        <ele>190</ele>
        <time>2021-08-30T22:53:53Z</time>
      </trkpt>
      <trkpt lat="45.22374" lon="0.8809">
        <ele>181</ele>
        <time>2021-08-30T22:54:33Z</time>
      </trkpt>
      <trkpt lat="45.22386" lon="0.88033">
        <ele>179</ele>
        <time>2021-08-30T22:54:43Z</time>
      </trkpt>
      <trkpt lat="45.22395" lon="0.88014">
        <ele>178</ele>
        <time>2021-08-30T22:54:47Z</time>
      </trkpt>
      <trkpt lat="45.22405" lon="0.88009">
        <ele>178</ele>
        <time>2021-08-30T22:54:49Z</time>
      </trkpt>
      <trkpt lat="45.22419" lon="0.88006">
        <ele>178</ele>
        <time>2021-08-30T22:54:52Z</time>
      </trkpt>
      <trkpt lat="45.22439" lon="0.87981">
        <ele>175</ele>
        <time>2021-08-30T22:54:59Z</time>
      </trkpt>
      <trkpt lat="45.22471" lon="0.87927">
        <ele>172</ele>
        <time>2021-08-30T22:55:10Z</time>
      </trkpt>
      <trkpt lat="45.22499" lon="0.879">
        <ele>169</ele>
        <time>2021-08-30T22:55:18Z</time>
      </trkpt>
      <trkpt lat="45.2252" lon="0.87892">
        <ele>169</ele>
        <time>2021-08-30T22:55:23Z</time>
      </trkpt>
      <trkpt lat="45.22537" lon="0.87871">
        <ele>169</ele>
        <time>2021-08-30T22:55:28Z</time>
      </trkpt>
      <trkpt lat="45.2256" lon="0.87828">
        <ele>168</ele>
        <time>2021-08-30T22:55:37Z</time>
      </trkpt>
      <trkpt lat="45.2258" lon="0.8778">
        <ele>168</ele>
        <time>2021-08-30T22:55:46Z</time>
      </trkpt>
      <trkpt lat="45.22585" lon="0.87764">
        <ele>168</ele>
        <time>2021-08-30T22:55:49Z</time>
      </trkpt>
      <trkpt lat="45.22587" lon="0.87718">
        <ele>165</ele>
        <time>2021-08-30T22:55:57Z</time>
      </trkpt>
      <trkpt lat="45.22594" lon="0.87657">
        <ele>161</ele>
        <time>2021-08-30T22:56:07Z</time>
      </trkpt>
      <trkpt lat="45.22589" lon="0.87598">
        <ele>157</ele>
        <time>2021-08-30T22:56:17Z</time>
      </trkpt>
      <trkpt lat="45.22571" lon="0.87512">
        <ele>150</ele>
        <time>2021-08-30T22:56:32Z</time>
      </trkpt>
      <trkpt lat="45.22568" lon="0.87505">
        <ele>149</ele>
        <time>2021-08-30T22:56:33Z</time>
      </trkpt>
      <trkpt lat="45.22543" lon="0.87476">
        <ele>142</ele>
        <time>2021-08-30T22:56:40Z</time>
      </trkpt>
      <trkpt lat="45.22581" lon="0.87397">
        <ele>140</ele>
        <time>2021-08-30T22:56:56Z</time>
      </trkpt>
      <trkpt lat="45.22633" lon="0.87351">
        <ele>137</ele>
        <time>2021-08-30T22:57:11Z</time>
      </trkpt>
      <trkpt lat="45.22624" lon="0.87264">
        <ele>124</ele>
        <time>2021-08-30T22:57:25Z</time>
      </trkpt>
      <trkpt lat="45.22585" lon="0.87191">
        <ele>120</ele>
        <time>2021-08-30T22:57:40Z</time>
      </trkpt>
      <trkpt lat="45.22603" lon="0.871">
        <ele>118</ele>
        <time>2021-08-30T22:57:56Z</time>
      </trkpt>
      <trkpt lat="45.22569" lon="0.86858">
        <ele>111</ele>
        <time>2021-08-30T22:58:36Z</time>
      </trkpt>
      <trkpt lat="45.22471" lon="0.86716">
        <ele>109</ele>
        <time>2021-08-30T22:59:09Z</time>
      </trkpt>
      <trkpt lat="45.22402" lon="0.86675">
        <ele>107</ele>
        <time>2021-08-30T22:59:26Z</time>
      </trkpt>
      <trkpt lat="45.22367" lon="0.86619">
        <ele>103</ele>
        <time>2021-08-30T22:59:39Z</time>
      </trkpt>
      <trkpt lat="45.22327" lon="0.86474">
        <ele>103</ele>
        <time>2021-08-30T23:00:04Z</time>
      </trkpt>
      <trkpt lat="45.22326" lon="0.86438">
        <ele>105</ele>
        <time>2021-08-30T23:00:10Z</time>
      </trkpt>
      <trkpt lat="45.22342" lon="0.86373">
        <ele>107</ele>
        <time>2021-08-30T23:00:22Z</time>
      </trkpt>
      <trkpt lat="45.22357" lon="0.86329">
        <ele>107</ele>
        <time>2021-08-30T23:00:30Z</time>
      </trkpt>
      <trkpt lat="45.22362" lon="0.86347">
        <ele>107</ele>
        <time>2021-08-30T23:00:33Z</time>
      </trkpt>
      <trkpt lat="45.22363" lon="0.86331">
        <ele>107</ele>
        <time>2021-08-30T23:00:35Z</time>
      </trkpt>
      <trkpt lat="45.22361" lon="0.86319">
        <ele>107</ele>
        <time>2021-08-30T23:00:37Z</time>
      </trkpt>
      <trkpt lat="45.22353" lon="0.86365">
        <ele>107</ele>
        <time>2021-08-30T23:00:45Z</time>
      </trkpt>
      <trkpt lat="45.22399" lon="0.86356">
        <ele>107</ele>
        <time>2021-08-30T23:00:56Z</time>
      </trkpt>
      <trkpt lat="45.22407" lon="0.86357">
        <ele>107</ele>
        <time>2021-08-30T23:00:58Z</time>
      </trkpt>
      <trkpt lat="45.22421" lon="0.86316">
        <ele>107</ele>
        <time>2021-08-30T23:01:05Z</time>
      </trkpt>
      <trkpt lat="45.22477" lon="0.86348">
        <ele>106</ele>
        <time>2021-08-30T23:01:20Z</time>
      </trkpt>
      <trkpt lat="45.22497" lon="0.86354">
        <ele>106</ele>
        <time>2021-08-30T23:01:24Z</time>
      </trkpt>
      <trkpt lat="45.22532" lon="0.86351">
        <ele>107</ele>
        <time>2021-08-30T23:01:32Z</time>
      </trkpt>
      <trkpt lat="45.22573" lon="0.86297">
        <ele>113</ele>
        <time>2021-08-30T23:01:46Z</time>
      </trkpt>
      <trkpt lat="45.22646" lon="0.8625">
        <ele>120</ele>
        <time>2021-08-30T23:02:04Z</time>
      </trkpt>
      <trkpt lat="45.2266" lon="0.86224">
        <ele>124</ele>
        <time>2021-08-30T23:02:10Z</time>
      </trkpt>
      <trkpt lat="45.22665" lon="0.86205">
        <ele>127</ele>
        <time>2021-08-30T23:02:13Z</time>
      </trkpt>
      <trkpt lat="45.22682" lon="0.86168">
        <ele>132</ele>
        <time>2021-08-30T23:02:20Z</time>
      </trkpt>
      <trkpt lat="45.22685" lon="0.86154">
        <ele>133</ele>
        <time>2021-08-30T23:02:23Z</time>
      </trkpt>
      <trkpt lat="45.22703" lon="0.86109">
        <ele>135</ele>
        <time>2021-08-30T23:02:31Z</time>
      </trkpt>
      <trkpt lat="45.22707" lon="0.86023">
        <ele>137</ele>
        <time>2021-08-30T23:02:45Z</time>
      </trkpt>
      <trkpt lat="45.2271" lon="0.86007">
        <ele>137</ele>
        <time>2021-08-30T23:02:48Z</time>
      </trkpt>
      <trkpt lat="45.22722" lon="0.85982">
        <ele>138</ele>
        <time>2021-08-30T23:02:53Z</time>
      </trkpt>
      <trkpt lat="45.22745" lon="0.85951">
        <ele>139</ele>
        <time>2021-08-30T23:03:00Z</time>
      </trkpt>
      <trkpt lat="45.22757" lon="0.85912">
        <ele>139</ele>
        <time>2021-08-30T23:03:07Z</time>
      </trkpt>
      <trkpt lat="45.22788" lon="0.85836">
        <ele>138</ele>
        <time>2021-08-30T23:03:22Z</time>
      </trkpt>
      <trkpt lat="45.22836" lon="0.85694">
        <ele>138</ele>
        <time>2021-08-30T23:03:48Z</time>
      </trkpt>
      <trkpt lat="45.22828" lon="0.8568">
        <ele>137</ele>
        <time>2021-08-30T23:03:51Z</time>
      </trkpt>
      <trkpt lat="45.22835" lon="0.85611">
        <ele>138</ele>
        <time>2021-08-30T23:04:02Z</time>
      </trkpt>
      <trkpt lat="45.22828" lon="0.8559">
        <ele>138</ele>
        <time>2021-08-30T23:04:06Z</time>
      </trkpt>
      <trkpt lat="45.22823" lon="0.85556">
        <ele>137</ele>
        <time>2021-08-30T23:04:12Z</time>
      </trkpt>
      <trkpt lat="45.22828" lon="0.85526">
        <ele>136</ele>
        <time>2021-08-30T23:04:17Z</time>
      </trkpt>
      <trkpt lat="45.22823" lon="0.8551">
        <ele>134</ele>
        <time>2021-08-30T23:04:20Z</time>
      </trkpt>
      <trkpt lat="45.22822" lon="0.85486">
        <ele>133</ele>
        <time>2021-08-30T23:04:24Z</time>
      </trkpt>
      <trkpt lat="45.22804" lon="0.85443">
        <ele>129</ele>
        <time>2021-08-30T23:04:32Z</time>
      </trkpt>
      <trkpt lat="45.22784" lon="0.85455">
        <ele>127</ele>
        <time>2021-08-30T23:04:37Z</time>
      </trkpt>
      <trkpt lat="45.22774" lon="0.8545">
        <ele>126</ele>
        <time>2021-08-30T23:04:39Z</time>
      </trkpt>
      <trkpt lat="45.22754" lon="0.85378">
        <ele>120</ele>
        <time>2021-08-30T23:04:52Z</time>
      </trkpt>
      <trkpt lat="45.22744" lon="0.85353">
        <ele>118</ele>
        <time>2021-08-30T23:04:57Z</time>
      </trkpt>
      <trkpt lat="45.22737" lon="0.85342">
        <ele>117</ele>
        <time>2021-08-30T23:04:59Z</time>
      </trkpt>
      <trkpt lat="45.22703" lon="0.85313">
        <ele>114</ele>
        <time>2021-08-30T23:05:09Z</time>
      </trkpt>
      <trkpt lat="45.22688" lon="0.85297">
        <ele>113</ele>
        <time>2021-08-30T23:05:13Z</time>
      </trkpt>
      <trkpt lat="45.22595" lon="0.85163">
        <ele>111</ele>
        <time>2021-08-30T23:05:44Z</time>
      </trkpt>
      <trkpt lat="45.22528" lon="0.85048">
        <ele>108</ele>
        <time>2021-08-30T23:06:08Z</time>
      </trkpt>
      <trkpt lat="45.2247" lon="0.84924">
        <ele>107</ele>
        <time>2021-08-30T23:06:33Z</time>
      </trkpt>
      <trkpt lat="45.22291" lon="0.84654">
        <ele>105</ele>
        <time>2021-08-30T23:07:34Z</time>
      </trkpt>
      <trkpt lat="45.22238" lon="0.8457">
        <ele>106</ele>
        <time>2021-08-30T23:07:52Z</time>
      </trkpt>
      <trkpt lat="45.22158" lon="0.84371">
        <ele>105</ele>
        <time>2021-08-30T23:08:30Z</time>
      </trkpt>
      <trkpt lat="45.22149" lon="0.84407">
        <ele>105</ele>
        <time>2021-08-30T23:08:36Z</time>
      </trkpt>
      <trkpt lat="45.22158" lon="0.84534">
        <ele>103</ele>
        <time>2021-08-30T23:08:57Z</time>
      </trkpt>
      <trkpt lat="45.2197" lon="0.84523">
        <ele>100</ele>
        <time>2021-08-30T23:09:41Z</time>
      </trkpt>
      <trkpt lat="45.21961" lon="0.84484">
        <ele>100</ele>
        <time>2021-08-30T23:09:48Z</time>
      </trkpt>
      <trkpt lat="45.21956" lon="0.8448">
        <ele>100</ele>
        <time>2021-08-30T23:09:49Z</time>
      </trkpt>
      <trkpt lat="45.21922" lon="0.84486">
        <ele>100</ele>
        <time>2021-08-30T23:09:57Z</time>
      </trkpt>
      <trkpt lat="45.21926" lon="0.84323">
        <ele>102</ele>
        <time>2021-08-30T23:10:24Z</time>
      </trkpt>
      <trkpt lat="45.21933" lon="0.84295">
        <ele>104</ele>
        <time>2021-08-30T23:10:29Z</time>
      </trkpt>
      <trkpt lat="45.2195" lon="0.84273">
        <ele>105</ele>
        <time>2021-08-30T23:10:35Z</time>
      </trkpt>
      <trkpt lat="45.21973" lon="0.84229">
        <ele>108</ele>
        <time>2021-08-30T23:10:44Z</time>
      </trkpt>
      <trkpt lat="45.22" lon="0.84164">
        <ele>107</ele>
        <time>2021-08-30T23:10:56Z</time>
      </trkpt>
      <trkpt lat="45.22057" lon="0.84039">
        <ele>104</ele>
        <time>2021-08-30T23:11:21Z</time>
      </trkpt>
      <trkpt lat="45.22063" lon="0.83997">
        <ele>102</ele>
        <time>2021-08-30T23:11:28Z</time>
      </trkpt>
      <trkpt lat="45.22053" lon="0.83936">
        <ele>102</ele>
        <time>2021-08-30T23:11:38Z</time>
      </trkpt>
      <trkpt lat="45.22168" lon="0.83814">
        <ele>108</ele>
        <time>2021-08-30T23:12:11Z</time>
      </trkpt>
      <trkpt lat="45.22173" lon="0.83803">
        <ele>109</ele>
        <time>2021-08-30T23:12:14Z</time>
      </trkpt>
      <trkpt lat="45.22176" lon="0.83763">
        <ele>113</ele>
        <time>2021-08-30T23:12:20Z</time>
      </trkpt>
      <trkpt lat="45.22196" lon="0.83674">
        <ele>118</ele>
        <time>2021-08-30T23:12:36Z</time>
      </trkpt>
      <trkpt lat="45.22172" lon="0.8356">
        <ele>133</ele>
        <time>2021-08-30T23:12:55Z</time>
      </trkpt>
      <trkpt lat="45.22155" lon="0.83444">
        <ele>145</ele>
        <time>2021-08-30T23:13:15Z</time>
      </trkpt>
      <trkpt lat="45.22147" lon="0.83313">
        <ele>154</ele>
        <time>2021-08-30T23:13:36Z</time>
      </trkpt>
      <trkpt lat="45.22149" lon="0.83257">
        <ele>155</ele>
        <time>2021-08-30T23:13:45Z</time>
      </trkpt>
      <trkpt lat="45.22145" lon="0.83229">
        <ele>156</ele>
        <time>2021-08-30T23:13:50Z</time>
      </trkpt>
      <trkpt lat="45.22146" lon="0.83212">
        <ele>155</ele>
        <time>2021-08-30T23:13:53Z</time>
      </trkpt>
      <trkpt lat="45.2213" lon="0.83093">
        <ele>161</ele>
        <time>2021-08-30T23:14:13Z</time>
      </trkpt>
      <trkpt lat="45.2214" lon="0.83014">
        <ele>162</ele>
        <time>2021-08-30T23:14:26Z</time>
      </trkpt>
      <trkpt lat="45.22157" lon="0.82837">
        <ele>170</ele>
        <time>2021-08-30T23:14:55Z</time>
      </trkpt>
      <trkpt lat="45.22158" lon="0.8281">
        <ele>171</ele>
        <time>2021-08-30T23:15:00Z</time>
      </trkpt>
      <trkpt lat="45.22156" lon="0.82793">
        <ele>173</ele>
        <time>2021-08-30T23:15:03Z</time>
      </trkpt>
      <trkpt lat="45.22158" lon="0.82777">
        <ele>173</ele>
        <time>2021-08-30T23:15:05Z</time>
      </trkpt>
      <trkpt lat="45.22154" lon="0.82752">
        <ele>176</ele>
        <time>2021-08-30T23:15:10Z</time>
      </trkpt>
      <trkpt lat="45.22156" lon="0.82731">
        <ele>176</ele>
        <time>2021-08-30T23:15:13Z</time>
      </trkpt>
      <trkpt lat="45.22146" lon="0.82651">
        <ele>183</ele>
        <time>2021-08-30T23:15:26Z</time>
      </trkpt>
      <trkpt lat="45.22158" lon="0.82559">
        <ele>185</ele>
        <time>2021-08-30T23:15:42Z</time>
      </trkpt>
      <trkpt lat="45.22156" lon="0.82413">
        <ele>191</ele>
        <time>2021-08-30T23:16:06Z</time>
      </trkpt>
      <trkpt lat="45.22158" lon="0.8237">
        <ele>191</ele>
        <time>2021-08-30T23:16:13Z</time>
      </trkpt>
      <trkpt lat="45.22171" lon="0.82278">
        <ele>190</ele>
        <time>2021-08-30T23:16:28Z</time>
      </trkpt>
      <trkpt lat="45.22184" lon="0.82137">
        <ele>192</ele>
        <time>2021-08-30T23:16:52Z</time>
      </trkpt>
      <trkpt lat="45.22218" lon="0.82013">
        <ele>193</ele>
        <time>2021-08-30T23:17:14Z</time>
      </trkpt>
      <trkpt lat="45.22235" lon="0.81935">
        <ele>194</ele>
        <time>2021-08-30T23:17:27Z</time>
      </trkpt>
      <trkpt lat="45.22299" lon="0.81803">
        <ele>196</ele>
        <time>2021-08-30T23:17:53Z</time>
      </trkpt>
      <trkpt lat="45.22307" lon="0.81779">
        <ele>196</ele>
        <time>2021-08-30T23:17:58Z</time>
      </trkpt>
      <trkpt lat="45.22326" lon="0.8175">
        <ele>197</ele>
        <time>2021-08-30T23:18:04Z</time>
      </trkpt>
      <trkpt lat="45.22351" lon="0.81698">
        <ele>196</ele>
        <time>2021-08-30T23:18:15Z</time>
      </trkpt>
      <trkpt lat="45.22456" lon="0.81571">
        <ele>201</ele>
        <time>2021-08-30T23:18:47Z</time>
      </trkpt>
      <trkpt lat="45.22511" lon="0.81514">
        <ele>204</ele>
        <time>2021-08-30T23:19:03Z</time>
      </trkpt>
      <trkpt lat="45.22559" lon="0.81486">
        <ele>205</ele>
        <time>2021-08-30T23:19:15Z</time>
      </trkpt>
      <trkpt lat="45.22579" lon="0.81465">
        <ele>204</ele>
        <time>2021-08-30T23:19:21Z</time>
      </trkpt>
      <trkpt lat="45.22629" lon="0.81458">
        <ele>204</ele>
        <time>2021-08-30T23:19:32Z</time>
      </trkpt>
      <trkpt lat="45.22712" lon="0.81428">
        <ele>207</ele>
        <time>2021-08-30T23:19:52Z</time>
      </trkpt>
      <trkpt lat="45.22774" lon="0.81416">
        <ele>210</ele>
        <time>2021-08-30T23:20:07Z</time>
      </trkpt>
      <trkpt lat="45.22833" lon="0.81414">
        <ele>211</ele>
        <time>2021-08-30T23:20:21Z</time>
      </trkpt>
      <trkpt lat="45.22874" lon="0.8142">
        <ele>208</ele>
        <time>2021-08-30T23:20:31Z</time>
      </trkpt>
      <trkpt lat="45.23002" lon="0.8145">
        <ele>201</ele>
        <time>2021-08-30T23:21:01Z</time>
      </trkpt>
      <trkpt lat="45.23099" lon="0.81426">
        <ele>199</ele>
        <time>2021-08-30T23:21:24Z</time>
      </trkpt>
      <trkpt lat="45.23192" lon="0.81393">
        <ele>203</ele>
        <time>2021-08-30T23:21:46Z</time>
      </trkpt>
      <trkpt lat="45.23398" lon="0.81195">
        <ele>208</ele>
        <time>2021-08-30T23:22:44Z</time>
      </trkpt>
      <trkpt lat="45.2342" lon="0.81164">
        <ele>209</ele>
        <time>2021-08-30T23:22:52Z</time>
      </trkpt>
      <trkpt lat="45.23422" lon="0.81155">
        <ele>209</ele>
        <time>2021-08-30T23:22:53Z</time>
      </trkpt>
      <trkpt lat="45.23411" lon="0.8104">
        <ele>207</ele>
        <time>2021-08-30T23:23:12Z</time>
      </trkpt>
      <trkpt lat="45.23384" lon="0.80993">
        <ele>204</ele>
        <time>2021-08-30T23:23:22Z</time>
      </trkpt>
      <trkpt lat="45.23358" lon="0.80955">
        <ele>203</ele>
        <time>2021-08-30T23:23:31Z</time>
      </trkpt>
      <trkpt lat="45.23351" lon="0.80938">
        <ele>204</ele>
        <time>2021-08-30T23:23:34Z</time>
      </trkpt>
      <trkpt lat="45.23332" lon="0.80788">
        <ele>206</ele>
        <time>2021-08-30T23:23:59Z</time>
      </trkpt>
      <trkpt lat="45.23376" lon="0.8058">
        <ele>199</ele>
        <time>2021-08-30T23:24:35Z</time>
      </trkpt>
      <trkpt lat="45.23386" lon="0.80506">
        <ele>198</ele>
        <time>2021-08-30T23:24:47Z</time>
      </trkpt>
      <trkpt lat="45.23247" lon="0.80428">
        <ele>202</ele>
        <time>2021-08-30T23:25:22Z</time>
      </trkpt>
      <trkpt lat="45.23215" lon="0.80407">
        <ele>198</ele>
        <time>2021-08-30T23:25:30Z</time>
      </trkpt>
      <trkpt lat="45.23188" lon="0.80434">
        <ele>194</ele>
        <time>2021-08-30T23:25:38Z</time>
      </trkpt>
      <trkpt lat="45.23112" lon="0.80358">
        <ele>191</ele>
        <time>2021-08-30T23:26:00Z</time>
      </trkpt>
      <trkpt lat="45.23083" lon="0.80361">
        <ele>191</ele>
        <time>2021-08-30T23:26:07Z</time>
      </trkpt>
      <trkpt lat="45.23065" lon="0.80393">
        <ele>189</ele>
        <time>2021-08-30T23:26:13Z</time>
      </trkpt>
      <trkpt lat="45.23019" lon="0.80452">
        <ele>186</ele>
        <time>2021-08-30T23:26:28Z</time>
      </trkpt>
      <trkpt lat="45.22927" lon="0.80482">
        <ele>188</ele>
        <time>2021-08-30T23:26:50Z</time>
      </trkpt>
      <trkpt lat="45.22891" lon="0.80486">
        <ele>189</ele>
        <time>2021-08-30T23:26:58Z</time>
      </trkpt>
      <trkpt lat="45.22865" lon="0.80501">
        <ele>190</ele>
        <time>2021-08-30T23:27:05Z</time>
      </trkpt>
      <trkpt lat="45.22772" lon="0.80646">
        <ele>182</ele>
        <time>2021-08-30T23:27:37Z</time>
      </trkpt>
      <trkpt lat="45.22722" lon="0.80675">
        <ele>176</ele>
        <time>2021-08-30T23:27:50Z</time>
      </trkpt>
      <trkpt lat="45.22655" lon="0.80697">
        <ele>167</ele>
        <time>2021-08-30T23:28:06Z</time>
      </trkpt>
      <trkpt lat="45.22488" lon="0.80698">
        <ele>156</ele>
        <time>2021-08-30T23:28:45Z</time>
      </trkpt>
      <trkpt lat="45.22438" lon="0.80674">
        <ele>150</ele>
        <time>2021-08-30T23:28:57Z</time>
      </trkpt>
      <trkpt lat="45.22344" lon="0.80651">
        <ele>140</ele>
        <time>2021-08-30T23:29:19Z</time>
      </trkpt>
      <trkpt lat="45.22345" lon="0.80646">
        <ele>140</ele>
        <time>2021-08-30T23:29:20Z</time>
      </trkpt>
      <trkpt lat="45.22374" lon="0.80617">
        <ele>144</ele>
        <time>2021-08-30T23:29:29Z</time>
      </trkpt>
      <trkpt lat="45.22413" lon="0.80596">
        <ele>146</ele>
        <time>2021-08-30T23:29:38Z</time>
      </trkpt>
      <trkpt lat="45.22497" lon="0.80593">
        <ele>153</ele>
        <time>2021-08-30T23:29:58Z</time>
      </trkpt>
      <trkpt lat="45.22571" lon="0.80553">
        <ele>156</ele>
        <time>2021-08-30T23:30:16Z</time>
      </trkpt>
      <trkpt lat="45.2262" lon="0.8044">
        <ele>159</ele>
        <time>2021-08-30T23:30:38Z</time>
      </trkpt>
      <trkpt lat="45.22652" lon="0.80354">
        <ele>159</ele>
        <time>2021-08-30T23:30:54Z</time>
      </trkpt>
      <trkpt lat="45.22723" lon="0.80212">
        <ele>162</ele>
        <time>2021-08-30T23:31:23Z</time>
      </trkpt>
      <trkpt lat="45.22745" lon="0.80144">
        <ele>163</ele>
        <time>2021-08-30T23:31:35Z</time>
      </trkpt>
      <trkpt lat="45.22759" lon="0.80085">
        <ele>162</ele>
        <time>2021-08-30T23:31:45Z</time>
      </trkpt>
      <trkpt lat="45.22773" lon="0.79989">
        <ele>167</ele>
        <time>2021-08-30T23:32:02Z</time>
      </trkpt>
      <trkpt lat="45.2276" lon="0.79934">
        <ele>167</ele>
        <time>2021-08-30T23:32:11Z</time>
      </trkpt>
      <trkpt lat="45.22736" lon="0.79886">
        <ele>170</ele>
        <time>2021-08-30T23:32:21Z</time>
      </trkpt>
      <trkpt lat="45.22706" lon="0.7984">
        <ele>174</ele>
        <time>2021-08-30T23:32:31Z</time>
      </trkpt>
      <trkpt lat="45.2268" lon="0.79789">
        <ele>178</ele>
        <time>2021-08-30T23:32:41Z</time>
      </trkpt>
      <trkpt lat="45.22677" lon="0.79755">
        <ele>181</ele>
        <time>2021-08-30T23:32:47Z</time>
      </trkpt>
      <trkpt lat="45.22664" lon="0.79701">
        <ele>182</ele>
        <time>2021-08-30T23:32:56Z</time>
      </trkpt>
      <trkpt lat="45.22664" lon="0.79686">
        <ele>182</ele>
        <time>2021-08-30T23:32:59Z</time>
      </trkpt>
      <trkpt lat="45.22667" lon="0.79675">
        <ele>182</ele>
        <time>2021-08-30T23:33:01Z</time>
      </trkpt>
      <trkpt lat="45.22664" lon="0.79636">
        <ele>183</ele>
        <time>2021-08-30T23:33:07Z</time>
      </trkpt>
      <trkpt lat="45.22659" lon="0.79606">
        <ele>183</ele>
        <time>2021-08-30T23:33:12Z</time>
      </trkpt>
      <trkpt lat="45.22664" lon="0.7952">
        <ele>185</ele>
        <time>2021-08-30T23:33:27Z</time>
      </trkpt>
      <trkpt lat="45.22658" lon="0.79495">
        <ele>186</ele>
        <time>2021-08-30T23:33:31Z</time>
      </trkpt>
      <trkpt lat="45.22593" lon="0.7955">
        <ele>191</ele>
        <time>2021-08-30T23:33:49Z</time>
      </trkpt>
      <trkpt lat="45.22551" lon="0.79577">
        <ele>195</ele>
        <time>2021-08-30T23:33:59Z</time>
      </trkpt>
      <trkpt lat="45.22497" lon="0.79629">
        <ele>200</ele>
        <time>2021-08-30T23:34:15Z</time>
      </trkpt>
      <trkpt lat="45.22484" lon="0.79652">
        <ele>199</ele>
        <time>2021-08-30T23:34:19Z</time>
      </trkpt>
      <trkpt lat="45.22447" lon="0.79634">
        <ele>198</ele>
        <time>2021-08-30T23:34:29Z</time>
      </trkpt>
      <trkpt lat="45.22448" lon="0.79623">
        <ele>198</ele>
        <time>2021-08-30T23:34:30Z</time>
      </trkpt>
      <trkpt lat="45.22493" lon="0.79489">
        <ele>200</ele>
        <time>2021-08-30T23:34:55Z</time>
      </trkpt>
      <trkpt lat="45.22499" lon="0.79455">
        <ele>198</ele>
        <time>2021-08-30T23:35:01Z</time>
      </trkpt>
      <trkpt lat="45.22456" lon="0.79271">
        <ele>196</ele>
        <time>2021-08-30T23:35:32Z</time>
      </trkpt>
      <trkpt lat="45.22405" lon="0.79178">
        <ele>192</ele>
        <time>2021-08-30T23:35:52Z</time>
      </trkpt>
      <trkpt lat="45.2238" lon="0.79122">
        <ele>191</ele>
        <time>2021-08-30T23:36:03Z</time>
      </trkpt>
      <trkpt lat="45.22362" lon="0.79089">
        <ele>192</ele>
        <time>2021-08-30T23:36:10Z</time>
      </trkpt>
      <trkpt lat="45.22349" lon="0.79071">
        <ele>193</ele>
        <time>2021-08-30T23:36:14Z</time>
      </trkpt>
      <trkpt lat="45.22312" lon="0.79037">
        <ele>196</ele>
        <time>2021-08-30T23:36:24Z</time>
      </trkpt>
      <trkpt lat="45.22277" lon="0.7897">
        <ele>201</ele>
        <time>2021-08-30T23:36:38Z</time>
      </trkpt>
      <trkpt lat="45.22248" lon="0.78926">
        <ele>202</ele>
        <time>2021-08-30T23:36:48Z</time>
      </trkpt>
      <trkpt lat="45.22229" lon="0.78907">
        <ele>204</ele>
        <time>2021-08-30T23:36:53Z</time>
      </trkpt>
      <trkpt lat="45.22144" lon="0.78843">
        <ele>209</ele>
        <time>2021-08-30T23:37:16Z</time>
      </trkpt>
      <trkpt lat="45.22103" lon="0.78806">
        <ele>212</ele>
        <time>2021-08-30T23:37:27Z</time>
      </trkpt>
      <trkpt lat="45.22095" lon="0.78804">
        <ele>212</ele>
        <time>2021-08-30T23:37:29Z</time>
      </trkpt>
      <trkpt lat="45.22037" lon="0.78818">
        <ele>212</ele>
        <time>2021-08-30T23:37:43Z</time>
      </trkpt>
      <trkpt lat="45.22022" lon="0.78743">
        <ele>221</ele>
        <time>2021-08-30T23:37:55Z</time>
      </trkpt>
      <trkpt lat="45.22093" lon="0.78679">
        <ele>224</ele>
        <time>2021-08-30T23:38:15Z</time>
      </trkpt>
      <trkpt lat="45.22124" lon="0.78645">
        <ele>226</ele>
        <time>2021-08-30T23:38:24Z</time>
      </trkpt>
      <trkpt lat="45.22133" lon="0.7863">
        <ele>226</ele>
        <time>2021-08-30T23:38:28Z</time>
      </trkpt>
      <trkpt lat="45.22147" lon="0.78621">
        <ele>227</ele>
        <time>2021-08-30T23:38:31Z</time>
      </trkpt>
      <trkpt lat="45.22143" lon="0.786">
        <ele>226</ele>
        <time>2021-08-30T23:38:35Z</time>
      </trkpt>
      <trkpt lat="45.22135" lon="0.78586">
        <ele>226</ele>
        <time>2021-08-30T23:38:38Z</time>
      </trkpt>
      <trkpt lat="45.2212" lon="0.78549">
        <ele>223</ele>
        <time>2021-08-30T23:38:45Z</time>
      </trkpt>
      <trkpt lat="45.2213" lon="0.78532">
        <ele>222</ele>
        <time>2021-08-30T23:38:48Z</time>
      </trkpt>
      <trkpt lat="45.22134" lon="0.7847">
        <ele>216</ele>
        <time>2021-08-30T23:38:59Z</time>
      </trkpt>
      <trkpt lat="45.22139" lon="0.78302">
        <ele>201</ele>
        <time>2021-08-30T23:39:26Z</time>
      </trkpt>
      <trkpt lat="45.22128" lon="0.78221">
        <ele>194</ele>
        <time>2021-08-30T23:39:40Z</time>
      </trkpt>
      <trkpt lat="45.22126" lon="0.78227">
        <ele>195</ele>
        <time>2021-08-30T23:39:41Z</time>
      </trkpt>
      <trkpt lat="45.22082" lon="0.7821">
        <ele>196</ele>
        <time>2021-08-30T23:39:52Z</time>
      </trkpt>
      <trkpt lat="45.22072" lon="0.78188">
        <ele>193</ele>
        <time>2021-08-30T23:39:56Z</time>
      </trkpt>
      <trkpt lat="45.22023" lon="0.78173">
        <ele>188</ele>
        <time>2021-08-30T23:40:08Z</time>
      </trkpt>
      <trkpt lat="45.22002" lon="0.78111">
        <ele>183</ele>
        <time>2021-08-30T23:40:19Z</time>
      </trkpt>
      <trkpt lat="45.21986" lon="0.78074">
        <ele>181</ele>
        <time>2021-08-30T23:40:26Z</time>
      </trkpt>
      <trkpt lat="45.21976" lon="0.78059">
        <ele>180</ele>
        <time>2021-08-30T23:40:29Z</time>
      </trkpt>
      <trkpt lat="45.21961" lon="0.77964">
        <ele>177</ele>
        <time>2021-08-30T23:40:45Z</time>
      </trkpt>
      <trkpt lat="45.2196" lon="0.77943">
        <ele>176</ele>
        <time>2021-08-30T23:40:49Z</time>
      </trkpt>
      <trkpt lat="45.21945" lon="0.77887">
        <ele>173</ele>
        <time>2021-08-30T23:40:59Z</time>
      </trkpt>
      <trkpt lat="45.21927" lon="0.77841">
        <ele>172</ele>
        <time>2021-08-30T23:41:07Z</time>
      </trkpt>
      <trkpt lat="45.21925" lon="0.7778">
        <ele>168</ele>
        <time>2021-08-30T23:41:17Z</time>
      </trkpt>
      <trkpt lat="45.21914" lon="0.77687">
        <ele>161</ele>
        <time>2021-08-30T23:41:33Z</time>
      </trkpt>
      <trkpt lat="45.21901" lon="0.77609">
        <ele>154</ele>
        <time>2021-08-30T23:41:46Z</time>
      </trkpt>
      <trkpt lat="45.21888" lon="0.77484">
        <ele>154</ele>
        <time>2021-08-30T23:42:07Z</time>
      </trkpt>
      <trkpt lat="45.21883" lon="0.77462">
        <ele>155</ele>
        <time>2021-08-30T23:42:11Z</time>
      </trkpt>
      <trkpt lat="45.21874" lon="0.77448">
        <ele>154</ele>
        <time>2021-08-30T23:42:14Z</time>
      </trkpt>
      <trkpt lat="45.21859" lon="0.77436">
        <ele>153</ele>
        <time>2021-08-30T23:42:18Z</time>
      </trkpt>
      <trkpt lat="45.21814" lon="0.77416">
        <ele>148</ele>
        <time>2021-08-30T23:42:29Z</time>
      </trkpt>
      <trkpt lat="45.21743" lon="0.77399">
        <ele>147</ele>
        <time>2021-08-30T23:42:46Z</time>
      </trkpt>
      <trkpt lat="45.21683" lon="0.77359">
        <ele>146</ele>
        <time>2021-08-30T23:43:01Z</time>
      </trkpt>
      <trkpt lat="45.21667" lon="0.77346">
        <ele>146</ele>
        <time>2021-08-30T23:43:05Z</time>
      </trkpt>
      <trkpt lat="45.21609" lon="0.77267">
        <ele>146</ele>
        <time>2021-08-30T23:43:24Z</time>
      </trkpt>
      <trkpt lat="45.21571" lon="0.77241">
        <ele>146</ele>
        <time>2021-08-30T23:43:34Z</time>
      </trkpt>
      <trkpt lat="45.21269" lon="0.77154">
        <ele>136</ele>
        <time>2021-08-30T23:44:46Z</time>
      </trkpt>
      <trkpt lat="45.21264" lon="0.77144">
        <ele>136</ele>
        <time>2021-08-30T23:44:48Z</time>
      </trkpt>
      <trkpt lat="45.21267" lon="0.77137">
        <ele>136</ele>
        <time>2021-08-30T23:44:49Z</time>
      </trkpt>
      <trkpt lat="45.21291" lon="0.77125">
        <ele>136</ele>
        <time>2021-08-30T23:44:55Z</time>
      </trkpt>
      <trkpt lat="45.21311" lon="0.77095">
        <ele>137</ele>
        <time>2021-08-30T23:45:02Z</time>
      </trkpt>
      <trkpt lat="45.21348" lon="0.77104">
        <ele>141</ele>
        <time>2021-08-30T23:45:11Z</time>
      </trkpt>
      <trkpt lat="45.21356" lon="0.77103">
        <ele>142</ele>
        <time>2021-08-30T23:45:13Z</time>
      </trkpt>
      <trkpt lat="45.21362" lon="0.77105">
        <ele>143</ele>
        <time>2021-08-30T23:46:18Z</time>
      </trkpt>
      <trkpt lat="45.21413" lon="0.77087">
        <ele>152</ele>
        <time>2021-08-30T23:46:31Z</time>
      </trkpt>
      <trkpt lat="45.21448" lon="0.76933">
        <ele>162</ele>
        <time>2021-08-30T23:46:57Z</time>
      </trkpt>
      <trkpt lat="45.21487" lon="0.76813">
        <ele>170</ele>
        <time>2021-08-30T23:47:19Z</time>
      </trkpt>
      <trkpt lat="45.21574" lon="0.76688">
        <ele>182</ele>
        <time>2021-08-30T23:47:48Z</time>
      </trkpt>
      <trkpt lat="45.21602" lon="0.76615">
        <ele>184</ele>
        <time>2021-08-30T23:48:01Z</time>
      </trkpt>
      <trkpt lat="45.21624" lon="0.76573">
        <ele>185</ele>
        <time>2021-08-30T23:48:10Z</time>
      </trkpt>
      <trkpt lat="45.21644" lon="0.76542">
        <ele>188</ele>
        <time>2021-08-30T23:48:17Z</time>
      </trkpt>
      <trkpt lat="45.21694" lon="0.76485">
        <ele>195</ele>
        <time>2021-08-30T23:48:32Z</time>
      </trkpt>
      <trkpt lat="45.21764" lon="0.76392">
        <ele>198</ele>
        <time>2021-08-30T23:48:54Z</time>
      </trkpt>
      <trkpt lat="45.21789" lon="0.76348">
        <ele>197</ele>
        <time>2021-08-30T23:49:04Z</time>
      </trkpt>
      <trkpt lat="45.21843" lon="0.76202">
        <ele>203</ele>
        <time>2021-08-30T23:49:31Z</time>
      </trkpt>
      <trkpt lat="45.21869" lon="0.76121">
        <ele>209</ele>
        <time>2021-08-30T23:49:45Z</time>
      </trkpt>
      <trkpt lat="45.21901" lon="0.75973">
        <ele>227</ele>
        <time>2021-08-30T23:50:11Z</time>
      </trkpt>
      <trkpt lat="45.21914" lon="0.75938">
        <ele>229</ele>
        <time>2021-08-30T23:50:17Z</time>
      </trkpt>
      <trkpt lat="45.21924" lon="0.75842">
        <ele>231</ele>
        <time>2021-08-30T23:50:33Z</time>
      </trkpt>
      <trkpt lat="45.21924" lon="0.758">
        <ele>231</ele>
        <time>2021-08-30T23:50:40Z</time>
      </trkpt>
      <trkpt lat="45.21911" lon="0.75663">
        <ele>230</ele>
        <time>2021-08-30T23:51:03Z</time>
      </trkpt>
      <trkpt lat="45.21891" lon="0.75543">
        <ele>223</ele>
        <time>2021-08-30T23:51:23Z</time>
      </trkpt>
      <trkpt lat="45.21876" lon="0.75423">
        <ele>221</ele>
        <time>2021-08-30T23:51:43Z</time>
      </trkpt>
      <trkpt lat="45.21866" lon="0.7538">
        <ele>221</ele>
        <time>2021-08-30T23:51:51Z</time>
      </trkpt>
      <trkpt lat="45.21847" lon="0.75258">
        <ele>229</ele>
        <time>2021-08-30T23:52:11Z</time>
      </trkpt>
      <trkpt lat="45.21851" lon="0.752">
        <ele>232</ele>
        <time>2021-08-30T23:52:21Z</time>
      </trkpt>
      <trkpt lat="45.21847" lon="0.75079">
        <ele>238</ele>
        <time>2021-08-30T23:52:41Z</time>
      </trkpt>
      <trkpt lat="45.21853" lon="0.75067">
        <ele>238</ele>
        <time>2021-08-30T23:52:43Z</time>
      </trkpt>
      <trkpt lat="45.21875" lon="0.75039">
        <ele>237</ele>
        <time>2021-08-30T23:52:50Z</time>
      </trkpt>
      <trkpt lat="45.21896" lon="0.74978">
        <ele>236</ele>
        <time>2021-08-30T23:53:01Z</time>
      </trkpt>
      <trkpt lat="45.219" lon="0.74774">
        <ele>235</ele>
        <time>2021-08-30T23:53:35Z</time>
      </trkpt>
      <trkpt lat="45.21908" lon="0.74732">
        <ele>233</ele>
        <time>2021-08-30T23:53:42Z</time>
      </trkpt>
      <trkpt lat="45.2191" lon="0.74457">
        <ele>226</ele>
        <time>2021-08-30T23:54:27Z</time>
      </trkpt>
      <trkpt lat="45.21917" lon="0.7438">
        <ele>226</ele>
        <time>2021-08-30T23:54:40Z</time>
      </trkpt>
      <trkpt lat="45.21915" lon="0.7431">
        <ele>222</ele>
        <time>2021-08-30T23:54:52Z</time>
      </trkpt>
      <trkpt lat="45.21923" lon="0.74219">
        <ele>219</ele>
        <time>2021-08-30T23:55:07Z</time>
      </trkpt>
      <trkpt lat="45.21919" lon="0.74211">
        <ele>219</ele>
        <time>2021-08-30T23:55:08Z</time>
      </trkpt>
      <trkpt lat="45.21828" lon="0.74164">
        <ele>209</ele>
        <time>2021-08-30T23:55:31Z</time>
      </trkpt>
      <trkpt lat="45.21822" lon="0.74159">
        <ele>208</ele>
        <time>2021-08-30T23:55:33Z</time>
      </trkpt>
      <trkpt lat="45.21796" lon="0.74123">
        <ele>205</ele>
        <time>2021-08-30T23:55:41Z</time>
      </trkpt>
      <trkpt lat="45.21784" lon="0.74101">
        <ele>204</ele>
        <time>2021-08-30T23:55:46Z</time>
      </trkpt>
      <trkpt lat="45.2178" lon="0.74083">
        <ele>203</ele>
        <time>2021-08-30T23:55:49Z</time>
      </trkpt>
      <trkpt lat="45.21787" lon="0.74035">
        <ele>201</ele>
        <time>2021-08-30T23:55:57Z</time>
      </trkpt>
      <trkpt lat="45.218" lon="0.73972">
        <ele>199</ele>
        <time>2021-08-30T23:56:08Z</time>
      </trkpt>
      <trkpt lat="45.21818" lon="0.73615">
        <ele>192</ele>
        <time>2021-08-30T23:57:06Z</time>
      </trkpt>
      <trkpt lat="45.21834" lon="0.73469">
        <ele>190</ele>
        <time>2021-08-30T23:57:31Z</time>
      </trkpt>
      <trkpt lat="45.21835" lon="0.73387">
        <ele>191</ele>
        <time>2021-08-30T23:57:44Z</time>
      </trkpt>
      <trkpt lat="45.2183" lon="0.73349">
        <ele>191</ele>
        <time>2021-08-30T23:57:51Z</time>
      </trkpt>
      <trkpt lat="45.21827" lon="0.73273">
        <ele>190</ele>
        <time>2021-08-30T23:58:03Z</time>
      </trkpt>
      <trkpt lat="45.21833" lon="0.73206">
        <ele>189</ele>
        <time>2021-08-30T23:58:14Z</time>
      </trkpt>
      <trkpt lat="45.21842" lon="0.73147">
        <ele>186</ele>
        <time>2021-08-30T23:58:24Z</time>
      </trkpt>
      <trkpt lat="45.21827" lon="0.73081">
        <ele>184</ele>
        <time>2021-08-30T23:58:36Z</time>
      </trkpt>
      <trkpt lat="45.21803" lon="0.73042">
        <ele>186</ele>
        <time>2021-08-30T23:58:44Z</time>
      </trkpt>
      <trkpt lat="45.21755" lon="0.72982">
        <ele>191</ele>
        <time>2021-08-30T23:58:59Z</time>
      </trkpt>
      <trkpt lat="45.21742" lon="0.72954">
        <ele>192</ele>
        <time>2021-08-30T23:59:05Z</time>
      </trkpt>
      <trkpt lat="45.21739" lon="0.72792">
        <ele>197</ele>
        <time>2021-08-30T23:59:31Z</time>
      </trkpt>
      <trkpt lat="45.21732" lon="0.72778">
        <ele>197</ele>
        <time>2021-08-30T23:59:34Z</time>
      </trkpt>
      <trkpt lat="45.21732" lon="0.72782">
        <ele>197</ele>
        <time>2021-08-30T23:59:35Z</time>
      </trkpt>
      <trkpt lat="45.21646" lon="0.72703">
        <ele>201</ele>
        <time>2021-08-31T00:01:01Z</time>
      </trkpt>
      <trkpt lat="45.2158" lon="0.7265">
        <ele>204</ele>
        <time>2021-08-31T00:01:18Z</time>
      </trkpt>
      <trkpt lat="45.21577" lon="0.72632">
        <ele>204</ele>
        <time>2021-08-31T00:01:21Z</time>
      </trkpt>
      <trkpt lat="45.2158" lon="0.7261">
        <ele>204</ele>
        <time>2021-08-31T00:01:25Z</time>
      </trkpt>
      <trkpt lat="45.21577" lon="0.72586">
        <ele>204</ele>
        <time>2021-08-31T00:01:29Z</time>
      </trkpt>
      <trkpt lat="45.21569" lon="0.7255">
        <ele>203</ele>
        <time>2021-08-31T00:01:35Z</time>
      </trkpt>
      <trkpt lat="45.21559" lon="0.72531">
        <ele>203</ele>
        <time>2021-08-31T00:01:39Z</time>
      </trkpt>
      <trkpt lat="45.21567" lon="0.72557">
        <ele>204</ele>
        <time>2021-08-31T00:01:44Z</time>
      </trkpt>
      <trkpt lat="45.21539" lon="0.72568">
        <ele>205</ele>
        <time>2021-08-31T00:01:51Z</time>
      </trkpt>
      <trkpt lat="45.21525" lon="0.72555">
        <ele>205</ele>
        <time>2021-08-31T00:01:55Z</time>
      </trkpt>
      <trkpt lat="45.21525" lon="0.72461">
        <ele>203</ele>
        <time>2021-08-31T00:02:10Z</time>
      </trkpt>
      <trkpt lat="45.21527" lon="0.72432">
        <ele>202</ele>
        <time>2021-08-31T00:02:15Z</time>
      </trkpt>
      <trkpt lat="45.21488" lon="0.723">
        <ele>203</ele>
        <time>2021-08-31T00:02:38Z</time>
      </trkpt>
      <trkpt lat="45.21481" lon="0.72132">
        <ele>205</ele>
        <time>2021-08-31T00:03:06Z</time>
      </trkpt>
      <trkpt lat="45.21477" lon="0.721">
        <ele>206</ele>
        <time>2021-08-31T00:03:11Z</time>
      </trkpt>
      <trkpt lat="45.21466" lon="0.72063">
        <ele>206</ele>
        <time>2021-08-31T00:03:18Z</time>
      </trkpt>
      <trkpt lat="45.21449" lon="0.71954">
        <ele>204</ele>
        <time>2021-08-31T00:03:36Z</time>
      </trkpt>
      <trkpt lat="45.21549" lon="0.71818">
        <ele>202</ele>
        <time>2021-08-31T00:04:09Z</time>
      </trkpt>
      <trkpt lat="45.21572" lon="0.71677">
        <ele>198</ele>
        <time>2021-08-31T00:04:33Z</time>
      </trkpt>
      <trkpt lat="45.21653" lon="0.71674">
        <ele>193</ele>
        <time>2021-08-31T00:04:51Z</time>
      </trkpt>
      <trkpt lat="45.21731" lon="0.717">
        <ele>190</ele>
        <time>2021-08-31T00:05:10Z</time>
      </trkpt>
      <trkpt lat="45.21798" lon="0.71708">
        <ele>187</ele>
        <time>2021-08-31T00:05:26Z</time>
      </trkpt>
      <trkpt lat="45.21853" lon="0.71721">
        <ele>186</ele>
        <time>2021-08-31T00:05:39Z</time>
      </trkpt>
      <trkpt lat="45.21885" lon="0.71714">
        <ele>185</ele>
        <time>2021-08-31T00:05:46Z</time>
      </trkpt>
      <trkpt lat="45.21961" lon="0.71674">
        <ele>181</ele>
        <time>2021-08-31T00:06:05Z</time>
      </trkpt>
      <trkpt lat="45.22047" lon="0.71646">
        <ele>174</ele>
        <time>2021-08-31T00:06:26Z</time>
      </trkpt>
      <trkpt lat="45.22074" lon="0.71634">
        <ele>172</ele>
        <time>2021-08-31T00:06:33Z</time>
      </trkpt>
      <trkpt lat="45.22114" lon="0.71626">
        <ele>170</ele>
        <time>2021-08-31T00:06:42Z</time>
      </trkpt>
      <trkpt lat="45.22132" lon="0.71614">
        <ele>169</ele>
        <time>2021-08-31T00:06:47Z</time>
      </trkpt>
      <trkpt lat="45.22164" lon="0.71572">
        <ele>167</ele>
        <time>2021-08-31T00:06:57Z</time>
      </trkpt>
      <trkpt lat="45.22184" lon="0.71562">
        <ele>163</ele>
        <time>2021-08-31T00:07:02Z</time>
      </trkpt>
      <trkpt lat="45.22213" lon="0.71553">
        <ele>159</ele>
        <time>2021-08-31T00:07:09Z</time>
      </trkpt>
      <trkpt lat="45.22258" lon="0.7155">
        <ele>152</ele>
        <time>2021-08-31T00:07:19Z</time>
      </trkpt>
      <trkpt lat="45.22321" lon="0.71534">
        <ele>142</ele>
        <time>2021-08-31T00:07:34Z</time>
      </trkpt>
      <trkpt lat="45.22367" lon="0.71538">
        <ele>136</ele>
        <time>2021-08-31T00:07:45Z</time>
      </trkpt>
      <trkpt lat="45.22418" lon="0.71546">
        <ele>130</ele>
        <time>2021-08-31T00:07:57Z</time>
      </trkpt>
      <trkpt lat="45.22448" lon="0.71543">
        <ele>126</ele>
        <time>2021-08-31T00:08:04Z</time>
      </trkpt>
      <trkpt lat="45.22496" lon="0.7151">
        <ele>117</ele>
        <time>2021-08-31T00:08:16Z</time>
      </trkpt>
      <trkpt lat="45.22568" lon="0.71541">
        <ele>114</ele>
        <time>2021-08-31T00:08:34Z</time>
      </trkpt>
      <trkpt lat="45.22607" lon="0.71605">
        <ele>116</ele>
        <time>2021-08-31T00:08:48Z</time>
      </trkpt>
      <trkpt lat="45.22637" lon="0.71649">
        <ele>116</ele>
        <time>2021-08-31T00:08:58Z</time>
      </trkpt>
      <trkpt lat="45.22699" lon="0.71727">
        <ele>114</ele>
        <time>2021-08-31T00:09:17Z</time>
      </trkpt>
      <trkpt lat="45.22699" lon="0.71744">
        <ele>115</ele>
        <time>2021-08-31T00:09:20Z</time>
      </trkpt>
      <trkpt lat="45.22739" lon="0.71781">
        <ele>115</ele>
        <time>2021-08-31T00:09:31Z</time>
      </trkpt>
      <trkpt lat="45.22771" lon="0.71827">
        <ele>118</ele>
        <time>2021-08-31T00:09:42Z</time>
      </trkpt>
      <trkpt lat="45.22823" lon="0.71873">
        <ele>120</ele>
        <time>2021-08-31T00:09:56Z</time>
      </trkpt>
      <trkpt lat="45.22844" lon="0.71919">
        <ele>125</ele>
        <time>2021-08-31T00:10:05Z</time>
      </trkpt>
      <trkpt lat="45.22854" lon="0.71933">
        <ele>126</ele>
        <time>2021-08-31T00:10:09Z</time>
      </trkpt>
      <trkpt lat="45.22853" lon="0.71948">
        <ele>128</ele>
        <time>2021-08-31T00:10:11Z</time>
      </trkpt>
      <trkpt lat="45.22894" lon="0.72045">
        <ele>133</ele>
        <time>2021-08-31T00:10:30Z</time>
      </trkpt>
      <trkpt lat="45.2293" lon="0.72122">
        <ele>131</ele>
        <time>2021-08-31T00:10:45Z</time>
      </trkpt>
      <trkpt lat="45.22943" lon="0.72132">
        <ele>130</ele>
        <time>2021-08-31T00:10:48Z</time>
      </trkpt>
      <trkpt lat="45.22954" lon="0.72123">
        <ele>129</ele>
        <time>2021-08-31T00:10:51Z</time>
      </trkpt>
      <trkpt lat="45.23042" lon="0.7203">
        <ele>120</ele>
        <time>2021-08-31T00:11:17Z</time>
      </trkpt>
      <trkpt lat="45.23073" lon="0.71993">
        <ele>118</ele>
        <time>2021-08-31T00:11:26Z</time>
      </trkpt>
      <trkpt lat="45.23102" lon="0.71897">
        <ele>118</ele>
        <time>2021-08-31T00:11:43Z</time>
      </trkpt>
      <trkpt lat="45.23103" lon="0.71877">
        <ele>118</ele>
        <time>2021-08-31T00:11:47Z</time>
      </trkpt>
      <trkpt lat="45.23071" lon="0.71738">
        <ele>120</ele>
        <time>2021-08-31T00:12:11Z</time>
      </trkpt>
      <trkpt lat="45.2306" lon="0.71728">
        <ele>122</ele>
        <time>2021-08-31T00:12:14Z</time>
      </trkpt>
      <trkpt lat="45.23043" lon="0.71722">
        <ele>124</ele>
        <time>2021-08-31T00:12:18Z</time>
      </trkpt>
      <trkpt lat="45.2303" lon="0.7172">
        <ele>124</ele>
        <time>2021-08-31T00:12:21Z</time>
      </trkpt>
      <trkpt lat="45.2296" lon="0.71721">
        <ele>125</ele>
        <time>2021-08-31T00:12:37Z</time>
      </trkpt>
      <trkpt lat="45.2293" lon="0.71714">
        <ele>127</ele>
        <time>2021-08-31T00:12:44Z</time>
      </trkpt>
      <trkpt lat="45.23032" lon="0.71668">
        <ele>131</ele>
        <time>2021-08-31T00:13:09Z</time>
      </trkpt>
      <trkpt lat="45.23002" lon="0.7165">
        <ele>130</ele>
        <time>2021-08-31T00:13:17Z</time>
      </trkpt>
      <trkpt lat="45.23028" lon="0.71649">
        <ele>130</ele>
        <time>2021-08-31T00:13:23Z</time>
      </trkpt>
      <trkpt lat="45.23053" lon="0.71625">
        <ele>129</ele>
        <time>2021-08-31T00:13:30Z</time>
      </trkpt>
      <trkpt lat="45.23091" lon="0.71605">
        <ele>129</ele>
        <time>2021-08-31T00:13:40Z</time>
      </trkpt>
      <trkpt lat="45.23179" lon="0.71572">
        <ele>132</ele>
        <time>2021-08-31T00:14:01Z</time>
      </trkpt>
      <trkpt lat="45.23193" lon="0.71563">
        <ele>132</ele>
        <time>2021-08-31T00:14:05Z</time>
      </trkpt>
      <trkpt lat="45.23202" lon="0.7155">
        <ele>133</ele>
        <time>2021-08-31T00:14:08Z</time>
      </trkpt>
      <trkpt lat="45.23217" lon="0.71539">
        <ele>133</ele>
        <time>2021-08-31T00:14:11Z</time>
      </trkpt>
      <trkpt lat="45.23277" lon="0.71523">
        <ele>134</ele>
        <time>2021-08-31T00:14:26Z</time>
      </trkpt>
      <trkpt lat="45.23306" lon="0.71504">
        <ele>136</ele>
        <time>2021-08-31T00:14:33Z</time>
      </trkpt>
      <trkpt lat="45.23329" lon="0.71509">
        <ele>136</ele>
        <time>2021-08-31T00:14:39Z</time>
      </trkpt>
      <trkpt lat="45.23372" lon="0.71531">
        <ele>136</ele>
        <time>2021-08-31T00:14:49Z</time>
      </trkpt>
      <trkpt lat="45.23398" lon="0.71536">
        <ele>136</ele>
        <time>2021-08-31T00:14:55Z</time>
      </trkpt>
      <trkpt lat="45.23414" lon="0.71543">
        <ele>136</ele>
        <time>2021-08-31T00:14:59Z</time>
      </trkpt>
      <trkpt lat="45.23418" lon="0.71528">
        <ele>138</ele>
        <time>2021-08-31T00:15:02Z</time>
      </trkpt>
      <trkpt lat="45.23411" lon="0.7149">
        <ele>141</ele>
        <time>2021-08-31T00:15:08Z</time>
      </trkpt>
      <trkpt lat="45.23419" lon="0.7152">
        <ele>139</ele>
        <time>2021-08-31T00:15:14Z</time>
      </trkpt>
      <trkpt lat="45.23419" lon="0.71548">
        <ele>136</ele>
        <time>2021-08-31T00:15:18Z</time>
      </trkpt>
      <trkpt lat="45.23427" lon="0.71569">
        <ele>135</ele>
        <time>2021-08-31T00:15:22Z</time>
      </trkpt>
      <trkpt lat="45.23441" lon="0.71577">
        <ele>136</ele>
        <time>2021-08-31T00:15:26Z</time>
      </trkpt>
      <trkpt lat="45.23473" lon="0.71574">
        <ele>139</ele>
        <time>2021-08-31T00:15:33Z</time>
      </trkpt>
      <trkpt lat="45.23596" lon="0.71491">
        <ele>157</ele>
        <time>2021-08-31T00:16:05Z</time>
      </trkpt>
      <trkpt lat="45.2364" lon="0.71444">
        <ele>165</ele>
        <time>2021-08-31T00:16:18Z</time>
      </trkpt>
      <trkpt lat="45.23656" lon="0.71379">
        <ele>170</ele>
        <time>2021-08-31T00:16:29Z</time>
      </trkpt>
      <trkpt lat="45.23653" lon="0.71294">
        <ele>174</ele>
        <time>2021-08-31T00:16:43Z</time>
      </trkpt>
      <trkpt lat="45.23663" lon="0.71227">
        <ele>175</ele>
        <time>2021-08-31T00:16:54Z</time>
      </trkpt>
      <trkpt lat="45.23689" lon="0.71183">
        <ele>176</ele>
        <time>2021-08-31T00:17:04Z</time>
      </trkpt>
      <trkpt lat="45.23711" lon="0.71164">
        <ele>175</ele>
        <time>2021-08-31T00:17:10Z</time>
      </trkpt>
      <trkpt lat="45.23726" lon="0.71147">
        <ele>175</ele>
        <time>2021-08-31T00:17:14Z</time>
      </trkpt>
      <trkpt lat="45.23811" lon="0.71025">
        <ele>174</ele>
        <time>2021-08-31T00:17:43Z</time>
      </trkpt>
      <trkpt lat="45.23885" lon="0.70893">
        <ele>178</ele>
        <time>2021-08-31T00:18:10Z</time>
      </trkpt>
      <trkpt lat="45.2391" lon="0.70844">
        <ele>180</ele>
        <time>2021-08-31T00:18:20Z</time>
      </trkpt>
      <trkpt lat="45.23923" lon="0.70825">
        <ele>180</ele>
        <time>2021-08-31T00:18:25Z</time>
      </trkpt>
      <trkpt lat="45.23941" lon="0.70787">
        <ele>182</ele>
        <time>2021-08-31T00:18:32Z</time>
      </trkpt>
      <trkpt lat="45.23965" lon="0.70748">
        <ele>184</ele>
        <time>2021-08-31T00:18:41Z</time>
      </trkpt>
      <trkpt lat="45.24013" lon="0.7066">
        <ele>184</ele>
        <time>2021-08-31T00:18:59Z</time>
      </trkpt>
      <trkpt lat="45.2403" lon="0.7068">
        <ele>185</ele>
        <time>2021-08-31T00:19:04Z</time>
      </trkpt>
      <trkpt lat="45.24108" lon="0.70803">
        <ele>186</ele>
        <time>2021-08-31T00:19:31Z</time>
      </trkpt>
      <trkpt lat="45.24152" lon="0.70855">
        <ele>185</ele>
        <time>2021-08-31T00:19:45Z</time>
      </trkpt>
      <trkpt lat="45.24221" lon="0.70879">
        <ele>186</ele>
        <time>2021-08-31T00:20:01Z</time>
      </trkpt>
      <trkpt lat="45.24325" lon="0.70905">
        <ele>188</ele>
        <time>2021-08-31T00:20:26Z</time>
      </trkpt>
      <trkpt lat="45.24478" lon="0.70894">
        <ele>188</ele>
        <time>2021-08-31T00:21:02Z</time>
      </trkpt>
      <trkpt lat="45.2454" lon="0.70862">
        <ele>187</ele>
        <time>2021-08-31T00:21:17Z</time>
      </trkpt>
      <trkpt lat="45.24626" lon="0.70811">
        <ele>189</ele>
        <time>2021-08-31T00:21:39Z</time>
      </trkpt>
      <trkpt lat="45.24675" lon="0.70794">
        <ele>192</ele>
        <time>2021-08-31T00:21:51Z</time>
      </trkpt>
      <trkpt lat="45.24721" lon="0.70788">
        <ele>195</ele>
        <time>2021-08-31T00:22:02Z</time>
      </trkpt>
      <trkpt lat="45.24798" lon="0.70771">
        <ele>198</ele>
        <time>2021-08-31T00:22:20Z</time>
      </trkpt>
      <trkpt lat="45.24843" lon="0.70771">
        <ele>200</ele>
        <time>2021-08-31T00:22:30Z</time>
      </trkpt>
      <trkpt lat="45.24893" lon="0.70698">
        <ele>198</ele>
        <time>2021-08-31T00:22:47Z</time>
      </trkpt>
      <trkpt lat="45.24897" lon="0.70695">
        <ele>198</ele>
        <time>2021-08-31T00:22:48Z</time>
      </trkpt>
      <trkpt lat="45.24974" lon="0.7082">
        <ele>201</ele>
        <time>2021-08-31T00:23:15Z</time>
      </trkpt>
      <trkpt lat="45.24985" lon="0.70821">
        <ele>201</ele>
        <time>2021-08-31T00:23:18Z</time>
      </trkpt>
      <trkpt lat="45.25004" lon="0.70818">
        <ele>201</ele>
        <time>2021-08-31T00:23:22Z</time>
      </trkpt>
      <trkpt lat="45.25052" lon="0.70818">
        <ele>200</ele>
        <time>2021-08-31T00:23:34Z</time>
      </trkpt>
      <trkpt lat="45.25278" lon="0.70774">
        <ele>189</ele>
        <time>2021-08-31T00:24:27Z</time>
      </trkpt>
      <trkpt lat="45.25311" lon="0.70764">
        <ele>189</ele>
        <time>2021-08-31T00:24:35Z</time>
      </trkpt>
      <trkpt lat="45.25342" lon="0.7076">
        <ele>188</ele>
        <time>2021-08-31T00:24:42Z</time>
      </trkpt>
      <trkpt lat="45.25356" lon="0.70755">
        <ele>187</ele>
        <time>2021-08-31T00:24:45Z</time>
      </trkpt>
      <trkpt lat="45.25357" lon="0.70752">
        <ele>186</ele>
        <time>2021-08-31T00:24:46Z</time>
      </trkpt>
      <trkpt lat="45.25397" lon="0.70733">
        <ele>182</ele>
        <time>2021-08-31T00:24:56Z</time>
      </trkpt>
      <trkpt lat="45.25487" lon="0.70701">
        <ele>171</ele>
        <time>2021-08-31T00:25:17Z</time>
      </trkpt>
      <trkpt lat="45.25503" lon="0.70688">
        <ele>167</ele>
        <time>2021-08-31T00:25:22Z</time>
      </trkpt>
      <trkpt lat="45.25521" lon="0.70679">
        <ele>162</ele>
        <time>2021-08-31T00:25:26Z</time>
      </trkpt>
      <trkpt lat="45.25526" lon="0.7068">
        <ele>161</ele>
        <time>2021-08-31T00:25:27Z</time>
      </trkpt>
      <trkpt lat="45.25486" lon="0.7061">
        <ele>154</ele>
        <time>2021-08-31T00:25:42Z</time>
      </trkpt>
      <trkpt lat="45.25457" lon="0.70498">
        <ele>136</ele>
        <time>2021-08-31T00:26:02Z</time>
      </trkpt>
      <trkpt lat="45.25409" lon="0.70442">
        <ele>131</ele>
        <time>2021-08-31T00:26:16Z</time>
      </trkpt>
      <trkpt lat="45.25438" lon="0.70409">
        <ele>124</ele>
        <time>2021-08-31T00:26:25Z</time>
      </trkpt>
      <trkpt lat="45.25459" lon="0.7034">
        <ele>118</ele>
        <time>2021-08-31T00:26:37Z</time>
      </trkpt>
      <trkpt lat="45.25457" lon="0.70295">
        <ele>117</ele>
        <time>2021-08-31T00:26:45Z</time>
      </trkpt>
      <trkpt lat="45.25488" lon="0.70304">
        <ele>114</ele>
        <time>2021-08-31T00:26:52Z</time>
      </trkpt>
      <trkpt lat="45.25457" lon="0.70253">
        <ele>115</ele>
        <time>2021-08-31T00:27:03Z</time>
      </trkpt>
      <trkpt lat="45.25396" lon="0.70166">
        <ele>117</ele>
        <time>2021-08-31T00:27:23Z</time>
      </trkpt>
      <trkpt lat="45.25361" lon="0.70127">
        <ele>117</ele>
        <time>2021-08-31T00:27:34Z</time>
      </trkpt>
      <trkpt lat="45.25314" lon="0.701">
        <ele>117</ele>
        <time>2021-08-31T00:27:46Z</time>
      </trkpt>
      <trkpt lat="45.25276" lon="0.70058">
        <ele>115</ele>
        <time>2021-08-31T00:27:57Z</time>
      </trkpt>
      <trkpt lat="45.25237" lon="0.7003">
        <ele>118</ele>
        <time>2021-08-31T00:28:07Z</time>
      </trkpt>
      <trkpt lat="45.2521" lon="0.69965">
        <ele>120</ele>
        <time>2021-08-31T00:28:20Z</time>
      </trkpt>
      <trkpt lat="45.25165" lon="0.69896">
        <ele>123</ele>
        <time>2021-08-31T00:28:35Z</time>
      </trkpt>
      <trkpt lat="45.2513" lon="0.69814">
        <ele>127</ele>
        <time>2021-08-31T00:28:51Z</time>
      </trkpt>
      <trkpt lat="45.25082" lon="0.69686">
        <ele>127</ele>
        <time>2021-08-31T00:29:15Z</time>
      </trkpt>
      <trkpt lat="45.25025" lon="0.69522">
        <ele>123</ele>
        <time>2021-08-31T00:29:45Z</time>
      </trkpt>
      <trkpt lat="45.24983" lon="0.6946">
        <ele>120</ele>
        <time>2021-08-31T00:29:59Z</time>
      </trkpt>
      <trkpt lat="45.24949" lon="0.69428">
        <ele>120</ele>
        <time>2021-08-31T00:30:08Z</time>
      </trkpt>
      <trkpt lat="45.2491" lon="0.69397">
        <ele>122</ele>
        <time>2021-08-31T00:30:19Z</time>
      </trkpt>
      <trkpt lat="45.24796" lon="0.69282">
        <ele>119</ele>
        <time>2021-08-31T00:30:51Z</time>
      </trkpt>
      <trkpt lat="45.24747" lon="0.69257">
        <ele>120</ele>
        <time>2021-08-31T00:31:04Z</time>
      </trkpt>
      <trkpt lat="45.24689" lon="0.69239">
        <ele>129</ele>
        <time>2021-08-31T00:31:17Z</time>
      </trkpt>
      <trkpt lat="45.24609" lon="0.69186">
        <ele>127</ele>
        <time>2021-08-31T00:31:38Z</time>
      </trkpt>
      <trkpt lat="45.24571" lon="0.69171">
        <ele>128</ele>
        <time>2021-08-31T00:31:47Z</time>
      </trkpt>
      <trkpt lat="45.24501" lon="0.69159">
        <ele>130</ele>
        <time>2021-08-31T00:32:04Z</time>
      </trkpt>
      <trkpt lat="45.24471" lon="0.69165">
        <ele>129</ele>
        <time>2021-08-31T00:32:11Z</time>
      </trkpt>
      <trkpt lat="45.24449" lon="0.69179">
        <ele>129</ele>
        <time>2021-08-31T00:32:16Z</time>
      </trkpt>
      <trkpt lat="45.24434" lon="0.69155">
        <ele>126</ele>
        <time>2021-08-31T00:32:22Z</time>
      </trkpt>
      <trkpt lat="45.24425" lon="0.69075">
        <ele>116</ele>
        <time>2021-08-31T00:32:35Z</time>
      </trkpt>
      <trkpt lat="45.24422" lon="0.69064">
        <ele>115</ele>
        <time>2021-08-31T00:32:37Z</time>
      </trkpt>
      <trkpt lat="45.24414" lon="0.69043">
        <ele>113</ele>
        <time>2021-08-31T00:32:41Z</time>
      </trkpt>
      <trkpt lat="45.24394" lon="0.6901">
        <ele>109</ele>
        <time>2021-08-31T00:32:48Z</time>
      </trkpt>
      <trkpt lat="45.24372" lon="0.68981">
        <ele>108</ele>
        <time>2021-08-31T00:32:55Z</time>
      </trkpt>
      <trkpt lat="45.24359" lon="0.68971">
        <ele>108</ele>
        <time>2021-08-31T00:32:59Z</time>
      </trkpt>
      <trkpt lat="45.2434" lon="0.68969">
        <ele>109</ele>
        <time>2021-08-31T00:33:03Z</time>
      </trkpt>
      <trkpt lat="45.24328" lon="0.68974">
        <ele>110</ele>
        <time>2021-08-31T00:33:06Z</time>
      </trkpt>
      <trkpt lat="45.24312" lon="0.68985">
        <ele>113</ele>
        <time>2021-08-31T00:33:10Z</time>
      </trkpt>
      <trkpt lat="45.24299" lon="0.68974">
        <ele>114</ele>
        <time>2021-08-31T00:33:14Z</time>
      </trkpt>
      <trkpt lat="45.24284" lon="0.68848">
        <ele>109</ele>
        <time>2021-08-31T00:33:35Z</time>
      </trkpt>
      <trkpt lat="45.24282" lon="0.68799">
        <ele>107</ele>
        <time>2021-08-31T00:33:43Z</time>
      </trkpt>
      <trkpt lat="45.24268" lon="0.68775">
        <ele>106</ele>
        <time>2021-08-31T00:33:48Z</time>
      </trkpt>
      <trkpt lat="45.24268" lon="0.68754">
        <ele>106</ele>
        <time>2021-08-31T00:33:51Z</time>
      </trkpt>
      <trkpt lat="45.24264" lon="0.68741">
        <ele>105</ele>
        <time>2021-08-31T00:33:54Z</time>
      </trkpt>
      <trkpt lat="45.24266" lon="0.6874">
        <ele>105</ele>
        <time>2021-08-31T00:33:54Z</time>
      </trkpt>
      <trkpt lat="45.24263" lon="0.68741">
        <ele>105</ele>
        <time>2021-08-31T00:33:55Z</time>
      </trkpt>
      <trkpt lat="45.24282" lon="0.68735">
        <ele>105</ele>
        <time>2021-08-31T00:33:59Z</time>
      </trkpt>
      <trkpt lat="45.24284" lon="0.68724">
        <ele>104</ele>
        <time>2021-08-31T00:34:01Z</time>
      </trkpt>
      <trkpt lat="45.24298" lon="0.687">
        <ele>104</ele>
        <time>2021-08-31T00:34:06Z</time>
      </trkpt>
      <trkpt lat="45.2433" lon="0.68711">
        <ele>103</ele>
        <time>2021-08-31T00:34:14Z</time>
      </trkpt>
      <trkpt lat="45.24336" lon="0.68722">
        <ele>103</ele>
        <time>2021-08-31T00:34:16Z</time>
      </trkpt>
      <trkpt lat="45.24489" lon="0.68658">
        <ele>105</ele>
        <time>2021-08-31T00:34:54Z</time>
      </trkpt>
      <trkpt lat="45.24543" lon="0.68579">
        <ele>110</ele>
        <time>2021-08-31T00:35:12Z</time>
      </trkpt>
      <trkpt lat="45.2452" lon="0.68536">
        <ele>111</ele>
        <time>2021-08-31T00:35:21Z</time>
      </trkpt>
      <trkpt lat="45.24496" lon="0.68439">
        <ele>108</ele>
        <time>2021-08-31T00:35:37Z</time>
      </trkpt>
      <trkpt lat="45.24297" lon="0.68132">
        <ele>105</ele>
        <time>2021-08-31T00:36:46Z</time>
      </trkpt>
      <trkpt lat="45.24072" lon="0.68021">
        <ele>113</ele>
        <time>2021-08-31T00:37:42Z</time>
      </trkpt>
      <trkpt lat="45.23902" lon="0.67994">
        <ele>115</ele>
        <time>2021-08-31T00:38:22Z</time>
      </trkpt>
      <trkpt lat="45.23825" lon="0.68013">
        <ele>115</ele>
        <time>2021-08-31T00:38:40Z</time>
      </trkpt>
      <trkpt lat="45.2377" lon="0.68012">
        <ele>114</ele>
        <time>2021-08-31T00:38:53Z</time>
      </trkpt>
      <trkpt lat="45.23694" lon="0.67998">
        <ele>114</ele>
        <time>2021-08-31T00:39:11Z</time>
      </trkpt>
      <trkpt lat="45.23678" lon="0.68015">
        <ele>113</ele>
        <time>2021-08-31T00:39:15Z</time>
      </trkpt>
      <trkpt lat="45.23638" lon="0.68077">
        <ele>109</ele>
        <time>2021-08-31T00:39:29Z</time>
      </trkpt>
      <trkpt lat="45.23614" lon="0.68099">
        <ele>106</ele>
        <time>2021-08-31T00:39:36Z</time>
      </trkpt>
      <trkpt lat="45.23592" lon="0.68095">
        <ele>104</ele>
        <time>2021-08-31T00:39:41Z</time>
      </trkpt>
      <trkpt lat="45.23557" lon="0.68068">
        <ele>104</ele>
        <time>2021-08-31T00:39:50Z</time>
      </trkpt>
      <trkpt lat="45.2353" lon="0.68036">
        <ele>105</ele>
        <time>2021-08-31T00:39:58Z</time>
      </trkpt>
      <trkpt lat="45.2352" lon="0.68028">
        <ele>105</ele>
        <time>2021-08-31T00:40:01Z</time>
      </trkpt>
      <trkpt lat="45.23516" lon="0.68018">
        <ele>106</ele>
        <time>2021-08-31T00:40:03Z</time>
      </trkpt>
      <trkpt lat="45.2354" lon="0.67926">
        <ele>108</ele>
        <time>2021-08-31T00:40:19Z</time>
      </trkpt>
      <trkpt lat="45.23552" lon="0.67867">
        <ele>110</ele>
        <time>2021-08-31T00:40:29Z</time>
      </trkpt>
      <trkpt lat="45.23505" lon="0.67795">
        <ele>115</ele>
        <time>2021-08-31T00:40:45Z</time>
      </trkpt>
      <trkpt lat="45.23545" lon="0.67637">
        <ele>119</ele>
        <time>2021-08-31T00:41:13Z</time>
      </trkpt>
      <trkpt lat="45.23546" lon="0.67616">
        <ele>119</ele>
        <time>2021-08-31T00:41:17Z</time>
      </trkpt>
      <trkpt lat="45.23571" lon="0.67453">
        <ele>124</ele>
        <time>2021-08-31T00:41:44Z</time>
      </trkpt>
      <trkpt lat="45.23624" lon="0.6731">
        <ele>129</ele>
        <time>2021-08-31T00:42:11Z</time>
      </trkpt>
      <trkpt lat="45.23644" lon="0.67283">
        <ele>128</ele>
        <time>2021-08-31T00:42:17Z</time>
      </trkpt>
      <trkpt lat="45.23735" lon="0.6721">
        <ele>130</ele>
        <time>2021-08-31T00:42:41Z</time>
      </trkpt>
      <trkpt lat="45.23761" lon="0.67185">
        <ele>131</ele>
        <time>2021-08-31T00:42:49Z</time>
      </trkpt>
      <trkpt lat="45.23828" lon="0.67168">
        <ele>131</ele>
        <time>2021-08-31T00:43:05Z</time>
      </trkpt>
      <trkpt lat="45.23914" lon="0.6715">
        <ele>133</ele>
        <time>2021-08-31T00:43:25Z</time>
      </trkpt>
      <trkpt lat="45.24011" lon="0.67102">
        <ele>130</ele>
        <time>2021-08-31T00:43:49Z</time>
      </trkpt>
      <trkpt lat="45.24098" lon="0.67023">
        <ele>133</ele>
        <time>2021-08-31T00:44:13Z</time>
      </trkpt>
      <trkpt lat="45.24126" lon="0.66944">
        <ele>136</ele>
        <time>2021-08-31T00:44:28Z</time>
      </trkpt>
      <trkpt lat="45.24155" lon="0.66874">
        <ele>139</ele>
        <time>2021-08-31T00:44:41Z</time>
      </trkpt>
      <trkpt lat="45.24164" lon="0.6675">
        <ele>142</ele>
        <time>2021-08-31T00:45:01Z</time>
      </trkpt>
      <trkpt lat="45.24168" lon="0.66728">
        <ele>141</ele>
        <time>2021-08-31T00:45:05Z</time>
      </trkpt>
      <trkpt lat="45.24189" lon="0.6664">
        <ele>143</ele>
        <time>2021-08-31T00:45:20Z</time>
      </trkpt>
      <trkpt lat="45.24197" lon="0.66616">
        <ele>144</ele>
        <time>2021-08-31T00:45:25Z</time>
      </trkpt>
      <trkpt lat="45.24213" lon="0.66536">
        <ele>147</ele>
        <time>2021-08-31T00:45:38Z</time>
      </trkpt>
      <trkpt lat="45.24226" lon="0.66484">
        <ele>147</ele>
        <time>2021-08-31T00:45:48Z</time>
      </trkpt>
      <trkpt lat="45.24243" lon="0.66431">
        <ele>146</ele>
        <time>2021-08-31T00:45:57Z</time>
      </trkpt>
      <trkpt lat="45.24271" lon="0.66454">
        <ele>142</ele>
        <time>2021-08-31T00:46:05Z</time>
      </trkpt>
      <trkpt lat="45.24295" lon="0.66464">
        <ele>141</ele>
        <time>2021-08-31T00:46:11Z</time>
      </trkpt>
      <trkpt lat="45.24327" lon="0.66462">
        <ele>141</ele>
        <time>2021-08-31T00:46:18Z</time>
      </trkpt>
      <trkpt lat="45.24342" lon="0.66468">
        <ele>144</ele>
        <time>2021-08-31T00:46:22Z</time>
      </trkpt>
      <trkpt lat="45.24349" lon="0.66492">
        <ele>145</ele>
        <time>2021-08-31T00:46:26Z</time>
      </trkpt>
      <trkpt lat="45.24371" lon="0.66526">
        <ele>153</ele>
        <time>2021-08-31T00:46:33Z</time>
      </trkpt>
      <trkpt lat="45.24386" lon="0.66467">
        <ele>158</ele>
        <time>2021-08-31T00:46:44Z</time>
      </trkpt>
      <trkpt lat="45.24393" lon="0.66456">
        <ele>160</ele>
        <time>2021-08-31T00:46:46Z</time>
      </trkpt>
      <trkpt lat="45.24414" lon="0.66367">
        <ele>167</ele>
        <time>2021-08-31T00:47:02Z</time>
      </trkpt>
      <trkpt lat="45.24451" lon="0.66331">
        <ele>172</ele>
        <time>2021-08-31T00:47:12Z</time>
      </trkpt>
      <trkpt lat="45.24464" lon="0.66342">
        <ele>174</ele>
        <time>2021-08-31T00:47:16Z</time>
      </trkpt>
      <trkpt lat="45.24504" lon="0.66408">
        <ele>181</ele>
        <time>2021-08-31T00:47:30Z</time>
      </trkpt>
      <trkpt lat="45.24578" lon="0.66539">
        <ele>191</ele>
        <time>2021-08-31T00:47:58Z</time>
      </trkpt>
      <trkpt lat="45.24598" lon="0.66536">
        <ele>192</ele>
        <time>2021-08-31T00:48:02Z</time>
      </trkpt>
      <trkpt lat="45.24624" lon="0.66478">
        <ele>190</ele>
        <time>2021-08-31T00:48:14Z</time>
      </trkpt>
      <trkpt lat="45.24666" lon="0.66431">
        <ele>189</ele>
        <time>2021-08-31T00:48:26Z</time>
      </trkpt>
    </trkseg>
  </trk>
</gpx>